[[{"header":{"parameterUnit":"m.s-1","parameterCategory":1,"la1":31.0,"la2":29.5877,"lo1":-88.7671,"lo2":-86.6584,"dy":0.0162,"dx":0.0185,"nx":115,"ny":88,"refTime":"2023-06-19T00:00:00:Z","depth":0,"parameterNumber":2,"parameterNumberName":"U-component_of_WINDS"},"data":[0.0,0.0,0.0,0.0,0.0,0.0,0.0,0.0,0.0,0.0,0.0,0.0,0.0,0.0,0.0,0.0,0.0,0.0,0.0,0.0,0.0,0.0,0.0,0.0,0.0,0.0,0.0,0.0,0.0,0.0,0.0,0.0,0.0,0.0,0.0,0.0,0.0,0.0,0.0,0.0,0.0,0.0,0.0,0.0,0.0,0.0,0.0,0.0,0.0,0.0,0.0,0.0,0.0,0.0,0.0,0.0,0.0,0.0,0.0,0.0,0.0,0.0,0.0,0.0,0.0,0.0,0.0,0.0,0.0,0.0,0.0,0.0,0.0,0.0,0.0,0.0,0.0,0.0,0.0,0.0,0.0,0.0,0.0,0.0,0.0,0.0,0.0,0.0,0.0,0.0,0.0,0.0,0.0,0.0,0.0,0.0,0.0,0.0,0.0,0.0,0.0,0.0,0.0,0.0,0.0,0.0,0.0,0.0,0.0,0.0,0.0,0.0,0.0,0.0,0.0,0.0,0.0,0.0,0.0,0.0,0.0,0.0,0.0,0.0,0.0,0.0,0.0,0.0,0.0,0.0,0.0,0.0,0.0,0.0,0.0,0.0,0.0,0.0,0.0,0.0,0.0,0.0,0.0,0.0,0.0,0.0,0.0,0.0,0.0,0.0,0.0,0.0,0.0,0.0,0.0,0.0,0.0,0.0,0.0,0.0,0.0,0.0,0.0,0.0,0.0,0.0,0.0,0.0,0.0,0.0,0.0,0.0,0.0,0.0,0.0,0.0,0.0,0.0,0.0,0.0,0.0,0.0,0.0,0.0,0.0,0.0,0.0,0.0,0.0,0.0,0.0,0.0,0.0,0.0,0.0,0.0,0.0,0.0,0.0,0.0,0.0,0.0,0.0,0.0,0.0,0.0,0.0,0.0,0.0,0.0,0.0,0.0,0.0,0.0,0.0,0.0,0.0,0.0,0.0,0.0,0.0,0.0,0.0,0.0,0.0,0.0,0.0,0.0,0.0,0.0,0.0,0.0,0.0,0.0,0.0,0.0,0.0,0.0,0.0,0.0,0.0,0.0,0.0,0.0,0.0,0.0,0.0,0.0,0.0,0.0,0.0,0.0,0.0,0.0,0.0,0.0,0.0,0.0,0.0,0.0,0.0,0.0,0.0,0.0,0.0,0.0,0.0,0.0,0.0,0.0,0.0,0.0,0.0,0.0,0.0,0.0,0.0,0.0,0.0,0.0,0.0,0.0,0.0,0.0,0.0,0.0,0.0,0.0,0.0,0.0,0.0,0.0,0.0,0.0,0.0,0.0,0.0,0.0,0.0,0.0,0.0,0.0,0.0,0.0,0.0,0.0,0.0,0.0,0.0,0.0,0.0,0.0,0.0,0.0,0.0,0.0,0.0,0.0,0.0,0.0,0.0,0.0,0.0,0.0,0.0,0.0,0.0,0.0,0.0,0.0,0.0,0.0,0.0,0.0,0.0,0.0,0.0,0.0,0.0,0.0,0.0,0.0,0.0,0.0,0.0,0.0,0.0,0.0,0.0,0.0,0.0,0.0,0.0,0.0,0.0,0.0,0.0,0.0,0.0,0.0,0.0,0.0,0.0,0.0,0.0,0.0,0.0,0.0,0.0,0.0,0.0,0.0,0.0,0.0,0.0,0.0,0.0,0.0,0.0,0.0,0.0,0.0,0.0,0.0,0.0,0.0,0.0,0.0,0.0,0.0,0.0,0.0,0.0,0.0,0.0,0.0,0.0,0.0,0.0,0.0,0.0,0.0,0.0,0.0,0.0,0.0,0.0,0.0,0.0,0.0,0.0,0.0,0.0,0.0,0.0,0.0,0.0,0.0,0.0,0.0,0.0,0.0,0.0,0.0,0.0,0.0,0.0,0.0,0.0,0.0,0.0,0.0,0.0,0.0,0.0,0.0,0.0,0.0,0.0,0.0,0.0,0.0,0.0,0.0,0.0,0.0,0.0,0.0,0.0,0.0,0.0,0.0,0.0,0.0,0.0,0.0,0.0,0.0,0.0,0.0,0.0,0.0,0.0,0.0,0.0,0.0,0.0,0.0,0.0,0.0,0.0,0.0,0.0,0.0,0.0,0.0,0.0,0.0,0.0,0.0,0.0,0.0,0.0,0.0,0.0,0.0,0.0,0.0,0.0,0.0,0.0,0.0,0.0,0.0,0.0,0.0,0.0,0.0,0.0,0.0,0.0,0.0,0.0,0.0,0.0,0.0,0.0,0.0,0.0,0.0,0.0,0.0,0.0,0.0,0.0,0.0,0.0,0.0,0.0,0.0,0.0,0.0,0.0,0.0,0.0,0.0,0.0,0.0,0.0,0.0,0.0,0.0,0.0,0.0,0.0,0.0,0.0,0.0,0.0,0.0,0.0,0.0,0.0,0.0,0.0,0.0,0.0,0.0,0.0,0.0,0.0,0.0,0.0,0.0,0.0,0.0,0.0,0.0,0.0,0.0,0.0,0.0,0.0,0.0,0.0,0.0,0.0,0.0,0.0,0.0,0.0,0.0,0.0,0.0,0.0,0.0,0.0,0.0,0.0,0.0,0.0,0.0,0.0,0.0,0.0,0.0,0.0,0.0,0.0,0.0,0.0,0.0,0.0,0.0,0.0,0.0,0.0,0.0,0.0,0.0,0.0,0.0,0.0,0.0,0.0,0.0,0.0,0.0,0.0,0.0,0.0,0.0,0.0,0.0,0.0,0.0,0.0,0.0,0.0,0.0,0.0,0.0,0.0,0.0,0.0,0.0,0.0,0.0,0.0,0.0,0.0,0.0,0.0,0.0,0.0,0.0,0.0,0.0,0.0,0.0,0.0,0.0,0.0,0.0,0.0,0.0,0.0,0.0,0.0,0.0,0.0,0.0,0.0,0.0,0.0,0.0,0.0,0.0,0.0,0.0,0.0,0.0,0.0,0.0,0.0,0.0,0.0,0.0,0.0,0.0,0.0,0.0,0.0,0.0,0.0,0.0,0.0,0.0,0.0,0.0,0.0,0.0,0.0,0.0,0.0,0.0,0.0,0.0,0.0,0.0,0.0,0.0,0.0,0.0,0.0,0.0,0.0,0.0,0.0,0.0,0.0,0.0,0.0,0.0,0.0,0.0,0.0,0.0,0.0,0.0,0.0,0.0,0.0,0.0,0.0,0.0,0.0,0.0,0.0,0.0,0.0,0.0,0.0,0.0,0.0,0.0,0.0,0.0,0.0,0.0,0.0,0.0,0.0,0.0,0.0,0.0,0.0,0.0,0.0,0.0,0.0,0.0,0.0,0.0,0.0,0.0,0.0,0.0,0.0,0.0,0.0,0.0,0.0,0.0,0.0,0.0,0.0,0.0,0.0,0.0,0.0,0.0,0.0,0.0,0.0,0.0,0.0,0.0,0.0,0.0,0.0,0.0,0.0,0.0,0.0,0.0,0.0,0.0,0.0,0.0,0.0,0.0,0.0,0.0,0.0,0.0,0.0,0.0,0.0,0.0,0.0,0.0,0.0,0.0,0.0,0.0,0.0,0.0,0.0,0.0,0.0,0.0,0.0,0.0,0.0,0.0,0.0,0.0,0.0,0.0,0.0,0.0,0.0,0.0,0.0,0.0,0.0,0.0,0.0,0.0,0.0,0.0,0.0,0.0,0.0,0.0,0.0,0.0,0.0,0.0,0.0,0.0,0.0,0.0,0.0,0.0,0.0,0.0,0.0,0.0,0.0,0.0,0.0,0.0,0.0,0.0,0.0,0.0,0.0,0.0,0.0,0.0,0.0,0.0,0.0,0.0,0.0,0.0,0.0,0.0,0.0,0.0,0.0,0.0,0.0,0.0,0.0,0.0,0.0,0.0,0.0,0.0,0.0,0.0,0.0,0.0,0.0,0.0,0.0,0.0,0.0,0.0,0.0,0.0,0.0,0.0,0.0,0.0,0.0,0.0,0.0,0.0,0.0,0.0,0.0,0.0,0.0,0.0,0.0,0.0,0.0,0.0,0.0,0.0,0.0,0.0,0.0,0.0,0.0,0.0,0.0,0.0,0.0,0.0,0.0,0.0,0.0,0.0,0.0,0.0,0.0,0.0,0.0,0.0,0.0,0.0,0.0,0.0,0.0,0.0,0.0,0.0,0.0,0.0,0.0,0.0,0.0,0.0,0.0,0.0,0.0,0.0,0.0,0.0,0.0,0.0,0.0,0.0,0.0,0.0,0.0,0.0,0.0,0.0,0.0,0.0,0.0,0.0,0.0,0.0,0.0,0.0,0.0,0.0,0.0,0.0,-2.2096,0.0,0.0,0.0,0.0,0.0,0.0,0.0,0.0,0.0,0.0,0.0,0.0,0.0,0.0,0.0,0.0,0.0,0.0,0.0,0.0,0.0,0.0,0.0,0.0,0.0,0.0,0.0,0.0,0.0,0.0,0.0,0.0,0.0,0.0,0.0,0.0,0.0,0.0,0.0,0.0,0.0,0.0,0.0,0.0,0.0,0.0,0.0,0.0,0.0,0.0,0.0,0.0,0.0,0.0,0.0,0.0,0.0,0.0,0.0,0.0,0.0,0.0,0.0,0.0,0.0,0.0,0.0,0.0,0.0,0.0,0.0,0.0,0.0,0.0,0.0,0.0,0.0,0.0,0.0,0.0,0.0,0.0,0.0,0.0,0.0,0.0,0.0,0.0,0.0,0.0,0.0,0.0,0.0,0.0,0.0,0.0,0.0,0.0,0.0,0.0,0.0,0.0,0.0,0.0,0.0,0.0,0.0,0.0,0.0,0.0,-2.0868,-2.1956,-2.2204,-2.2368,-2.2449,0.0,0.0,0.0,0.0,0.0,0.0,0.0,0.0,0.0,0.0,0.0,0.0,0.0,0.0,0.0,0.0,0.0,0.0,0.0,0.0,0.0,0.0,0.0,0.0,0.0,0.0,0.0,0.0,0.0,0.0,0.0,0.0,0.0,0.0,0.0,0.0,0.0,0.0,0.0,0.0,0.0,0.0,0.0,0.0,0.0,0.0,0.0,0.0,0.0,0.0,0.0,0.0,0.0,0.0,0.0,0.0,0.0,0.0,0.0,0.0,0.0,0.0,0.0,0.0,0.0,0.0,0.0,0.0,0.0,0.0,0.0,0.0,0.0,0.0,0.0,0.0,0.0,0.0,0.0,0.0,0.0,0.0,0.0,0.0,0.0,0.0,0.0,0.0,0.0,0.0,0.0,0.0,0.0,0.0,0.0,0.0,0.0,0.0,0.0,0.0,0.0,0.0,0.0,0.0,0.0,0.0,0.0,0.0,0.0,0.0,0.0,0.0,-2.2266,-2.2704,-2.2923,0.0,0.0,0.0,0.0,0.0,0.0,0.0,0.0,0.0,0.0,0.0,0.0,0.0,0.0,0.0,0.0,0.0,0.0,0.0,0.0,0.0,0.0,0.0,0.0,0.0,0.0,0.0,0.0,0.0,0.0,0.0,0.0,0.0,0.0,0.0,0.0,0.0,0.0,0.0,0.0,0.0,0.0,0.0,0.0,0.0,0.0,0.0,0.0,0.0,0.0,0.0,0.0,0.0,0.0,0.0,0.0,0.0,0.0,0.0,0.0,0.0,0.0,0.0,0.0,0.0,0.0,0.0,0.0,0.0,0.0,0.0,0.0,0.0,0.0,0.0,0.0,0.0,0.0,0.0,0.0,0.0,0.0,0.0,0.0,0.0,0.0,0.0,0.0,0.0,0.0,0.0,0.0,0.0,0.0,0.0,0.0,0.0,0.0,0.0,0.0,0.0,0.0,0.0,0.0,0.0,0.0,0.0,0.0,0.0,0.0,-2.0165,-2.0805,-2.1757,0.0,-2.3206,0.0,0.0,0.0,0.0,0.0,0.0,0.0,0.0,0.0,0.0,0.0,0.0,0.0,0.0,0.0,0.0,0.0,0.0,0.0,0.0,0.0,0.0,0.0,0.0,0.0,0.0,0.0,0.0,0.0,0.0,0.0,0.0,0.0,0.0,0.0,0.0,0.0,0.0,0.0,0.0,0.0,0.0,0.0,0.0,0.0,0.0,0.0,0.0,0.0,0.0,0.0,0.0,0.0,0.0,0.0,0.0,0.0,0.0,0.0,0.0,0.0,0.0,0.0,0.0,0.0,0.0,0.0,0.0,0.0,0.0,0.0,0.0,0.0,0.0,0.0,0.0,0.0,0.0,0.0,0.0,0.0,0.0,0.0,0.0,0.0,0.0,0.0,0.0,0.0,0.0,0.0,0.0,0.0,0.0,0.0,0.0,0.0,0.0,0.0,0.0,0.0,0.0,0.0,0.0,0.0,0.0,0.0,0.0,0.0,0.0,-1.9636,-2.1187,-2.1903,-2.2535,0.0,0.0,0.0,0.0,0.0,0.0,0.0,0.0,0.0,0.0,0.0,0.0,0.0,0.0,0.0,0.0,0.0,0.0,0.0,0.0,0.0,0.0,0.0,0.0,0.0,0.0,0.0,0.0,0.0,0.0,0.0,0.0,0.0,0.0,0.0,0.0,0.0,0.0,0.0,0.0,0.0,0.0,0.0,0.0,0.0,0.0,0.0,0.0,0.0,0.0,0.0,0.0,0.0,0.0,0.0,0.0,0.0,0.0,0.0,0.0,0.0,0.0,0.0,0.0,0.0,0.0,0.0,0.0,0.0,0.0,0.0,0.0,0.0,0.0,0.0,0.0,0.0,0.0,0.0,0.0,0.0,0.0,0.0,0.0,0.0,0.0,0.0,0.0,0.0,0.0,0.0,0.0,0.0,0.0,0.0,0.0,0.0,0.0,0.0,0.0,0.0,0.0,0.0,0.0,0.0,0.0,0.0,0.0,0.0,0.0,-1.7824,-1.9513,-2.1666,-2.2026,-2.2409,-2.294,0.0,0.0,0.0,0.0,0.0,0.0,0.0,0.0,0.0,0.0,0.0,0.0,0.0,0.0,0.0,0.0,0.0,0.0,0.0,0.0,0.0,0.0,0.0,0.0,0.0,0.0,0.0,0.0,0.0,0.0,0.0,0.0,0.0,0.0,0.0,0.0,0.0,0.0,0.0,0.0,0.0,0.0,0.0,0.0,0.0,0.0,0.0,0.0,0.0,0.0,0.0,0.0,0.0,0.0,0.0,0.0,0.0,0.0,0.0,0.0,0.0,0.0,0.0,0.0,0.0,0.0,0.0,0.0,0.0,0.0,0.0,0.0,0.0,0.0,0.0,0.0,0.0,0.0,0.0,0.0,0.0,0.0,0.0,0.0,0.0,0.0,0.0,0.0,0.0,0.0,0.0,0.0,0.0,0.0,0.0,0.0,0.0,0.0,0.0,0.0,0.0,0.0,0.0,0.0,0.0,0.0,0.0,0.0,-1.6434,-1.8145,-2.0094,-2.2157,-2.1978,-2.2226,0.0,0.0,0.0,0.0,0.0,0.0,0.0,0.0,0.0,0.0,0.0,0.0,0.0,0.0,0.0,0.0,0.0,0.0,0.0,0.0,0.0,0.0,0.0,0.0,0.0,0.0,0.0,0.0,0.0,0.0,0.0,0.0,0.0,0.0,0.0,0.0,0.0,0.0,0.0,0.0,0.0,0.0,0.0,0.0,0.0,0.0,0.0,0.0,0.0,0.0,0.0,0.0,0.0,0.0,0.0,0.0,0.0,0.0,0.0,0.0,0.0,0.0,0.0,0.0,0.0,0.0,0.0,0.0,0.0,0.0,0.0,0.0,0.0,0.0,0.0,0.0,0.0,0.0,0.0,0.0,0.0,0.0,0.0,0.0,0.0,0.0,0.0,0.0,0.0,0.0,0.0,0.0,0.0,0.0,0.0,0.0,0.0,0.0,0.0,0.0,0.0,0.0,0.0,0.0,0.0,0.0,0.0,0.0,0.0,-1.6579,-1.8714,-2.0409,-2.1615,-2.2003,-2.2466,0.0,0.0,0.0,0.0,0.0,0.0,0.0,0.0,0.0,0.0,0.0,0.0,0.0,0.0,0.0,0.0,0.0,0.0,0.0,0.0,0.0,0.0,0.0,0.0,0.0,0.0,0.0,0.0,0.0,0.0,0.0,0.0,0.0,0.0,0.0,0.0,0.0,0.0,0.0,0.0,0.0,0.0,0.0,0.0,0.0,0.0,0.0,0.0,0.0,0.0,0.0,0.0,0.0,0.0,0.0,0.0,0.0,0.0,0.0,0.0,0.0,0.0,0.0,0.0,0.0,0.0,0.0,0.0,0.0,0.0,0.0,0.0,0.0,0.0,0.0,0.0,0.0,0.0,0.0,0.0,0.0,0.0,0.0,0.0,0.0,0.0,0.0,0.0,0.0,0.0,0.0,0.0,0.0,0.0,0.0,0.0,0.0,0.0,0.0,0.0,0.0,0.0,0.0,0.0,0.0,0.0,0.0,0.0,0.0,-1.6863,0.0,-2.0226,-2.1133,-2.1866,-2.2632,0.0,0.0,0.0,0.0,0.0,0.0,0.0,0.0,0.0,0.0,0.0,0.0,0.0,0.0,0.0,0.0,0.0,0.0,0.0,0.0,0.0,0.0,0.0,0.0,0.0,0.0,0.0,0.0,0.0,0.0,0.0,0.0,0.0,0.0,0.0,0.0,0.0,0.0,0.0,0.0,0.0,0.0,0.0,0.0,0.0,0.0,0.0,0.0,0.0,0.0,0.0,0.0,0.0,0.0,0.0,0.0,0.0,0.0,0.0,0.0,0.0,0.0,0.0,0.0,0.0,0.0,0.0,0.0,0.0,0.0,0.0,0.0,0.0,0.0,0.0,0.0,0.0,0.0,0.0,0.0,0.0,0.0,0.0,0.0,0.0,0.0,0.0,0.0,0.0,0.0,0.0,0.0,0.0,0.0,0.0,0.0,0.0,0.0,0.0,0.0,0.0,0.0,0.0,0.0,0.0,0.0,0.0,0.0,-1.5295,-1.7384,-1.8337,-1.9491,-2.0783,-2.1658,-2.2815,0.0,0.0,0.0,0.0,0.0,0.0,0.0,0.0,0.0,0.0,0.0,0.0,0.0,0.0,0.0,0.0,0.0,0.0,0.0,0.0,0.0,0.0,0.0,0.0,0.0,0.0,0.0,0.0,0.0,0.0,0.0,0.0,0.0,0.0,0.0,0.0,0.0,0.0,0.0,0.0,0.0,0.0,0.0,0.0,0.0,0.0,0.0,0.0,0.0,0.0,0.0,0.0,0.0,0.0,0.0,0.0,0.0,0.0,0.0,0.0,0.0,0.0,0.0,0.0,0.0,0.0,0.0,0.0,0.0,0.0,0.0,0.0,0.0,0.0,0.0,0.0,0.0,0.0,0.0,0.0,0.0,0.0,0.0,0.0,0.0,0.0,0.0,0.0,0.0,0.0,0.0,0.0,0.0,0.0,0.0,0.0,0.0,0.0,0.0,0.0,0.0,0.0,0.0,0.0,0.0,0.0,0.0,0.0,0.0,-1.997,-1.9897,-2.0608,-2.2256,-2.349,-2.4475,0.0,0.0,0.0,0.0,0.0,0.0,0.0,0.0,0.0,0.0,0.0,0.0,0.0,0.0,0.0,0.0,0.0,0.0,0.0,0.0,0.0,0.0,0.0,0.0,0.0,0.0,0.0,0.0,0.0,0.0,0.0,0.0,0.0,0.0,0.0,0.0,0.0,0.0,0.0,0.0,0.0,0.0,0.0,0.0,0.0,0.0,0.0,0.0,0.0,0.0,0.0,0.0,0.0,0.0,0.0,0.0,0.0,0.0,0.0,0.0,0.0,0.0,0.0,0.0,0.0,0.0,0.0,0.0,0.0,0.0,0.0,0.0,0.0,0.0,0.0,0.0,0.0,0.0,0.0,0.0,0.0,0.0,0.0,0.0,0.0,0.0,0.0,0.0,0.0,0.0,0.0,0.0,0.0,0.0,0.0,0.0,0.0,0.0,0.0,0.0,0.0,0.0,0.0,0.0,0.0,0.0,0.0,0.0,0.0,-2.0753,-2.052,-2.1075,-2.2753,-2.4076,-2.5188,-2.6068,0.0,0.0,0.0,0.0,0.0,0.0,0.0,0.0,0.0,0.0,0.0,0.0,0.0,0.0,0.0,0.0,0.0,0.0,0.0,0.0,0.0,0.0,0.0,0.0,0.0,0.0,0.0,0.0,0.0,0.0,0.0,0.0,0.0,0.0,0.0,0.0,0.0,0.0,0.0,0.0,0.0,0.0,0.0,0.0,0.0,0.0,0.0,0.0,0.0,0.0,0.0,0.0,0.0,0.0,0.0,0.0,0.0,0.0,0.0,0.0,0.0,0.0,0.0,0.0,0.0,0.0,0.0,0.0,0.0,0.0,0.0,0.0,0.0,0.0,0.0,0.0,0.0,0.0,0.0,0.0,0.0,0.0,0.0,0.0,0.0,0.0,0.0,0.0,0.0,0.0,0.0,0.0,0.0,0.0,0.0,0.0,0.0,0.0,0.0,0.0,0.0,0.0,0.0,0.0,0.0,0.0,0.0,0.0,-2.0288,-2.0288,-2.1009,-2.2535,-2.3753,-2.524,0.0,0.0,0.0,0.0,0.0,0.0,0.0,0.0,0.0,0.0,0.0,0.0,0.0,0.0,0.0,0.0,0.0,0.0,0.0,0.0,0.0,0.0,0.0,0.0,0.0,0.0,0.0,0.0,0.0,0.0,0.0,0.0,0.0,0.0,0.0,0.0,0.0,0.0,0.0,0.0,0.0,0.0,0.0,0.0,0.0,0.0,0.0,0.0,0.0,0.0,0.0,0.0,0.0,0.0,0.0,0.0,0.0,0.0,0.0,0.0,0.0,0.0,0.0,0.0,0.0,0.0,0.0,0.0,0.0,0.0,0.0,0.0,0.0,0.0,0.0,0.0,0.0,0.0,0.0,0.0,0.0,0.0,0.0,0.0,0.0,0.0,0.0,0.0,0.0,0.0,0.0,0.0,0.0,0.0,0.0,0.0,0.0,0.0,0.0,0.0,0.0,0.0,0.0,0.0,0.0,0.0,0.0,0.0,0.0,-2.0402,-2.0933,-2.1845,-2.3305,-2.533,-2.677,0.0,0.0,0.0,0.0,0.0,0.0,0.0,0.0,0.0,0.0,0.0,0.0,0.0,0.0,0.0,0.0,0.0,0.0,0.0,0.0,0.0,0.0,0.0,0.0,0.0,0.0,0.0,0.0,0.0,0.0,0.0,0.0,0.0,0.0,0.0,0.0,0.0,0.0,0.0,0.0,0.0,0.0,0.0,0.0,0.0,0.0,0.0,0.0,0.0,0.0,0.0,0.0,0.0,0.0,0.0,0.0,0.0,0.0,0.0,0.0,0.0,0.0,0.0,0.0,0.0,0.0,0.0,0.0,0.0,0.0,0.0,0.0,0.0,0.0,0.0,0.0,0.0,0.0,0.0,0.0,0.0,0.0,0.0,0.0,0.0,0.0,0.0,0.0,0.0,0.0,0.0,0.0,0.0,0.0,0.0,0.0,0.0,0.0,0.0,0.0,0.0,0.0,0.0,0.0,0.0,0.0,0.0,0.0,-1.9158,-2.0351,-2.1138,-2.2045,-2.3043,-2.5212,-2.6717,0.0,0.0,0.0,0.0,0.0,0.0,0.0,0.0,0.0,0.0,0.0,0.0,0.0,0.0,0.0,0.0,0.0,0.0,0.0,0.0,0.0,0.0,0.0,0.0,0.0,0.0,0.0,0.0,0.0,0.0,0.0,0.0,0.0,0.0,0.0,0.0,0.0,0.0,0.0,0.0,0.0,0.0,0.0,0.0,0.0,0.0,0.0,0.0,0.0,0.0,0.0,0.0,0.0,0.0,0.0,0.0,0.0,0.0,0.0,0.0,0.0,0.0,0.0,0.0,0.0,0.0,0.0,0.0,0.0,0.0,0.0,0.0,0.0,0.0,0.0,0.0,0.0,0.0,0.0,0.0,0.0,0.0,0.0,0.0,0.0,0.0,0.0,0.0,0.0,0.0,0.0,0.0,0.0,0.0,0.0,0.0,0.0,0.0,0.0,0.0,0.0,0.0,0.0,0.0,0.0,0.0,0.0,0.0,-1.9512,-2.0181,-2.1148,-2.1819,-2.2314,-2.4153,-2.5801,0.0,0.0,0.0,0.0,0.0,0.0,0.0,0.0,0.0,0.0,0.0,0.0,0.0,0.0,0.0,0.0,0.0,0.0,0.0,0.0,0.0,0.0,0.0,0.0,0.0,0.0,0.0,0.0,0.0,0.0,0.0,0.0,0.0,0.0,0.0,0.0,0.0,0.0,0.0,0.0,0.0,0.0,0.0,0.0,0.0,0.0,0.0,0.0,0.0,0.0,0.0,0.0,0.0,0.0,0.0,0.0,0.0,0.0,0.0,0.0,0.0,0.0,0.0,0.0,0.0,0.0,0.0,0.0,0.0,0.0,0.0,0.0,0.0,0.0,0.0,0.0,0.0,0.0,0.0,0.0,0.0,0.0,0.0,0.0,0.0,0.0,0.0,0.0,0.0,0.0,0.0,0.0,0.0,0.0,0.0,0.0,0.0,0.0,0.0,0.0,0.0,0.0,0.0,0.0,0.0,0.0,0.0,0.0,-1.9384,-2.0181,-2.0818,-2.1465,-2.2128,-2.4153,-2.5553,0.0,0.0,0.0,0.0,0.0,0.0,0.0,0.0,0.0,0.0,0.0,0.0,0.0,0.0,0.0,0.0,0.0,0.0,0.0,0.0,0.0,0.0,0.0,0.0,0.0,0.0,0.0,0.0,0.0,0.0,0.0,0.0,0.0,0.0,0.0,0.0,0.0,0.0,0.0,0.0,0.0,0.0,0.0,0.0,0.0,0.0,0.0,0.0,-2.4494,0.0,0.0,0.0,0.0,0.0,0.0,0.0,0.0,0.0,0.0,0.0,0.0,0.0,0.0,0.0,0.0,0.0,0.0,0.0,0.0,0.0,0.0,0.0,0.0,0.0,0.0,0.0,0.0,0.0,0.0,0.0,0.0,0.0,0.0,0.0,0.0,0.0,0.0,0.0,0.0,0.0,0.0,0.0,0.0,0.0,0.0,0.0,0.0,0.0,0.0,0.0,0.0,0.0,0.0,0.0,0.0,0.0,0.0,0.0,-1.9267,-2.0434,-2.0746,-2.1505,-2.2725,-2.407,-2.5155,0.0,0.0,0.0,0.0,0.0,0.0,0.0,0.0,0.0,0.0,0.0,0.0,0.0,0.0,0.0,0.0,0.0,0.0,0.0,0.0,0.0,0.0,0.0,0.0,0.0,0.0,0.0,0.0,0.0,0.0,0.0,0.0,0.0,0.0,0.0,0.0,0.0,0.0,0.0,0.0,0.0,0.0,0.0,0.0,0.0,0.0,0.0,0.0,0.0,0.0,0.0,0.0,0.0,0.0,0.0,0.0,0.0,0.0,0.0,0.0,0.0,0.0,0.0,0.0,0.0,0.0,0.0,0.0,0.0,0.0,0.0,0.0,0.0,0.0,0.0,0.0,0.0,0.0,0.0,0.0,0.0,0.0,0.0,0.0,0.0,0.0,0.0,0.0,0.0,0.0,0.0,0.0,0.0,0.0,0.0,0.0,0.0,0.0,0.0,0.0,0.0,0.0,0.0,0.0,0.0,0.0,0.0,-1.8585,-1.9364,-2.077,-2.0972,-2.1736,-2.3265,-2.404,-2.4937,-2.6005,0.0,0.0,0.0,0.0,0.0,0.0,0.0,0.0,0.0,0.0,0.0,0.0,0.0,0.0,0.0,0.0,0.0,0.0,0.0,0.0,0.0,0.0,0.0,0.0,0.0,0.0,0.0,0.0,0.0,0.0,0.0,0.0,0.0,0.0,0.0,0.0,0.0,0.0,-2.1499,-2.1537,0.0,0.0,0.0,0.0,0.0,0.0,0.0,0.0,-2.0566,0.0,0.0,0.0,0.0,0.0,0.0,0.0,0.0,0.0,0.0,0.0,0.0,0.0,0.0,0.0,0.0,0.0,0.0,0.0,0.0,0.0,0.0,0.0,0.0,0.0,0.0,0.0,0.0,0.0,0.0,0.0,0.0,0.0,0.0,0.0,0.0,0.0,0.0,0.0,0.0,0.0,0.0,0.0,0.0,0.0,0.0,0.0,0.0,0.0,0.0,0.0,0.0,0.0,0.0,0.0,0.0,-1.9206,-1.9981,-2.0604,-2.0983,-2.1658,-2.214,-2.2379,-2.4113,-2.5546,-2.6607,0.0,0.0,0.0,0.0,0.0,0.0,0.0,0.0,0.0,0.0,0.0,0.0,0.0,0.0,0.0,0.0,0.0,0.0,0.0,0.0,0.0,0.0,0.0,0.0,0.0,0.0,0.0,0.0,0.0,0.0,0.0,0.0,0.0,0.0,0.0,0.0,0.0,0.0,0.0,-1.9775,-1.961,0.0,0.0,0.0,0.0,0.0,0.0,0.0,0.0,-1.9071,0.0,0.0,0.0,0.0,0.0,0.0,0.0,0.0,0.0,0.0,0.0,0.0,0.0,0.0,0.0,0.0,0.0,0.0,0.0,0.0,0.0,0.0,0.0,0.0,0.0,0.0,0.0,0.0,0.0,0.0,0.0,0.0,0.0,0.0,0.0,0.0,0.0,0.0,0.0,0.0,0.0,0.0,0.0,0.0,0.0,0.0,0.0,0.0,0.0,0.0,0.0,0.0,0.0,0.0,0.0,-2.0201,-2.0327,-2.0559,-2.1101,-2.1767,-2.2374,-2.3004,-2.4348,-2.6144,0.0,0.0,0.0,0.0,0.0,0.0,0.0,0.0,0.0,0.0,0.0,0.0,0.0,0.0,0.0,0.0,0.0,0.0,0.0,0.0,0.0,0.0,0.0,0.0,0.0,0.0,0.0,0.0,0.0,0.0,0.0,0.0,0.0,0.0,0.0,0.0,0.0,0.0,0.0,0.0,-1.8792,-1.8792,-1.8987,0.0,0.0,0.0,0.0,0.0,0.0,-1.9132,-1.9156,0.0,0.0,0.0,0.0,0.0,0.0,0.0,0.0,0.0,0.0,0.0,0.0,0.0,0.0,0.0,0.0,0.0,0.0,0.0,0.0,0.0,0.0,0.0,0.0,0.0,0.0,0.0,0.0,0.0,0.0,0.0,0.0,0.0,0.0,0.0,0.0,0.0,0.0,0.0,0.0,0.0,0.0,0.0,0.0,0.0,0.0,0.0,0.0,0.0,0.0,0.0,0.0,0.0,0.0,0.0,-2.119,-2.0768,-2.08,-2.1461,-2.2048,-2.2892,-2.3943,-2.4857,-2.6664,0.0,0.0,0.0,0.0,0.0,0.0,0.0,0.0,0.0,0.0,0.0,0.0,0.0,0.0,0.0,0.0,0.0,0.0,0.0,0.0,0.0,0.0,0.0,0.0,0.0,0.0,0.0,0.0,0.0,0.0,0.0,0.0,0.0,0.0,0.0,0.0,0.0,0.0,0.0,0.0,0.0,-1.8459,-1.8869,-1.8274,0.0,0.0,0.0,0.0,-1.8471,-1.9126,0.0,0.0,0.0,0.0,0.0,0.0,0.0,0.0,0.0,0.0,0.0,0.0,0.0,0.0,0.0,0.0,0.0,0.0,0.0,0.0,0.0,0.0,0.0,0.0,0.0,0.0,0.0,0.0,0.0,0.0,0.0,0.0,0.0,0.0,0.0,0.0,0.0,0.0,0.0,0.0,0.0,0.0,0.0,0.0,0.0,0.0,0.0,0.0,0.0,0.0,0.0,0.0,0.0,0.0,0.0,0.0,-2.1956,-2.2355,-2.2489,-2.238,-2.345,-2.4186,-2.453,-2.5774,-2.7092,0.0,0.0,0.0,0.0,0.0,0.0,0.0,0.0,0.0,0.0,0.0,0.0,0.0,0.0,0.0,0.0,0.0,0.0,0.0,0.0,0.0,0.0,0.0,0.0,0.0,0.0,0.0,0.0,0.0,0.0,0.0,0.0,0.0,0.0,0.0,0.0,0.0,0.0,0.0,0.0,0.0,-1.8525,-1.8525,-1.91,-1.9341,0.0,0.0,-1.825,-1.8485,-1.8507,0.0,0.0,0.0,0.0,0.0,0.0,0.0,0.0,0.0,0.0,0.0,0.0,0.0,0.0,0.0,0.0,0.0,0.0,0.0,0.0,0.0,0.0,0.0,0.0,0.0,0.0,0.0,0.0,0.0,0.0,0.0,0.0,0.0,0.0,0.0,0.0,0.0,0.0,0.0,0.0,0.0,0.0,0.0,0.0,0.0,0.0,0.0,0.0,0.0,0.0,0.0,0.0,0.0,0.0,0.0,-2.2621,-2.2561,-2.2797,-2.2772,-2.2668,-2.3709,-2.4815,-2.5798,-2.6115,-2.6872,0.0,0.0,0.0,0.0,0.0,0.0,0.0,0.0,0.0,0.0,0.0,0.0,0.0,0.0,0.0,0.0,0.0,0.0,0.0,0.0,0.0,0.0,0.0,0.0,0.0,0.0,0.0,0.0,0.0,0.0,0.0,0.0,0.0,0.0,0.0,0.0,0.0,0.0,0.0,0.0,0.0,0.0,-1.8562,-1.8805,0.0,0.0,0.0,-1.8259,-1.8655,0.0,0.0,0.0,0.0,0.0,0.0,0.0,0.0,0.0,0.0,0.0,0.0,0.0,0.0,0.0,0.0,0.0,0.0,0.0,0.0,0.0,0.0,0.0,0.0,0.0,0.0,0.0,0.0,0.0,0.0,0.0,0.0,0.0,0.0,0.0,0.0,0.0,0.0,0.0,0.0,0.0,0.0,0.0,0.0,0.0,0.0,0.0,0.0,0.0,0.0,0.0,0.0,0.0,0.0,0.0,0.0,0.0,-2.2921,-2.2909,-2.2857,-2.2765,-2.3722,-2.4895,-2.6315,-2.6077,0.0,0.0,0.0,0.0,0.0,0.0,0.0,0.0,0.0,0.0,0.0,0.0,0.0,0.0,0.0,0.0,0.0,0.0,0.0,0.0,0.0,0.0,0.0,0.0,0.0,0.0,0.0,-1.8638,0.0,0.0,0.0,0.0,0.0,0.0,0.0,0.0,0.0,0.0,0.0,0.0,0.0,0.0,-1.9046,-1.9148,-1.9011,-1.8923,0.0,0.0,-1.848,-1.856,-1.8612,-1.8651,0.0,0.0,0.0,0.0,0.0,0.0,0.0,0.0,0.0,0.0,0.0,0.0,0.0,0.0,0.0,0.0,0.0,0.0,0.0,0.0,0.0,0.0,0.0,0.0,0.0,0.0,0.0,0.0,0.0,0.0,0.0,0.0,0.0,0.0,0.0,0.0,0.0,0.0,0.0,0.0,0.0,0.0,0.0,0.0,0.0,0.0,0.0,0.0,0.0,0.0,0.0,0.0,0.0,0.0,-2.303,-2.2909,-2.3017,-2.2975,-2.2732,-2.3612,-2.4408,-2.5075,-2.5619,-2.6269,0.0,0.0,0.0,0.0,0.0,0.0,0.0,0.0,0.0,0.0,0.0,0.0,0.0,0.0,0.0,0.0,0.0,0.0,0.0,0.0,0.0,0.0,0.0,0.0,0.0,0.0,0.0,0.0,0.0,0.0,0.0,0.0,0.0,0.0,0.0,0.0,0.0,0.0,0.0,0.0,0.0,-2.0685,-2.0399,-2.0795,-2.0696,0.0,-1.9458,-1.9125,-1.7997,-1.7949,-1.8046,-1.8066,0.0,0.0,0.0,0.0,0.0,0.0,0.0,0.0,0.0,0.0,0.0,0.0,0.0,0.0,0.0,0.0,0.0,0.0,0.0,0.0,0.0,0.0,0.0,0.0,0.0,0.0,0.0,0.0,0.0,0.0,0.0,0.0,0.0,0.0,0.0,0.0,0.0,0.0,0.0,0.0,0.0,0.0,0.0,0.0,0.0,0.0,0.0,0.0,0.0,0.0,0.0,0.0,0.0,-2.3078,-2.3017,-2.3078,-2.3075,-2.2949,-2.3702,-2.4026,-2.3843,-2.4813,-2.5591,0.0,0.0,0.0,0.0,0.0,0.0,0.0,0.0,0.0,0.0,0.0,0.0,0.0,0.0,0.0,0.0,0.0,0.0,0.0,0.0,0.0,0.0,0.0,0.0,0.0,0.0,0.0,0.0,-2.0653,-1.9971,-2.0493,0.0,0.0,0.0,0.0,0.0,0.0,0.0,0.0,0.0,0.0,-1.9704,-1.9571,-1.9432,0.0,0.0,-1.8398,-1.8317,-1.793,-1.794,-1.8008,-1.8008,-1.8008,0.0,0.0,0.0,0.0,0.0,0.0,0.0,0.0,0.0,0.0,0.0,0.0,0.0,0.0,0.0,0.0,0.0,0.0,0.0,0.0,0.0,0.0,0.0,0.0,0.0,0.0,0.0,0.0,0.0,0.0,0.0,0.0,0.0,0.0,0.0,0.0,0.0,0.0,0.0,0.0,0.0,0.0,0.0,0.0,0.0,0.0,0.0,0.0,0.0,0.0,0.0,0.0,-2.3268,-2.3689,-2.343,-2.3183,-2.3133,-2.3857,-2.4073,-2.3641,-2.4642,-2.5351,0.0,0.0,0.0,0.0,0.0,0.0,0.0,0.0,0.0,0.0,0.0,0.0,0.0,0.0,0.0,0.0,0.0,0.0,0.0,0.0,0.0,0.0,0.0,0.0,0.0,0.0,0.0,0.0,-2.1704,-2.1019,-2.0736,0.0,0.0,0.0,0.0,0.0,0.0,0.0,0.0,0.0,0.0,-1.9909,-1.9698,-1.9154,-1.8654,-1.8365,-1.8114,-1.792,-1.793,-1.793,-1.793,-1.793,0.0,0.0,0.0,0.0,0.0,0.0,0.0,0.0,0.0,0.0,0.0,0.0,0.0,0.0,0.0,0.0,0.0,0.0,0.0,0.0,0.0,0.0,0.0,0.0,0.0,0.0,0.0,-1.3613,0.0,0.0,-1.4924,0.0,0.0,0.0,0.0,0.0,0.0,0.0,0.0,0.0,0.0,0.0,0.0,0.0,0.0,0.0,0.0,0.0,0.0,0.0,0.0,0.0,0.0,-2.3661,-2.5001,-2.4034,-2.3472,-2.3188,-2.4223,-2.4757,-2.4745,-2.5369,-2.5893,-2.6256,0.0,0.0,0.0,0.0,0.0,0.0,0.0,0.0,0.0,0.0,0.0,0.0,0.0,0.0,0.0,0.0,0.0,0.0,0.0,0.0,0.0,0.0,0.0,0.0,0.0,0.0,-2.3441,-2.3122,-2.2494,0.0,0.0,0.0,0.0,0.0,0.0,0.0,0.0,0.0,0.0,-2.1463,-2.1851,-2.1198,-2.0794,-2.0204,-1.9727,-1.8988,-1.8279,-1.7794,-1.7725,-1.7716,0.0,0.0,0.0,0.0,0.0,0.0,0.0,0.0,0.0,0.0,0.0,0.0,0.0,0.0,0.0,0.0,0.0,0.0,0.0,0.0,0.0,0.0,0.0,0.0,0.0,0.0,0.0,-1.1106,-1.1608,0.0,0.0,0.0,0.0,0.0,0.0,0.0,0.0,0.0,0.0,0.0,-1.7891,-1.6826,0.0,0.0,0.0,0.0,0.0,0.0,0.0,0.0,0.0,0.0,0.0,0.0,-2.3847,-2.4239,-2.3833,-2.3917,-2.4616,-2.4766,-2.4935,-2.5178,-2.5128,-2.5421,-2.6043,0.0,0.0,0.0,0.0,0.0,0.0,0.0,0.0,0.0,0.0,0.0,0.0,0.0,0.0,0.0,0.0,0.0,0.0,0.0,0.0,0.0,0.0,0.0,0.0,0.0,-2.3505,0.0,0.0,0.0,0.0,0.0,0.0,0.0,0.0,0.0,0.0,0.0,-2.14,-2.1336,-2.088,-2.042,-2.0031,-1.9497,-1.9023,0.0,0.0,0.0,0.0,0.0,0.0,0.0,0.0,0.0,0.0,0.0,0.0,0.0,0.0,-1.8366,-1.7852,-1.8281,-1.8812,-1.917,0.0,0.0,0.0,0.0,0.0,0.0,0.0,0.0,0.0,0.0,0.0,0.0,0.0,0.0,-1.1344,0.0,-1.1995,0.0,0.0,0.0,0.0,0.0,0.0,0.0,0.0,-1.6448,-1.6225,-1.6768,-1.6203,-1.6251,0.0,-1.8271,-1.9479,0.0,0.0,0.0,0.0,0.0,0.0,0.0,0.0,-2.3915,-2.4038,-2.397,-2.4502,-2.579,-2.5652,-2.5646,-2.5892,-2.558,-2.5753,-2.6322,-2.6628,-2.6867,0.0,0.0,0.0,0.0,0.0,0.0,0.0,0.0,0.0,0.0,0.0,0.0,0.0,0.0,0.0,0.0,0.0,0.0,0.0,0.0,0.0,0.0,0.0,-2.3339,0.0,0.0,0.0,0.0,0.0,0.0,0.0,0.0,0.0,-2.169,-2.1262,-2.1083,-2.1273,-2.0944,-2.0616,-2.0457,0.0,0.0,0.0,0.0,0.0,0.0,0.0,-1.9287,-1.9568,-1.936,-1.9263,-1.9482,-1.9629,-1.9727,-1.9727,0.0,0.0,-1.8221,-1.9091,-1.9982,-1.9994,-2.0108,-2.0182,-2.0108,-2.0098,-2.0103,0.0,0.0,0.0,0.0,0.0,0.0,0.0,0.0,-1.1084,-1.1853,0.0,-1.2638,0.0,0.0,0.0,0.0,0.0,-1.5539,0.0,0.0,-1.5486,-1.5447,-1.5734,-1.5734,-1.575,-1.5766,-1.6294,-1.7525,-1.9449,-2.1818,0.0,0.0,0.0,0.0,0.0,0.0,-2.3968,-2.4374,-2.4302,-2.5111,-2.6606,-2.6784,-2.6875,-2.6807,-2.6714,-2.6756,-2.6998,-2.7749,-2.8208,-2.826,-2.8574,0.0,0.0,0.0,0.0,0.0,0.0,0.0,0.0,0.0,0.0,0.0,0.0,0.0,0.0,0.0,0.0,0.0,0.0,0.0,0.0,-2.293,0.0,0.0,0.0,0.0,0.0,0.0,0.0,0.0,0.0,0.0,-2.0944,-2.1348,-2.1423,-2.0722,0.0,0.0,0.0,0.0,-2.1464,-2.1842,-2.1129,-2.0319,-2.0011,-1.9815,-1.9555,-1.9273,0.0,0.0,-1.9788,-2.0273,-2.0537,-2.0566,-2.0527,-2.0303,-1.9492,-1.9826,-2.0147,-2.0026,-2.0493,-2.0867,-2.0702,-2.07,-2.073,-1.2175,0.0,0.0,0.0,0.0,-1.4175,-1.3157,-1.1212,-1.2237,-1.2351,-1.1835,-1.2652,0.0,0.0,0.0,0.0,0.0,0.0,-1.6833,-1.6721,-1.653,-1.6127,-1.575,-1.598,-1.6418,-1.7046,-1.774,-1.887,-2.0345,-2.1723,-2.2943,-2.4062,0.0,0.0,0.0,0.0,-2.3525,-2.3734,-2.3632,-2.3824,-2.4258,-2.5431,-2.6233,-2.6739,-2.6875,-2.7011,-2.7214,-2.7456,-2.7656,-2.7709,-2.7814,0.0,0.0,0.0,0.0,0.0,0.0,0.0,0.0,0.0,0.0,0.0,0.0,0.0,0.0,0.0,0.0,0.0,0.0,0.0,-2.322,-2.2384,-2.1839,0.0,0.0,0.0,0.0,0.0,0.0,0.0,0.0,0.0,-2.2159,-2.1772,-2.1293,0.0,0.0,-2.2405,-2.1181,-2.1112,-2.1005,-2.0379,-1.9899,0.0,-2.0813,-2.0944,-2.1234,-2.2135,-2.1617,-2.0898,-2.0428,-2.0478,-2.0576,-2.0644,-2.0576,-2.0478,-2.0273,-2.037,-2.0448,-2.0468,-2.1018,-2.1471,-2.1471,-2.1918,-2.2285,-1.2012,-1.292,-1.4221,-1.4418,-1.4099,-1.4402,-1.3448,-1.1545,-1.2218,-1.2129,-1.1564,-1.2247,-1.2907,-1.3708,-1.4893,0.0,0.0,0.0,-1.6961,-1.6715,-1.6663,-1.6436,-1.6095,-1.6331,-1.6743,-1.7179,-1.8066,-1.8976,-1.9982,-2.0702,-2.1697,-2.3028,0.0,0.0,-2.423,-2.3661,-2.3158,-2.2947,-2.3338,-2.3486,-2.3486,-2.4731,-2.5734,-2.6496,-2.6645,-2.685,-2.7335,-2.739,-2.7268,-2.7108,-2.7175,-2.7027,0.0,0.0,0.0,0.0,0.0,0.0,0.0,0.0,0.0,0.0,0.0,-2.5608,-2.5301,0.0,0.0,0.0,-2.4128,-2.3999,-2.3304,-2.2659,0.0,0.0,0.0,0.0,0.0,0.0,0.0,-2.2014,-2.2058,-2.2274,-2.2503,-2.2389,-2.2094,-2.1621,-2.2388,-2.2651,-2.174,0.0,-2.1745,-2.1437,-2.1186,-2.1213,-2.1734,-2.1816,-2.2014,-2.2306,-2.1842,-2.1318,-2.1165,-2.1088,-2.1165,-2.1461,-2.1538,-2.1538,-2.1538,-2.1538,-2.1471,-2.1165,-2.169,-2.2285,-2.2285,-2.266,-2.3032,-1.116,-1.2633,-1.4126,-1.4111,-1.32,-1.3302,-1.2714,-1.1745,-1.1614,-1.1765,-1.192,-1.1862,-1.2473,-1.3673,-1.5157,0.0,-1.5459,-1.6008,-1.6264,-1.6246,-1.6246,-1.6412,-1.6722,-1.673,-1.6812,-1.6894,-1.7627,-1.8264,-1.8807,-1.9213,-2.0089,-2.1502,-2.2713,-2.322,-2.3147,-2.3305,-2.2947,-2.2166,-2.318,-2.3745,-2.3829,-2.4564,-2.5358,-2.6277,-2.6195,-2.6539,-2.739,-2.7456,-2.7188,-2.6552,-2.6607,-2.6321,-2.5673,0.0,0.0,0.0,0.0,0.0,0.0,0.0,0.0,0.0,0.0,0.0,0.0,0.0,0.0,0.0,-2.453,0.0,-2.3761,-2.3404,0.0,0.0,0.0,-2.3092,-2.2799,-2.2799,-2.2685,-2.2329,0.0,0.0,-2.234,-2.3003,-2.3316,-2.2857,-2.2708,-2.288,-2.329,-2.2921,-2.3005,-2.3554,-2.3582,-2.3139,-2.2414,-2.2596,-2.2456,-2.1461,-2.0857,-2.1231,-2.1756,-2.1918,-2.2209,-2.2734,-2.3032,-2.2957,-2.2957,-2.2957,-2.2872,-2.2134,-2.2585,-2.3106,-2.3095,-2.3243,-2.3327,-1.4201,-1.4675,-1.5208,-1.46,-1.3332,-1.4015,-1.3347,-1.1957,-1.281,-1.324,-1.3386,-1.3769,-1.4565,-1.5597,-1.5913,-1.623,-1.6395,-1.6573,-1.6613,-1.6603,-1.6936,-1.6976,-1.673,-1.7066,-1.7546,-1.8175,-1.8086,-1.8638,-1.9816,-1.9599,-2.006,-2.1145,-2.1517,-2.1973,-2.2531,-2.2467,-2.2478,-2.2553,-2.2841,-2.3287,-2.3886,-2.3986,-2.4469,-2.53,-2.5988,-2.6414,-2.6633,-2.7188,-2.739,-2.7242,-2.6756,-2.6402,-2.6195,-2.5709,0.0,0.0,0.0,0.0,0.0,0.0,0.0,0.0,0.0,-2.606,-2.5673,0.0,-2.5078,0.0,-2.3952,-2.3404,-2.3337,-2.2989,0.0,0.0,-2.3012,-2.3232,-2.3283,-2.3526,-2.3607,-2.3273,-2.3546,-2.3618,-2.3329,-2.3419,-2.3525,-2.3413,-2.3606,-2.3496,-2.2826,-2.2275,-2.2008,-2.2145,-2.2069,-2.1897,-2.2563,-2.3756,-2.4204,-2.3463,-2.322,-2.3158,-2.2809,-2.2723,-2.2798,-2.2947,-2.3032,-2.3032,-2.3032,-2.3463,-2.3756,-2.3599,-2.3756,-2.3829,-2.3818,-2.4276,-2.4719,-1.4513,-1.5165,-1.5209,-1.4851,-1.4151,-1.4887,-1.4576,-1.3646,-1.4038,-1.4281,-1.4424,-1.4641,-1.5036,-1.5538,-1.5863,-1.6052,-1.6312,-1.6566,-1.673,-1.673,-1.6976,-1.6984,-1.6738,-1.6984,-1.7383,-1.7772,-1.7772,-1.8167,-1.8948,-1.8895,-1.952,-2.0663,-2.0672,-2.1288,-2.2478,-2.2402,-2.2553,-2.2927,-2.2852,-2.3075,-2.3446,-2.3497,-2.3925,-2.4862,-2.5205,-2.5639,-2.6139,-2.6701,-2.6892,-2.6595,-2.6539,-2.6402,-2.6045,-2.5627,-2.5465,0.0,0.0,0.0,0.0,0.0,0.0,0.0,0.0,0.0,0.0,0.0,-2.5457,-2.4988,-2.4434,-2.416,-2.416,-2.3827,-2.356,-2.3642,-2.3781,-2.3956,-2.4037,-2.4272,-2.4236,-2.3936,-2.4043,-2.4043,-2.3666,-2.3593,-2.3593,-2.3593,-2.3666,-2.3446,-2.2841,-2.2456,-2.2371,-2.2617,-2.2596,-2.2649,-2.322,-2.3694,-2.3925,-2.3683,-2.361,-2.3537,-2.3463,-2.3463,-2.361,-2.3913,-2.3986,-2.4059,-2.4059,-2.4337,-2.4636,-2.4636,-2.4636,-2.4636,-2.4636,-2.5004,-2.5312,-1.3994,-1.4904,-1.4918,-1.5116,-1.5365,-1.5701,-1.5731,-1.5498,-1.503,-1.4959,-1.5234,-1.5029,-1.4985,-1.4985,-1.5567,-1.5816,-1.5982,-1.6484,-1.6738,-1.6812,-1.6738,-1.673,-1.673,-1.673,-1.6738,-1.6812,-1.7302,-1.7465,-1.7473,-1.7951,-1.8807,-2.0197,-2.0275,-2.1135,-2.2767,-2.2777,-2.2927,-2.3224,-2.3161,-2.3075,-2.3075,-2.3075,-2.3582,-2.4504,-2.4264,-2.4624,-2.5639,-2.607,-2.6045,-2.5533,-2.6171,-2.6171,-2.5521,-2.5533,-2.5392,0.0,-2.5767,0.0,0.0,0.0,0.0,0.0,0.0,0.0,0.0,-2.6496,-2.5943,-2.5312,-2.5241,-2.5241,-2.517,-2.4921,-2.4718,-2.4718,-2.4801,-2.4801,-2.479,-2.4801,-2.4646,-2.4189,-2.42,-2.4127,-2.3677,-2.3677,-2.3666,-2.3604,-2.3298,-2.3075,-2.3001,-2.2841,-2.3001,-2.397,-2.4116,-2.3936,-2.4059,-2.3412,-2.3054,-2.3265,-2.3475,-2.3537,-2.4181,-2.4264,-2.4492,-2.5087,-2.5158,-2.5241,-2.5312,-2.5241,-2.5312,-2.5241,-2.5229,-2.5241,-2.5241,-2.5241,-2.5312,-1.53,-1.5554,-1.5934,-1.6129,-1.6211,-1.6393,-1.5873,-1.4889,-1.4807,-1.509,-1.5644,-1.6124,-1.6312,-1.6319,-1.6484,-1.6738,-1.7066,-1.682,-1.6894,-1.7229,-1.6894,-1.673,-1.673,-1.673,-1.6902,-1.731,-1.7844,-1.8006,-1.7878,-1.8496,-1.9353,-2.042,-2.042,-2.1431,-2.3287,0.0,0.0,0.0,-2.3372,-2.353,-2.3519,-2.3446,-2.3593,-2.3801,-2.3986,0.0,-2.4409,-2.5146,-2.5441,-2.5358,-2.5511,0.0,0.0,0.0,0.0,0.0,0.0,0.0,0.0,0.0,0.0,0.0,-2.5804,-2.5804,-2.6289,-2.622,-2.5955,-2.5382,-2.5052,-2.4778,-2.4406,-2.4345,-2.4273,-2.4345,-2.4646,-2.4801,-2.4801,-2.4801,-2.4502,-2.3813,-2.4261,-2.4429,-2.3751,-2.3897,-2.397,-2.3593,-2.3224,-2.3001,-2.3001,-2.2628,-2.2553,-2.315,-2.379,-2.4227,-2.4634,-2.4599,-2.4455,-2.455,-2.4671,-2.4874,-2.5004,-2.5016,-2.5087,-2.5312,-2.5312,-2.5312,-2.5312,-2.5312,-2.5312,-2.5312,-2.5312,-2.5312,-2.5312,-2.5312,-2.5312,-1.5816,-1.6064,-1.6312,-1.6484,0.0,-1.6648,-1.6319,-1.5733,-1.565,-1.5899,-1.6229,-1.6566,-1.673,-1.6738,-1.6984,-1.7147,-1.7392,-1.7392,-1.7465,-1.7635,-1.7229,-1.7057,-1.7057,-1.682,-1.7057,-1.7691,-1.8078,-1.847,-1.8816,-1.9423,-2.011,-2.0961,-2.0894,-2.1669,-2.3224,-2.3075,-2.3001,-2.3001,-2.3224,-2.3309,-2.3298,-2.3309,-2.3383,-2.3604,-2.357,0.0,0.0,0.0,0.0,0.0,0.0,0.0,0.0,-2.6264,0.0,-2.6676,-2.6973,-2.7053,-2.6947,-2.6688,-2.6496,-2.6233,-2.5664,-2.5453,-2.5734,-2.5734,-2.5441,-2.4779,-2.4766,-2.4634,-2.4238,-2.4334,-2.455,-2.4683,-2.4897,-2.5052,-2.5064,-2.4921,-2.4669,-2.4185,-2.415,-2.4066,-2.3716,-2.3649,-2.3519,-2.3372,-2.315,-2.3001,-2.3001,-2.2777,-2.2777,-2.3434,-2.3875,-2.4322,-2.4706,-2.4921,-2.4981,-2.4849,-2.5052,-2.5241,-2.5312,-2.5312,-2.5312,-2.5312,-2.5312,-2.5312,-2.5312,-2.5312,-2.5312,-2.5312,-2.5312,-2.5312,-2.5312,-2.5312,-2.5253,-1.5891,-1.6312,-1.6394,-1.6476,-1.6648,-1.6648,-1.673,-1.673,0.0,0.0,0.0,-1.682,-1.682,-1.6976,-1.731,-1.7563,-1.7644,-1.7878,-1.8031,-1.7959,-1.7554,-1.74,-1.7229,-1.6976,-1.7204,-1.7925,-1.8461,-1.9018,-1.9599,-2.0362,-2.1048,-2.1441,-2.1395,-2.1928,-2.2927,-2.3001,-2.3001,-2.3001,-2.3075,-2.3075,-2.3075,-2.315,-2.3298,-2.3593,-2.3224,-2.315,-2.3519,-2.3779,-2.4047,-2.4337,-2.4969,-2.5673,-2.6458,-2.6731,-2.6879,-2.6812,-2.7242,-2.7229,-2.6663,-2.6756,-2.6633,-2.6094,-2.5594,-2.5312,-2.5312,-2.5312,-2.5004,-2.4325,-2.4611,-2.4622,-2.412,-2.4527,-2.4861,-2.5099,-2.5241,-2.5241,-2.5099,-2.4838,-2.4597,-2.4353,-2.3869,-2.3638,-2.3687,-2.3375,-2.315,-2.3075,-2.3075,-2.3001,-2.3001,-2.315,-2.3446,-2.397,-2.4334,-2.455,-2.4718,-2.4933,-2.4861,-2.4849,-2.5052,-2.5312,-2.5312,-2.5312,-2.5312,-2.5312,-2.5312,-2.536,-2.5432,-2.5492,-2.5492,-2.5576,-2.5588,-2.5588,-2.56,-2.5529,-2.5362,-1.5733,-1.5816,-1.6221,-1.6394,-1.6476,-1.6648,-1.673,-1.673,-1.673,-1.6902,-1.731,-1.731,-1.7473,-1.7789,-1.787,-1.8121,-1.8451,-1.8121,-1.8031,-1.7951,-1.7554,-1.7147,-1.682,-1.7147,-1.7392,-1.7627,-1.9335,-1.9963,-1.9835,-2.1155,-2.1939,-2.2014,-2.2014,-2.2327,-2.2927,-2.3001,-2.3001,-2.3001,-2.3372,-2.3519,-2.3519,-2.353,-2.3519,-2.3604,-2.3224,-2.3001,-2.3065,-2.3139,-2.3486,-2.412,-2.4253,-2.4826,-2.5931,-2.6458,-2.6879,-2.7188,-2.739,-2.7456,-2.731,-2.6701,-2.6082,-2.5523,-2.53,-2.5312,-2.5312,-2.5312,-2.5229,-2.5087,-2.4909,-2.4539,-2.4013,-2.4443,-2.4718,-2.4478,-2.4957,-2.5028,-2.4478,-2.4345,-2.4055,-2.3394,-2.3468,-2.3604,-2.3564,-2.3542,-2.3446,-2.3446,-2.315,-2.3001,-2.3075,-2.3604,-2.4055,-2.4261,-2.4754,-2.4969,-2.4849,-2.5052,-2.5052,-2.4849,-2.5076,-2.5372,-2.5372,-2.542,-2.5444,-2.5348,-2.5432,-2.5552,-2.5889,-2.5997,-2.6154,-2.6466,-2.6562,-2.6598,-2.65,-2.6277,-2.5765,-1.5997,-1.6064,-1.6312,-1.6476,-1.6566,-1.6656,-1.673,-1.673,-1.673,-1.6812,-1.6984,-1.6984,-1.7147,-1.7302,-1.7554,-1.7797,-1.8049,-1.829,-1.8371,-1.8362,-1.821,-1.7968,-1.7797,-1.7716,-1.7951,-1.8505,-1.9511,-2.0294,-2.0857,-2.1721,-2.2252,-2.2553,-2.2628,-2.2542,-2.2553,-2.2852,-2.3001,-2.3001,-2.315,-2.3298,-2.3298,-2.353,-2.353,-2.3298,-2.3309,-2.3224,-2.3001,-2.3001,-2.335,-2.4036,-2.4192,-2.4909,-2.6264,-2.6731,-2.7217,-2.7776,-2.7987,-2.8131,-2.8131,-2.7443,-2.6688,-2.5861,-2.5804,-2.5664,-2.5312,-2.5312,-2.5087,-2.4719,-2.4766,-2.4478,-2.3841,-2.4322,-2.4718,-2.4574,-2.4969,-2.504,-2.4634,-2.4345,-2.3982,-2.3553,-2.3309,-2.3298,-2.3298,-2.3298,-2.3298,-2.3224,-2.3075,-2.3001,-2.3001,-2.3677,-2.42,-2.4189,-2.4348,-2.4576,-2.4778,-2.5052,-2.5111,-2.4861,-2.5302,-2.5709,-2.5757,-2.5925,-2.6154,-2.619,-2.6178,-2.6286,-2.6538,-2.655,-2.6683,-2.6803,-2.6923,-2.6848,-2.6621,-2.6065,-2.5432,-1.6245,-1.6386,-1.6484,-1.6566,-1.673,-1.673,-1.673,-1.673,-1.673,-1.673,-1.6738,-1.682,-1.6894,-1.7057,-1.7392,-1.7554,-1.7635,-1.8371,-1.8612,-1.8531,-1.862,-1.862,-1.8531,-1.8282,-1.8523,-1.9152,-1.9539,-2.0391,-2.1568,-2.1949,-2.2402,-2.2927,-2.3001,-2.2777,-2.2327,-2.2777,-2.3001,-2.3001,-2.3001,-2.3001,-2.3001,-2.3298,-2.3298,-2.3075,-2.3287,-2.3309,-2.3001,-2.3001,-2.3423,-2.4325,-2.4409,-2.511,-2.6744,-2.7069,-2.7458,-2.8091,-2.8314,-2.8392,-2.8249,-2.7855,-2.7229,-2.6496,-2.6371,-2.6151,-2.5734,-2.5581,-2.5158,-2.4564,-2.4611,-2.4418,-2.397,-2.4273,-2.4646,-2.4718,-2.504,-2.5111,-2.4706,-2.4429,-2.4055,-2.3638,-2.3246,-2.3001,-2.3001,-2.3001,-2.3001,-2.3001,-2.3001,-2.3023,-2.3196,-2.3772,-2.409,-2.4317,-2.4203,-2.4499,-2.5003,-2.5349,-2.5481,-2.5276,-2.5815,-2.6164,-2.6346,-2.6659,-2.6863,-2.6839,-2.6863,-2.6935,-2.7043,-2.7115,-2.7112,-2.7179,-2.7186,-2.7049,-2.6508,-2.5949,-2.5352,-1.6394,-1.6394,-1.6558,-1.6656,-1.673,-1.673,-1.673,-1.673,-1.673,-1.673,-1.673,-1.7147,-1.7554,-1.787,-1.7959,-1.7951,-1.8031,-1.8451,-1.8531,-1.8201,-1.8531,-1.846,-1.8282,-1.8531,-1.8692,-1.8931,-1.9696,-2.0547,-2.1318,-2.1787,-2.2392,-2.2927,-2.3001,-2.299,-2.2927,-2.3001,-2.3001,-2.3001,-2.3001,-2.3001,-2.3001,-2.3075,-2.3012,-2.3001,-2.3001,-2.3001,-2.3001,-2.3001,-2.3768,-2.5098,-2.4612,-2.5181,-2.7095,-2.7149,-2.7217,-2.7842,-2.7908,-2.7656,-2.7242,-2.7108,-2.7108,-2.696,-2.6905,-2.6905,-2.6769,-2.6358,-2.5873,-2.5229,-2.4611,-2.4261,-2.4116,-2.4273,-2.4345,-2.4418,-2.4897,-2.504,-2.4406,-2.4189,-2.3897,-2.3161,-2.3075,-2.3001,-2.3001,-2.3034,-2.3034,-2.3078,-2.3154,-2.3296,-2.3591,-2.3809,-2.4171,-2.4788,-2.5015,-2.5392,-2.5815,-2.616,-2.6378,-2.662,-2.6728,-2.6851,-2.6887,-2.6923,-2.6947,-2.7236,-2.7055,-2.7236,-2.7512,-2.7669,-2.7669,-2.7581,-2.7552,-2.7509,-2.671,-2.6304,-2.6054,-1.6259,-1.6356,-1.6561,-1.673,-1.673,-1.673,-1.673,-1.6738,-1.6976,-1.7147,-1.7229,-1.8014,-1.8247,-1.8167,-1.8487,-1.8807,-1.9125,-1.959,-1.9668,-1.9502,-1.9923,-2.0079,-1.9913,-2.0079,-2.0167,-2.0167,-2.0624,-2.0934,-2.1242,-2.1797,-2.2413,-2.2927,-2.3001,-2.3001,-2.3001,-2.3001,-2.3001,-2.3001,-2.3001,-2.3001,-2.3075,-2.3224,-2.3224,-2.3075,-2.3224,-2.3224,-2.3075,-2.3224,-2.3998,-2.538,-2.5193,-2.5881,-2.7842,-2.7617,-2.7709,-2.8183,-2.8262,-2.8052,-2.751,-2.7789,-2.7643,-2.704,-2.731,-2.7242,-2.6564,-2.6302,-2.5988,-2.5356,-2.4874,-2.4634,-2.4826,-2.4694,-2.4646,-2.4826,-2.5099,-2.5028,-2.4261,-2.4189,-2.3897,-2.315,-2.3001,-2.3001,-2.3045,-2.3263,-2.3405,-2.3482,-2.3646,-2.394,-2.4148,-2.4304,-2.4681,-2.5315,-2.5754,-2.6066,-2.6297,-2.7085,-2.7318,-2.7119,-2.7212,-2.7392,-2.7428,-2.7717,-2.7873,-2.7837,-2.7789,-2.7849,-2.8138,-2.8112,-2.8187,-2.7928,-2.729,-2.6951,-2.6528,-2.6279,-2.6108,-1.6063,-1.6103,-1.6341,-1.6444,-1.6452,-1.6555,-1.6532,-1.6549,-1.7033,-1.7185,-1.7174,-1.8101,-1.8554,-1.8632,-1.8997,-1.9511,-1.9894,-2.0353,-2.0575,-2.073,-2.1068,-2.1231,-2.1298,-2.1298,-2.1308,-2.1231,-2.1231,-2.1395,-2.1471,-2.2014,-2.2553,-2.2927,-2.3001,-2.3001,-2.3001,-2.3001,-2.3001,-2.3001,-2.3001,-2.3001,-2.3075,-2.3298,-2.3298,-2.3075,-2.3298,-2.3298,-2.3001,-2.3372,-2.4082,-2.511,-2.5545,-2.6377,-2.7868,-2.796,-2.8105,-2.8522,-2.8587,-2.8457,-2.8052,-2.8379,-2.8249,-2.7577,-2.7855,-2.7709,-2.704,-2.6714,-2.6352,-2.5859,-2.538,-2.5182,-2.5252,-2.5229,-2.5182,-2.53,-2.5453,-2.517,-2.4345,-2.4189,-2.3965,-2.3411,-2.3263,-2.3263,-2.3427,-2.3733,-2.3929,-2.3984,-2.4235,-2.4574,-2.4639,-2.4889,-2.5228,-2.5701,-2.6223,-2.6639,-2.6724,-2.7601,-2.7968,-2.7803,-2.7753,-2.7933,-2.7945,-2.8318,-2.8498,-2.821,-2.8438,-2.8498,-2.8414,-2.8411,-2.8115,-2.7603,-2.6962,-2.6373,-2.629,-2.6052,-2.5979,-1.5705,-1.5713,-1.5729,-1.5785,-1.5753,-1.6087,-1.6039,-1.5902,-1.655,-1.6682,-1.6588,-1.7316,-1.8155,-1.9155,-1.9659,-1.9885,-2.0032,-2.0439,-2.0814,-2.1131,-2.1191,-2.1375,-2.1659,-2.1659,-2.1527,-2.1461,-2.168,-2.1842,-2.2101,-2.2628,-2.3001,-2.3001,-2.3001,-2.3001,-2.3001,-2.3001,-2.3001,-2.3001,-2.3001,-2.3001,-2.3001,-2.3001,-2.3075,-2.3001,-2.3001,-2.3075,-2.3075,-2.3372,-2.3875,-2.4492,-2.5487,-2.6445,-2.7258,-2.7947,-2.8365,-2.8587,-2.8587,-2.8587,-2.8522,-2.8587,-2.8522,-2.8522,-2.8457,-2.8522,-2.8183,-2.7656,-2.7139,-2.6919,-2.6233,-2.5812,-2.5575,-2.5648,-2.5791,-2.5523,-2.5816,-2.5501,-2.4368,-2.4399,-2.4169,-2.3939,-2.381,-2.3842,-2.429,-2.4443,-2.4454,-2.4465,-2.4497,-2.4683,-2.5054,-2.5223,-2.5469,-2.5848,-2.6416,-2.6943,-2.747,-2.7879,-2.8282,-2.827,-2.8174,-2.8402,-2.8462,-2.851,-2.851,-2.851,-2.8431,-2.8443,-2.8467,-2.8262,-2.7731,-2.7206,-2.649,-2.6063,-2.6052,-2.5979,-2.5895,-1.6007,-1.6007,-1.6015,-1.5888,-1.5774,-1.6134,-1.6195,-1.6174,-1.6903,-1.719,-1.7229,-1.8091,-1.8673,-1.9122,-2.0096,-2.0687,-2.098,-2.1394,-2.176,-2.2237,-2.2228,-2.2611,-2.3191,-2.282,-2.2606,-2.2681,-2.2606,-2.2606,-2.2617,-2.2553,-2.2628,-2.2927,-2.3001,-2.3001,-2.3001,-2.3001,-2.3001,-2.3001,-2.3001,-2.3001,-2.3001,-2.3001,-2.3001,-2.3001,-2.3001,-2.3001,-2.3001,-2.3593,-2.425,-2.4791,-2.5652,-2.6607,-2.7484,-2.817,-2.8522,-2.8587,-2.8587,-2.8587,-2.8587,-2.8587,-2.8587,-2.8587,-2.8587,-2.8444,-2.8118,-2.7842,-2.7419,-2.6863,-2.6912,-2.6879,-2.6892,-2.6195,-2.5931,-2.6521,-2.6392,-2.5949,-2.5368,-2.5159,-2.4952,-2.4437,-2.4235,-2.4312,-2.4609,-2.4738,-2.4912,-2.4956,-2.5185,-2.5415,-2.5568,-2.5633,-2.5771,-2.6141,-2.6467,-2.6823,-2.7313,-2.7646,-2.7959,-2.8315,-2.8486,-2.8474,-2.851,-2.8443,-2.8443,-2.8259,-2.8259,-2.8122,-2.8066,-2.7557,-2.7113,-2.6606,-2.599,-2.5906,-2.5895,-2.5895,-2.5895,-1.6649,-1.6779,-1.6671,-1.648,-1.633,-1.6638,-1.6644,-1.6698,-1.7467,-1.7697,-1.7588,-1.8203,-1.8695,-1.8919,-1.9565,-2.0424,-2.1303,-2.182,-2.2304,-2.2677,-2.2689,-2.3171,-2.3735,-2.3358,-2.3301,-2.3508,-2.3224,-2.3001,-2.3001,-2.2628,-2.2628,-2.3001,-2.3001,-2.3001,-2.3001,-2.3001,-2.3001,-2.3001,-2.3001,-2.3001,-2.3001,-2.3001,-2.3001,-2.3001,-2.3001,-2.3001,-2.3001,-2.3677,-2.4177,-2.4587,-2.5511,-2.6552,-2.7696,-2.8235,-2.8522,-2.8587,-2.8522,-2.8522,-2.8587,-2.8587,-2.8587,-2.8587,-2.8587,-2.8379,-2.8118,-2.8039,-2.763,-2.7379,-2.7548,-2.8132,-2.8358,-2.7429,-2.6822,-2.737,-2.711,-2.6615,-2.5977,-2.5779,-2.5495,-2.5217,-2.5029,-2.5106,-2.5289,-2.5381,-2.5453,-2.5415,-2.571,-2.5884,-2.5895,-2.5895,-2.5979,-2.6218,-2.6302,-2.6456,-2.6778,-2.7128,-2.758,-2.8018,-2.8351,-2.8431,-2.8271,-2.8283,-2.8271,-2.8099,-2.7938,-2.7731,-2.7406,-2.6974,-2.6467,-2.5979,-2.5906,-2.5906,-2.5895,-2.5812,-2.5812,-1.7455,-1.8082,-1.7723,-1.7478,-1.7432,-1.7548,-1.7432,-1.7306,-1.8008,-1.7938,-1.7473,-1.7636,-1.8184,-1.8444,-1.8554,-1.9137,-2.0588,-2.1587,-2.2161,-2.2343,-2.2503,-2.2995,-2.3547,-2.3438,-2.3451,-2.3582,-2.3224,-2.3001,-2.3001,-2.2927,-2.2927,-2.3001,-2.3001,-2.3001,-2.3001,-2.3001,-2.3001,-2.3001,-2.3001,-2.3001,-2.3001,-2.3001,-2.3001,-2.3001,-2.3001,-2.3001,-2.3001,-2.3372,-2.3666,-2.3875,-2.5004,-2.6308,-2.763,-2.817,-2.8417,-2.8509,-2.8444,-2.8444,-2.8587,-2.8587,-2.8587,-2.8587,-2.8587,-2.8627,-2.8565,-2.8408,-2.8356,-2.8491,-2.8692,-2.9159,-2.9903,-2.9389,-2.8595,-2.7786,-2.8104,-2.7827,-2.6812,-2.6035,-2.5899,-2.62,-2.6113,-2.6235,-2.667,-2.6284,-2.5797,-2.5808,-2.5863,-2.5895,-2.5895,-2.5895,-2.5895,-2.5895,-2.5979,-2.6218,-2.6373,-2.6528,-2.7115,-2.7626,-2.803,-2.8191,-2.795,-2.7869,-2.7777,-2.7603,-2.7348,-2.7219,-2.6937,-2.6501,-2.6302,-2.5968,-2.5979,-2.5906,-2.5906,-2.5822,-2.5738,-1.8656,-1.8741,-1.8248,-1.7977,-1.7911,-1.7796,-1.7665,-1.7765,-1.8203,-1.8232,-1.8114,-1.8172,-1.8365,-1.8576,-1.8988,-1.9518,-2.0129,-2.1232,-2.2008,-2.2391,-2.2557,-2.3052,-2.3677,-2.3644,-2.3738,-2.3863,-2.3298,-2.315,-2.3309,-2.315,-2.3001,-2.3001,-2.3001,-2.3001,-2.3001,-2.3001,-2.3001,-2.3001,-2.3001,-2.3001,-2.3001,-2.3001,-2.3001,-2.3001,-2.3001,-2.3001,-2.3001,-2.3372,-2.3751,-2.4043,-2.5346,-2.6799,-2.8039,-2.8444,-2.8509,-2.8587,-2.8509,-2.8444,-2.843,-2.8509,-2.8522,-2.8444,-2.8536,-2.8752,-2.8945,-2.8932,-2.904,-2.9389,-2.9615,-3.0023,-3.0596,-3.0699,-3.0241,-2.9542,-2.9327,-2.9129,-2.8487,-2.8009,-2.7549,-2.699,-2.6862,-2.6707,-2.6373,-2.5979,-2.5979,-2.5895,-2.5895,-2.5895,-2.5895,-2.5895,-2.5895,-2.5895,-2.5895,-2.5895,-2.6135,-2.629,-2.6622,-2.7126,-2.7522,-2.7765,-2.7534,-2.7371,-2.7278,-2.7115,-2.6869,-2.6633,-2.644,-2.6274,-2.6063,-2.5968,-2.5895,-2.5906,-2.5906,-2.5738,-2.5559,-1.9957,-2.0003,-1.9487,-1.9128,-1.8904,-1.8622,-1.8586,-1.8721,-1.8865,-1.8921,-1.8844,-1.8777,-1.8834,-1.89,-1.9375,-1.9911,-2.0355,-2.1198,-2.1945,-2.2568,-2.2744,-2.3218,-2.3955,-2.4091,-2.397,-2.3897,-2.3446,-2.3372,-2.3519,-2.3224,-2.2927,-2.2703,-2.2852,-2.2852,-2.2703,-2.2927,-2.3001,-2.3001,-2.3001,-2.3001,-2.3001,-2.3001,-2.3001,-2.3001,-2.3001,-2.3001,-2.3001,-2.3224,-2.3666,-2.4527,-2.5906,-2.7284,-2.8183,-2.8327,-2.8471,-2.8522,-2.8457,-2.8314,-2.8379,-2.843,-2.8565,-2.8635,-2.8847,-2.9118,-2.9457,-2.9537,-2.9671,-2.976,-3.0137,-3.0629,-3.1278,-3.145,-3.1351,-3.1124,-3.0494,-3.0064,-2.9742,-2.8975,-2.8395,-2.7763,-2.7394,-2.6942,-2.6599,-2.6373,-2.6218,-2.6063,-2.5895,-2.5895,-2.5895,-2.5895,-2.5895,-2.5895,-2.5895,-2.5895,-2.5895,-2.6063,-2.6218,-2.6539,-2.694,-2.7021,-2.7021,-2.694,-2.6857,-2.6622,-2.6385,-2.6302,-2.6096,-2.6085,-2.5895,-2.5895,-2.5895,-2.5812,-2.5812,-2.5549,-2.538,-2.1165,-2.1647,-2.1179,-2.0631,-2.0196,-1.994,-1.9736,-1.9868,-1.9944,-1.9726,-1.9375,-1.9309,-1.9375,-1.9365,-1.9639,-2.0237,-2.1094,-2.1262,-2.1992,-2.2827,-2.3078,-2.3423,-2.4015,-2.4292,-2.4189,-2.3897,-2.3593,-2.3519,-2.3604,-2.3224,-2.2703,-2.2402,-2.2777,-2.2777,-2.2478,-2.2777,-2.3001,-2.3001,-2.3001,-2.3001,-2.3001,-2.3001,-2.3001,-2.3001,-2.3001,-2.3001,-2.3001,-2.3287,-2.379,-2.485,-2.6471,-2.759,-2.7855,-2.8013,-2.8327,-2.8536,-2.8131,-2.8225,-2.8473,-2.8648,-2.8691,-2.9134,-2.9349,-2.9713,-2.9952,-3.0017,-3.0057,-3.0081,-3.0521,-3.1164,-3.1833,-3.1979,-3.1928,-3.2055,-3.1496,-3.083,-2.9973,-2.9008,-2.8627,-2.856,-2.7956,-2.7244,-2.7103,-2.7092,-2.6704,-2.6146,-2.5895,-2.5895,-2.5895,-2.5895,-2.5895,-2.5895,-2.5895,-2.5895,-2.5895,-2.5895,-2.6052,-2.6218,-2.6456,-2.655,-2.6622,-2.6528,-2.6445,-2.6218,-2.6063,-2.5979,-2.5895,-2.5895,-2.5895,-2.5895,-2.5895,-2.5812,-2.5644,-2.538,-2.52,-2.1649,-2.1822,-2.1038,-2.0708,-2.066,-2.0138,-1.9933,-2.0009,-1.9998,-1.9933,-1.9868,-1.9878,-1.9987,-2.0237,-2.056,-2.1019,-2.1463,-2.18,-2.2524,-2.3448,-2.3568,-2.3819,-2.4035,-2.3963,-2.4127,-2.4273,-2.3666,-2.3298,-2.3519,-2.3224,-2.2927,-2.2777,-2.2852,-2.2927,-2.2852,-2.2927,-2.3001,-2.3001,-2.3001,-2.3001,-2.3001,-2.3001,-2.3001,-2.3001,-2.3001,-2.3001,-2.315,-2.4093,-2.4933,-2.5545,-2.6756,-2.7723,-2.8131,-2.8224,-2.8356,-2.8344,-2.8492,-2.8625,-2.8718,-2.9078,-2.9398,-2.9406,-2.9667,-2.9907,-3.0254,-3.0321,-3.0506,-3.0857,-3.1276,-3.1589,-3.2074,-3.2141,-3.2096,-3.1963,-3.1877,-3.1703,-3.1185,-3.0406,-2.9704,-2.9601,-2.8681,-2.7904,-2.7371,-2.7174,-2.6857,-2.6135,-2.5895,-2.5895,-2.5895,-2.5895,-2.5895,-2.5895,-2.5895,-2.5895,-2.5895,-2.5895,-2.5895,-2.5979,-2.6074,-2.6168,-2.6157,-2.6135,-2.6052,-2.5895,-2.5979,-2.5895,-2.5895,-2.5895,-2.5895,-2.5895,-2.5812,-2.5644,-2.5549,-2.538,-2.5115,-2.1682,-2.1507,-2.0953,-2.0673,-2.0544,-2.0129,-2.0009,-2.0074,-1.9998,-2.0009,-2.014,-2.027,-2.0388,-2.0646,-2.1158,-2.1526,-2.1714,-2.2061,-2.2787,-2.3725,-2.4218,-2.4423,-2.4457,-2.4322,-2.4406,-2.4418,-2.3824,-2.3604,-2.353,-2.3224,-2.2927,-2.2703,-2.2852,-2.2841,-2.2628,-2.2927,-2.3001,-2.3001,-2.3001,-2.3001,-2.3001,-2.3001,-2.3001,-2.3001,-2.3012,-2.3205,-2.3925,-2.5539,-2.6424,-2.6509,-2.7369,-2.8292,-2.8505,-2.8786,-2.8919,-2.8825,-2.8995,-2.9111,-2.9233,-2.9525,-2.972,-2.9834,-3.0055,-3.0347,-3.0685,-3.0771,-3.1043,-3.1389,-3.1582,-3.1757,-3.2077,-3.2209,-3.2109,-3.1963,-3.205,-3.1963,-3.1817,-3.0722,-3.0177,-2.9793,-2.9064,-2.8113,-2.7267,-2.7174,-2.6775,-2.6135,-2.5895,-2.5895,-2.5895,-2.5895,-2.5895,-2.5895,-2.5939,-2.595,-2.5983,-2.5994,-2.607,-2.6059,-2.6223,-2.619,-2.6081,-2.6037,-2.5994,-2.5994,-2.5939,-2.5939,-2.591,-2.591,-2.5801,-2.5717,-2.5633,-2.5464,-2.5295,-2.5538,-2.5274,-2.1496,-2.0928,-2.0873,-2.0544,-2.014,-2.0085,-2.0151,-2.0151,-2.0205,-2.0205,-2.0335,-2.0506,-2.07,-2.0764,-2.14,-2.1714,-2.1776,-2.2061,-2.2847,-2.3785,-2.4638,-2.5075,-2.4754,-2.4766,-2.4622,-2.4273,-2.4127,-2.3824,-2.3457,-2.315,-2.2777,-2.2553,-2.2852,-2.2703,-2.2553,-2.2777,-2.3001,-2.3001,-2.2927,-2.3001,-2.3034,-2.3088,-2.3251,-2.3668,-2.3895,-2.4425,-2.5491,-2.692,-2.7654,-2.6985,-2.8339,-2.893,-2.9037,-2.9488,-2.9661,-2.9618,-2.9447,-2.9508,-2.9733,-2.9781,-2.9921,-3.0329,-3.0639,-3.091,-3.1074,-3.118,-3.1355,-3.1394,-3.1582,-3.1783,-3.2044,-3.215,-3.205,-3.1817,-3.1803,-3.1743,-3.1434,-3.0633,-2.9999,-3.0037,-2.9184,-2.8119,-2.7499,-2.7185,-2.6857,-2.6052,-2.5895,-2.5895,-2.5895,-2.5895,-2.5895,-2.5895,-2.595,-2.6026,-2.607,-2.6103,-2.6212,-2.6299,-2.6594,-2.6638,-2.6441,-2.6343,-2.6212,-2.619,-2.6345,-2.6238,-2.6011,-2.5925,-2.5806,-2.5624,-2.5519,-2.5275,-2.5115,-2.56,-2.5589,-2.1035,-2.0895,-2.0445,-2.0172,-2.0085,-2.0085,-2.027,-2.0518,-2.0506,-2.0646,-2.0903,-2.1042,-2.121,-2.1463,-2.1663,-2.1851,-2.2085,-2.2282,-2.2775,-2.3809,-2.4831,-2.5075,-2.479,-2.4634,-2.4334,-2.4055,-2.353,-2.3224,-2.315,-2.3075,-2.2916,-2.2852,-2.2852,-2.2927,-2.2852,-2.2852,-2.3001,-2.3001,-2.2852,-2.2959,-2.3207,-2.3405,-2.4058,-2.4912,-2.569,-2.6464,-2.725,-2.7838,-2.8308,-2.8705,-2.9166,-2.9495,-2.9552,-2.9601,-2.9663,-2.9697,-2.983,-2.9954,-3.0079,-3.0367,-3.0708,-3.0847,-3.0948,-3.1127,-3.1071,-3.1373,-3.1334,-3.1294,-3.1542,-3.1817,-3.199,-3.199,-3.1817,-3.1582,-3.1495,-3.136,-3.1061,-3.0482,-3.042,-3.0509,-2.9452,-2.8131,-2.7592,-2.7208,-2.6798,-2.6063,-2.5928,-2.5917,-2.595,-2.5994,-2.6103,-2.6212,-2.6332,-2.6463,-2.6496,-2.6551,-2.6616,-2.6725,-2.6966,-2.7162,-2.6955,-2.6878,-2.6857,-2.69,-2.69,-2.6682,-2.6238,-2.6055,-2.5969,-2.5733,-2.5444,-2.5326,-2.5284,-2.5752,-2.6023,-2.1141,-2.1016,-2.0758,-2.0582,-2.0593,-2.0658,-2.0722,-2.085,-2.0903,-2.1031,-2.1221,-2.1348,-2.1526,-2.1726,-2.1851,-2.2061,-2.2267,-2.2739,-2.322,-2.3941,-2.4795,-2.5146,-2.4909,-2.4478,-2.4116,-2.3897,-2.3519,-2.3224,-2.3075,-2.3001,-2.3001,-2.3001,-2.3001,-2.3001,-2.3001,-2.3012,-2.3001,-2.3205,-2.3594,-2.3843,-2.3985,-2.4767,-2.5279,-2.636,-2.7284,-2.8139,-2.8436,-2.9196,-2.9667,-3.0059,-3.0191,-3.0059,-3.0058,-3.0217,-3.0263,-3.0223,-3.032,-3.0529,-3.0647,-3.079,-3.1035,-3.1136,-3.1123,-3.1211,-3.1211,-3.1447,-3.1434,-3.1495,-3.1656,-3.189,-3.189,-3.189,-3.1656,-3.1421,-3.1272,-3.1198,-3.0973,-3.0659,-3.0623,-3.0766,-2.9489,-2.8375,-2.7719,-2.709,-2.6678,-2.595,-2.631,-2.6332,-2.6441,-2.6496,-2.666,-2.6769,-2.6867,-2.6955,-2.6988,-2.7042,-2.7119,-2.7239,-2.7413,-2.7577,-2.7577,-2.7597,-2.7648,-2.7428,-2.7122,-2.6872,-2.6469,-2.6296,-2.6165,-2.6024,-2.583,-2.5574,-2.5762,-2.6616,-2.6731,-2.1246,-2.1031,-2.1158,-2.1233,-2.1233,-2.1169,-2.1221,-2.1285,-2.1285,-2.1348,-2.1411,-2.1663,-2.1788,-2.1851,-2.2061,-2.2197,-2.2462,-2.3195,-2.3791,-2.3893,-2.4843,-2.511,-2.4897,-2.4467,-2.397,-2.3604,-2.3446,-2.3224,-2.3075,-2.3001,-2.3001,-2.3001,-2.3001,-2.3001,-2.3001,-2.311,-2.3176,-2.3306,-2.4058,-2.4789,-2.5096,-2.603,-2.6705,-2.7739,-2.86,-2.9301,-2.9615,-3.0209,-3.0983,-3.1198,-3.1061,-3.0725,-3.0529,-3.0795,-3.1198,-3.0947,-3.0895,-3.0882,-3.0882,-3.1022,-3.1123,-3.1272,-3.1211,-3.1299,-3.1461,-3.1447,-3.1535,-3.1622,-3.1783,-3.1817,-3.1817,-3.1743,-3.1582,-3.1347,-3.1272,-3.1198,-3.1061,-3.0911,-3.0764,-3.0739,-2.926,-2.7869,-2.7218,-2.6613,-2.6267,-2.6092,-2.6474,-2.6758,-2.6954,-2.6955,-2.7162,-2.7382,-2.7459,-2.761,-2.7708,-2.7708,-2.7763,-2.7684,-2.7836,-2.7902,-2.8021,-2.7936,-2.7856,-2.7495,-2.72,-2.7035,-2.6801,-2.6637,-2.6515,-2.6403,-2.6204,-2.5941,-2.6515,-2.759,-2.7531,-2.0843,-2.0366,-2.0955,-2.1233,-2.1233,-2.1233,-2.1411,-2.1588,-2.16,-2.18,-2.1999,-2.2061,-2.2061,-2.2123,-2.2123,-2.2197,-2.2438,-2.3244,-2.3773,-2.3941,-2.4725,-2.5028,-2.4478,-2.425,-2.3813,-2.3224,-2.315,-2.3075,-2.3001,-2.3001,-2.3001,-2.3001,-2.3045,-2.3045,-2.3176,-2.3372,-2.3613,-2.3678,-2.4293,-2.4981,-2.5712,-2.6534,-2.7591,-2.8973,-2.996,-3.0413,-3.0553,-3.082,-3.1061,-3.1061,-3.0986,-3.0921,-3.083,-3.0983,-3.1048,-3.1061,-3.0986,-3.0986,-3.1061,-3.1123,-3.1272,-3.1347,-3.136,-3.1461,-3.1609,-3.1535,-3.1535,-3.1609,-3.1622,-3.1683,-3.1683,-3.1582,-3.136,-3.1136,-3.1061,-3.1061,-3.0911,-3.0598,-3.0393,-3.0643,-2.896,-2.7359,-2.6963,-2.6661,-2.6623,-2.6616,-2.6944,-2.7414,-2.7765,-2.7656,-2.7635,-2.7867,-2.8088,-2.8352,-2.8473,-2.8462,-2.8473,-2.8202,-2.8256,-2.8245,-2.8261,-2.8068,-2.79,-2.7644,-2.7448,-2.7336,-2.7159,-2.6898,-2.6815,-2.666,-2.648,-2.6198,-2.7233,-2.8188,-2.9023,-2.0805,-2.0677,-2.1411,-2.1737,-2.1749,-2.1749,-2.18,-2.1925,-2.1987,-2.2049,-2.2123,-2.2197,-2.2197,-2.2197,-2.2197,-2.2197,-2.2411,-2.3072,-2.3447,-2.372,-2.4295,-2.4611,-2.4127,-2.3959,-2.3666,-2.3298,-2.315,-2.3012,-2.3001,-2.3001,-2.3023,-2.3067,-2.322,-2.3372,-2.3482,-2.3875,-2.4082,-2.4213,-2.4847,-2.5723,-2.6759,-2.7753,-2.9363,-3.0088,-3.0748,-3.0986,-3.0986,-3.0986,-3.0986,-3.0986,-3.0986,-3.0986,-3.1061,-3.1061,-3.1123,-3.1136,-3.1061,-3.1136,-3.1224,-3.136,-3.136,-3.1582,-3.1596,-3.1743,-3.1757,-3.1757,-3.1609,-3.1609,-3.1609,-3.1522,-3.1434,-3.1347,-3.1198,-3.1061,-3.0986,-3.0986,-3.0901,-3.0458,-3.0567,-3.0645,-2.9066,-2.7748,-2.7093,-2.6962,-2.6998,-2.7162,-2.7435,-2.7911,-2.853,-2.8288,-2.8109,-2.8241,-2.8486,-2.8503,-2.8691,-2.8724,-2.8581,-2.8395,-2.8395,-2.8384,-2.829,-2.7998,-2.7914,-2.7714,-2.762,-2.7452,-2.7389,-2.715,-2.7035,-2.7004,-2.6838,-2.697,-2.7865,-2.8813,-2.9602,-2.0858,-2.0996,-2.1925,-2.2185,-2.1987,-2.2185,-2.2185,-2.2197,-2.2197,-2.2185,-2.2197,-2.2197,-2.2197,-2.2197,-2.2185,-2.2197,-2.2169,-2.2864,-2.31,-2.3006,-2.3612,-2.3959,-2.3655,-2.3593,-2.3309,-2.3086,-2.3348,-2.3088,-2.3045,-2.3143,-2.3165,-2.3329,-2.3646,-2.3886,-2.3984,-2.4377,-2.4552,-2.4988,-2.5665,-2.6769,-2.8142,-2.9834,-3.0986,-3.0986,-3.0986,-3.0986,-3.0986,-3.0986,-3.0986,-3.0986,-3.1061,-3.1061,-3.1061,-3.1198,-3.1347,-3.136,-3.1211,-3.1299,-3.1447,-3.1522,-3.1582,-3.1817,-3.1757,-3.189,-3.189,-3.1817,-3.1609,-3.1522,-3.1522,-3.1447,-3.136,-3.1272,-3.1123,-3.1061,-3.0986,-3.0976,-3.1046,-3.0919,-3.0976,-3.0406,-2.9154,-2.8603,-2.8134,-2.7895,-2.8042,-2.7955,-2.8221,-2.8959,-2.9329,-2.881,-2.8554,-2.8642,-2.8626,-2.8626,-2.8653,-2.8642,-2.8384,-2.8113,-2.8102,-2.8196,-2.7998,-2.7715,-2.7726,-2.7736,-2.7547,-2.7357,-2.7367,-2.7272,-2.7158,-2.7127,-2.722,-2.7829,-2.8818,-2.9489,-3.0213,-2.0921,-2.0526,-2.2037,-2.2099,-2.1451,-2.2025,-2.2297,-2.2197,-2.2135,-2.2197,-2.2197,-2.2197,-2.2197,-2.2197,-2.2197,-2.2061,-2.2107,-2.2531,-2.2718,-2.2318,-2.2861,-2.2883,-2.2285,-2.2606,-2.2703,-2.2724,-2.3253,-2.3286,-2.3307,-2.3514,-2.3635,-2.3744,-2.4104,-2.4399,-2.4443,-2.4858,-2.5076,-2.5267,-2.5711,-2.6803,-2.8306,-3.005,-3.0885,-3.0986,-3.0986,-3.0986,-3.0986,-3.0986,-3.0986,-3.1061,-3.1198,-3.1198,-3.1136,-3.1373,-3.1522,-3.1596,-3.1522,-3.1535,-3.1669,-3.1669,-3.1817,-3.189,-3.189,-3.189,-3.1817,-3.1743,-3.1522,-3.1347,-3.1347,-3.1286,-3.1286,-3.1136,-3.1061,-3.1052,-3.1104,-3.1365,-3.1499,-3.1785,-3.1736,-3.1825,-3.1116,-3.0302,-2.9691,-2.9456,-2.9301,-2.9105,-2.9184,-2.9804,-2.9942,-2.9418,-2.8653,-2.856,-2.8477,-2.8477,-2.8477,-2.8477,-2.829,-2.7914,-2.7914,-2.8008,-2.7726,-2.7631,-2.762,-2.7536,-2.7357,-2.7272,-2.7272,-2.7272,-2.7272,-2.7272,-2.7272,-2.8351,-2.9772,-3.0316,-3.0754,-2.1439,-2.1101,-2.1714,-2.1901,-2.1776,-2.1463,-2.1663,-2.2061,-2.1726,-2.1788,-2.2123,-2.2197,-2.2197,-2.2123,-2.2197,-2.1999,-2.1875,-2.218,-2.2229,-2.1837,-2.2028,-2.2069,-2.2077,-2.2112,-2.218,-2.2671,-2.3133,-2.377,-2.3796,-2.4006,-2.4159,-2.4224,-2.4607,-2.4869,-2.4923,-2.5349,-2.5535,-2.5964,-2.6651,-2.7626,-2.8664,-3.0024,-3.0986,-3.0986,-3.0986,-3.0986,-3.0986,-3.0986,-3.1061,-3.1123,-3.1272,-3.136,-3.1373,-3.1596,-3.1743,-3.1817,-3.2286,-3.2286,-3.2023,-3.1963,-3.1963,-3.2036,-3.1963,-3.1817,-3.1669,-3.1508,-3.136,-3.1136,-3.1123,-3.1136,-3.1149,-3.1061,-3.1209,-3.1339,-3.1457,-3.1836,-3.2163,-3.254,-3.2701,-3.2898,-3.2918,-3.1905,-3.11,-3.0874,-3.0455,-2.9915,-2.9839,-3.0201,-3.0293,-2.9806,-2.9013,-2.8279,-2.8279,-2.8196,-2.8186,-2.8186,-2.7998,-2.7726,-2.7736,-2.7736,-2.7536,-2.7441,-2.7441,-2.7441,-2.7357,-2.7272,-2.7272,-2.7367,-2.7357,-2.7367,-2.7272,-2.8631,-2.9897,-3.026,-3.0878,-2.1877,-2.1939,-2.1827,-2.1827,-2.1839,-2.1135,-2.1273,-2.1788,-2.1336,-2.1388,-2.1788,-2.1862,-2.1925,-2.1925,-2.1862,-2.1675,-2.1406,-2.1632,-2.1549,-2.1424,-2.136,-2.1376,-2.148,-2.165,-2.208,-2.2783,-2.3412,-2.4004,-2.4512,-2.477,-2.4825,-2.4694,-2.5039,-2.5317,-2.5448,-2.5644,-2.583,-2.64,-2.7522,-2.8347,-2.8978,-3.0177,-3.0823,-3.0986,-3.0986,-3.0986,-3.1061,-3.1061,-3.1198,-3.1272,-3.169,-3.1836,-3.1863,-3.2141,-3.2286,-3.2286,-3.2547,-3.2561,-3.23,-3.2228,-3.2228,-3.2228,-3.195,-3.1582,-3.1347,-3.1272,-3.1198,-3.1061,-3.1061,-3.1052,-3.1169,-3.1235,-3.1548,-3.1849,-3.2058,-3.2437,-3.2803,-3.2995,-3.3196,-3.3449,-3.3431,-3.3098,-3.2487,-3.229,-3.1716,-3.0855,-3.0711,-3.0722,-3.0181,-2.9646,-2.9013,-2.8092,-2.7998,-2.7914,-2.7914,-2.7904,-2.7726,-2.7631,-2.7547,-2.7547,-2.7357,-2.7357,-2.7357,-2.7357,-2.7272,-2.7272,-2.7272,-2.7357,-2.7357,-2.7726,-2.8175,-2.8991,-2.9806,-3.026,-3.108,-2.2075,-2.2775,-2.2775,-2.1963,-2.0741,-2.1776,-2.1765,-2.1388,-2.1198,-2.1198,-2.1388,-2.1198,-2.1262,-2.1198,-2.1198,-2.1019,-2.0797,-2.1362,-2.1179,-2.0717,-2.0546,-2.0866,-2.1053,-2.1453,-2.1909,-2.2676,-2.3464,-2.4331,-2.5033,-2.5437,-2.5382,-2.5251,-2.5452,-2.567,-2.5808,-2.5902,-2.629,-2.6928,-2.8028,-2.89,-2.9537,-3.0419,-3.0986,-3.0986,-3.0986,-3.1061,-3.1272,-3.1272,-3.1272,-3.1347,-3.1982,-3.2318,-3.2259,-3.2547,-3.2618,-3.2547,-3.2704,-3.2646,-3.2574,-3.2632,-3.2818,-3.2605,-3.2042,-3.1347,-3.1272,-3.1136,-3.1061,-3.1013,-3.1078,-3.1313,-3.1561,-3.1836,-3.2058,-3.2424,-3.2712,-3.2906,-3.3206,-3.3226,-3.3506,-3.3882,-3.3784,-3.3373,-3.3202,-3.2846,-3.2401,-3.1601,-3.0711,-3.0621,-2.936,-2.8642,-2.8362,-2.7904,-2.7726,-2.7631,-2.7641,-2.7641,-2.7547,-2.7547,-2.7452,-2.7367,-2.7367,-2.7272,-2.7357,-2.7272,-2.7272,-2.7272,-2.7272,-2.7367,-2.7536,-2.8269,-2.8806,-2.9084,-3.026,-3.1347,-3.1989,-2.2445,-2.2334,-2.2714,-2.2469,-2.1776,-2.1388,-2.1451,-2.1776,-2.1325,-2.1388,-2.1726,-2.1336,-2.1071,-2.1008,-2.0635,-2.0738,-2.0975,-2.0815,-2.101,-2.1141,-2.1123,-2.09,-2.0997,-2.1372,-2.1815,-2.2818,-2.3655,-2.4577,-2.5572,-2.5819,-2.5797,-2.5742,-2.5735,-2.5768,-2.5884,-2.6302,-2.6857,-2.7418,-2.8438,-2.9381,-2.9704,-3.0495,-3.0986,-3.0986,-3.0986,-3.1061,-3.1136,-3.1198,-3.1347,-3.1569,-3.2069,-3.2273,-3.2331,-3.2632,-3.2632,-3.2618,-3.2832,-3.3185,-3.2974,-3.2818,-3.2273,-3.1896,-3.1482,-3.1272,-3.1136,-3.1075,-3.0986,-3.1078,-3.1339,-3.1692,-3.1771,-3.2163,-3.2568,-3.3025,-3.3365,-3.3493,-3.358,-3.3654,-3.3604,-3.3927,-3.3725,-3.3398,-3.33,-3.33,-3.2772,-3.2239,-3.1335,-3.0351,-2.8991,-2.8092,-2.7914,-2.7726,-2.7536,-2.7452,-2.7452,-2.7452,-2.7367,-2.7452,-2.7452,-2.7452,-2.7536,-2.7357,-2.7357,-2.7357,-2.7272,-2.7272,-2.7272,-2.7272,-2.782,-2.8631,-2.8713,-2.8538,-3.0079,-3.2077,-3.2711,-2.2763,-2.2273,-2.2726,-2.2726,-2.2359,-2.1451,-2.1463,-2.1963,-2.1451,-2.1273,-2.1537,-2.1198,-2.1035,-2.0921,-2.0924,-2.0654,-2.104,-2.1042,-2.1391,-2.1292,-2.1135,-2.1043,-2.1286,-2.1635,-2.2073,-2.3172,-2.375,-2.4467,-2.5757,-2.5884,-2.579,-2.5779,-2.5812,-2.5812,-2.6052,-2.6704,-2.7429,-2.8211,-2.8924,-2.9947,-3.0101,-3.0659,-3.0986,-3.0986,-3.0986,-3.1061,-3.1136,-3.1286,-3.1434,-3.1656,-3.1936,-3.2214,-3.2359,-3.2503,-3.2574,-3.2846,-3.3311,-3.3988,-3.363,-3.3143,-3.22,-3.1982,-3.1334,-3.1198,-3.1075,-3.1117,-3.13,-3.107,-3.1615,-3.215,-3.215,-3.2751,-3.3208,-3.3666,-3.3796,-3.391,-3.3944,-3.392,-3.3804,-3.3849,-3.3594,-3.3326,-3.3043,-3.2871,-3.2227,-3.1601,-3.0609,-2.9532,-2.8445,-2.782,-2.7726,-2.7547,-2.7357,-2.7367,-2.7367,-2.7357,-2.7452,-2.7998,-2.7998,-2.7893,-2.7893,-2.762,-2.7441,-2.7357,-2.7272,-2.7272,-2.7357,-2.7357,-2.8081,-2.8991,-2.9349,-2.9988,-3.0351,-3.2164,-3.2711,-2.3017,-2.2909,-2.2921,-2.2519,-2.2137,-2.242,-2.2285,-2.1877,-2.1577,-2.1135,-2.07,-2.0967,-2.1023,-2.0997,-2.1406,-2.134,-2.1062,-2.1586,-2.1732,-2.1128,-2.1549,-2.1506,-2.1572,-2.1878,-2.2533,-2.3501,-2.4059,-2.4669,-2.5895,-2.5895,-2.5812,-2.5728,-2.5801,-2.5884,-2.5979,-2.6787,-2.8051,-2.9394,-2.9626,-3.0266,-3.0672,-3.0898,-3.0986,-3.0986,-3.0986,-3.1061,-3.1198,-3.1569,-3.1656,-3.1716,-3.2475,-3.2676,-3.2461,-3.3171,-3.3451,-3.3451,-3.3659,-3.3865,-3.3865,-3.3699,-3.3058,-3.2182,-3.1426,-3.1219,-3.1169,-3.1431,-3.159,-3.1448,-3.2071,-3.275,-3.3102,-3.3427,-3.3862,-3.4058,-3.4175,-3.4158,-3.4108,-3.3979,-3.3836,-3.3654,-3.3326,-3.3081,-3.2711,-3.2339,-3.1512,-3.0699,-2.9704,-2.8899,-2.8175,-2.8081,-2.8269,-2.8196,-2.8019,-2.8008,-2.8008,-2.7441,-2.7536,-2.8269,-2.8538,-2.8351,-2.8351,-2.8258,-2.7998,-2.7547,-2.7272,-2.7272,-2.7357,-2.7357,-2.8351,-2.9441,-3.1536,-3.2264,-3.2264,-3.2176,-3.281,-2.3078,-2.3017,-2.3017,-2.2884,-2.2689,-2.2665,-2.2604,-2.2396,-2.2149,-2.1851,-2.1556,-2.1789,-2.1686,-2.1663,-2.1812,-2.1896,-2.1808,-2.1993,-2.2046,-2.1824,-2.2376,-2.2176,-2.2227,-2.2589,-2.329,-2.38,-2.4241,-2.485,-2.5895,-2.5895,-2.5812,-2.5717,-2.6113,-2.6434,-2.6905,-2.7867,-2.9316,-2.9704,-3.0177,-3.0748,-3.0986,-3.0986,-3.0986,-3.0986,-3.0986,-3.1048,-3.1185,-3.1703,-3.1996,-3.2069,-3.2889,-3.3017,-3.2804,-3.3381,-3.3506,-3.3451,-3.3589,-3.4558,-3.4622,-3.4398,-3.3223,-3.2192,-3.1655,-3.1535,-3.1614,-3.2084,-3.2058,-3.2097,-3.2683,-3.3232,-3.3349,-3.3819,-3.4214,-3.4267,-3.4345,-3.4262,-3.4147,-3.3894,-3.3641,-3.3445,-3.3091,-3.3056,-3.2797,-3.2251,-3.1524,-3.1069,-3.0351,-2.9897,-2.9268,-2.936,-2.9543,-2.9393,-2.922,-2.9128,-2.8932,-2.8488,-2.8549,-2.9349,-2.9176,-2.8631,-2.8631,-2.8899,-2.8175,-2.7536,-2.7452,-2.7367,-2.7536,-2.7904,-2.8631,-2.9897,-3.1825,-3.2636,-3.2089,-3.2264,-3.2896,-2.3439,-2.3414,-2.3153,-2.3125,-2.3078,-2.2909,-2.2848,-2.2848,-2.2616,-2.2517,-2.2573,-2.2567,-2.2531,-2.2544,-2.2754,-2.2607,-2.2626,-2.3155,-2.3035,-2.2829,-2.3388,-2.3181,-2.3018,-2.328,-2.38,-2.4231,-2.468,-2.5211,-2.5895,-2.5895,-2.5822,-2.5884,-2.6577,-2.7058,-2.7695,-2.8743,-2.9781,-3.0177,-3.0748,-3.0911,-3.0986,-3.0986,-3.0986,-3.0986,-3.1061,-3.1123,-3.1482,-3.1982,-3.2489,-3.2761,-3.296,-3.3241,-3.3101,-3.3171,-3.3437,-3.3506,-3.4384,-3.5066,-3.4849,-3.488,-3.3569,-3.2051,-3.1967,-3.211,-3.2254,-3.2672,-3.275,-3.2878,-3.3414,-3.361,-3.3779,-3.4332,-3.4262,-3.4314,-3.4314,-3.423,-3.4063,-3.381,-3.3641,-3.3348,-3.3091,-3.2957,-3.2711,-3.2164,-3.1524,-3.1347,-3.108,-3.0711,-3.0441,-3.0441,-3.0441,-3.0114,-2.992,-2.9704,-2.9566,-2.9553,-2.9886,-3.0543,-3.0079,-2.9441,-2.9268,-2.9452,-2.8538,-2.762,-2.7536,-2.7441,-2.7904,-2.8445,-2.9555,-3.0566,-3.1761,-3.2113,-3.1725,-3.2264,-3.3081,-2.4017,-2.3941,-2.3353,-2.3178,-2.3165,-2.3203,-2.308,-2.2921,-2.2788,-2.3009,-2.3413,-2.3156,-2.3358,-2.3698,-2.4232,-2.3908,-2.3416,-2.4161,-2.3816,-2.3717,-2.3957,-2.3755,-2.38,-2.3973,-2.4413,-2.4765,-2.5031,-2.538,-2.5895,-2.5728,-2.5644,-2.5884,-2.6894,-2.7452,-2.8176,-2.9135,-3.0101,-3.0672,-3.0898,-3.0986,-3.0986,-3.0986,-3.0986,-3.1061,-3.1123,-3.1468,-3.1896,-3.2318,-3.2804,-3.2946,-3.296,-3.303,-3.3087,-3.3283,-3.3699,-3.4545,-3.5733,-3.5531,-3.5065,-3.5195,-3.4505,-3.3232,-3.2909,-3.2843,-3.2881,-3.3234,-3.3375,-3.3532,-3.3858,-3.4066,-3.4301,-3.4301,-3.4217,-3.4314,-3.4314,-3.416,-3.4076,-3.3823,-3.3654,-3.3398,-3.3227,-3.2982,-3.2438,-3.1901,-3.1989,-3.1989,-3.1801,-3.1625,-3.1258,-3.108,-3.0991,-3.0621,-3.0328,-3.0078,-3.0056,-3.0285,-3.0918,-3.1472,-3.1258,-3.0711,-3.0531,-2.9909,-2.9084,-2.8258,-2.7715,-2.7694,-2.8265,-2.9407,-3.0871,-3.1785,-3.2101,-3.2388,-3.2176,-3.2537,-3.3081,-2.476,-2.4747,-2.4469,-2.433,-2.428,-2.3916,-2.3417,-2.2983,-2.3232,-2.3492,-2.3538,-2.4247,-2.4432,-2.4542,-2.5054,-2.4657,-2.4591,-2.4625,-2.4233,-2.431,-2.4619,-2.4405,-2.4498,-2.4669,-2.5031,-2.5115,-2.5295,-2.5644,-2.5728,-2.5633,-2.5285,-2.5359,-2.6812,-2.7533,-2.8414,-2.9549,-3.0343,-3.0836,-3.0986,-3.0986,-3.0986,-3.0986,-3.1061,-3.1136,-3.1542,-3.1882,-3.2304,-3.2791,-3.3283,-3.3768,-3.3837,-3.3905,-3.3891,-3.4505,-3.5185,-3.5844,-3.6596,-3.6862,-3.6435,-3.5953,-3.5336,-3.4597,-3.4206,-3.3695,-3.3639,-3.3744,-3.4071,-3.4079,-3.4035,-3.4165,-3.4134,-3.4037,-3.405,-3.405,-3.4063,-3.3979,-3.381,-3.3654,-3.3484,-3.3398,-3.3154,-3.3081,-3.2525,-3.2525,-3.2624,-3.2624,-3.2537,-3.2351,-3.2164,-3.1889,-3.1713,-3.1347,-3.1009,-3.0761,-3.089,-3.1031,-3.1733,-3.2325,-3.1825,-3.1436,-3.0991,-3.0351,-2.9532,-2.898,-2.862,-2.8615,-2.8749,-3.0122,-3.1749,-3.1689,-3.1928,-3.2413,-3.2711,-3.2896,-3.2995,-2.5382,-2.5291,-2.4895,-2.4833,-2.477,-2.4469,-2.4042,-2.3679,-2.3691,-2.3765,-2.4099,-2.476,-2.5154,-2.5298,-2.5679,-2.5588,-2.5136,-2.557,-2.5429,-2.5363,-2.55,-2.5221,-2.52,-2.5369,-2.5549,-2.5549,-2.5644,-2.5812,-2.5812,-2.5464,-2.5115,-2.5189,-2.673,-2.7452,-2.8335,-2.9626,-3.0609,-3.0911,-3.0911,-3.0911,-3.0911,-3.0986,-3.1149,-3.1522,-3.1982,-3.229,-3.2847,-3.3408,-3.3973,-3.4543,-3.4595,-3.4689,-3.5028,-3.5904,-3.6276,-3.6873,-3.7434,-3.7216,-3.6635,-3.6447,-3.5927,-3.5405,-3.4792,-3.437,-3.411,-3.4149,-3.4306,-3.4327,-3.4147,-3.4063,-3.3869,-3.3771,-3.37,-3.3713,-3.3713,-3.3725,-3.3556,-3.3484,-3.3398,-3.3313,-3.3154,-3.3167,-3.3081,-3.3081,-3.3081,-3.2995,-3.2896,-3.281,-3.2711,-3.2624,-3.2537,-3.2264,-3.1904,-3.1644,-3.1701,-3.1543,-3.1962,-3.2125,-3.1737,-3.1347,-3.1181,-3.0722,-2.9988,-2.9806,-2.9715,-2.9693,-2.9659,-3.1039,-3.2264,-3.2016,-3.1892,-3.2413,-3.2624,-3.2636,-3.2736,-2.5873,-2.569,-2.5159,-2.5046,-2.4958,-2.4921,-2.4858,-2.4755,-2.4202,-2.4215,-2.4803,-2.5086,-2.5517,-2.5902,-2.6188,-2.6239,-2.6064,-2.6236,-2.6234,-2.6337,-2.5915,-2.5717,-2.5728,-2.5895,-2.5812,-2.5895,-2.5906,-2.5822,-2.5717,-2.538,-2.5115,-2.5285,-2.6659,-2.7533,-2.8164,-2.9716,-3.0685,-3.0836,-3.0761,-3.0761,-3.0823,-3.0911,-3.1163,-3.2017,-3.2372,-3.2706,-3.3739,-3.4312,-3.4691,-3.4905,-3.5067,-3.5184,-3.6193,-3.7007,-3.736,-3.7674,-3.8138,-3.7851,-3.7272,-3.6869,-3.6073,-3.5319,-3.4454,-3.4345,-3.4249,-3.4236,-3.4243,-3.4295,-3.4115,-3.3823,-3.3713,-3.3543,-3.3471,-3.3471,-3.3484,-3.3484,-3.3398,-3.3326,-3.324,-3.3154,-3.3154,-3.3081,-3.3081,-3.3081,-3.3081,-3.3081,-3.3081,-3.3081,-3.3081,-3.3081,-3.2896,-3.281,-3.2562,-3.2141,-3.1853,-3.1849,-3.1825,-3.1801,-3.1625,-3.1625,-3.1713,-3.1169,-3.0351,-3.0441,-3.0531,-3.0528,-3.0725,-3.1928,-3.2513,-3.1991,-3.1991,-3.2426,-3.2636,-3.2475,-3.2562,-2.6443,-2.6443,-2.6181,-2.6076,-2.5988,-2.5586,-2.541,-2.5398,-2.5219,-2.5206,-2.5444,-2.5754,-2.6136,-2.6451,-2.6444,-2.654,-2.6801,-2.6537,-2.6485,-2.6296,-2.6102,-2.5895,-2.5906,-2.5906,-2.5895,-2.5895,-2.5906,-2.5728,-2.5454,-2.5115,-2.4956,-2.4946,-2.6329,-2.7452,-2.8004,-2.9626,-3.052,-3.0836,-3.0685,-3.0583,-3.0545,-3.0748,-3.1026,-3.1696,-3.2155,-3.3017,-3.3768,-3.4177,-3.4706,-3.5228,-3.5204,-3.5854,-3.7082,-3.7793,-3.8108,-3.8272,-3.8736,-3.8587,-3.8105,-3.7291,-3.6462,-3.5949,-3.5251,-3.4551,-3.4243,-3.416,-3.4173,-3.4127,-3.3972,-3.3679,-3.3484,-3.3411,-3.324,-3.3326,-3.324,-3.324,-3.3167,-3.3167,-3.3167,-3.3167,-3.3081,-3.3081,-3.3081,-3.3081,-3.3081,-3.3081,-3.3081,-3.3081,-3.3081,-3.3081,-3.2711,-3.2624,-3.2884,-3.2587,-3.2251,-3.2077,-3.2077,-3.2164,-3.2164,-3.2164,-3.2264,-3.1801,-3.1258,-3.1258,-3.1335,-3.1352,-3.1704,-3.2488,-3.2673,-3.2166,-3.2003,-3.245,-3.2288,-3.2125,-3.2213,-2.6645,-2.6589,-2.6533,-2.6521,-2.6458,-2.6101,-2.5975,-2.5975,-2.5975,-2.5975,-2.6013,-2.6214,-2.6499,-2.6758,-2.6797,-2.6851,-2.7125,-2.684,-2.6655,-2.6472,-2.6135,-2.5884,-2.5812,-2.5822,-2.5717,-2.5633,-2.5633,-2.538,-2.5189,-2.5031,-2.4871,-2.4861,-2.6174,-2.7383,-2.8004,-2.9381,-3.052,-3.0849,-3.0609,-3.0482,-3.043,-3.057,-3.1211,-3.1877,-3.2717,-3.3451,-3.4221,-3.4668,-3.5193,-3.6,-3.6384,-3.6902,-3.7874,-3.8497,-3.8796,-3.8916,-3.9083,-3.9265,-3.8634,-3.7843,-3.6738,-3.6108,-3.5169,-3.4243,-3.4076,-3.4004,-3.3861,-3.3802,-3.3692,-3.3484,-3.3326,-3.3167,-3.3167,-3.3167,-3.3167,-3.3167,-3.3167,-3.3167,-3.3167,-3.3167,-3.3081,-3.3081,-3.3081,-3.3081,-3.3081,-3.3081,-3.3081,-3.3081,-3.3081,-3.3081,-3.2711,-3.2525,-3.2884,-3.2612,-3.1989,-3.2077,-3.2351,-3.2438,-3.2525,-3.2164,-3.1989,-3.2264,-3.2264,-3.2176,-3.2164,-3.2426,-3.2785,-3.3081,-3.297,-3.2476,-3.2326,-3.23,-3.2038,-3.1849,-3.1937,-2.6589,-2.6533,-2.6521,-2.6521,-2.6521,-2.6508,-2.6496,-2.6427,-2.6508,-2.6559,-2.6565,-2.659,-2.6694,-2.6917,-2.7311,-2.7372,-2.7297,-2.7128,-2.6883,-2.6599,-2.6135,-2.5895,-2.5728,-2.5738,-2.5549,-2.5369,-2.5285,-2.52,-2.5115,-2.4946,-2.4871,-2.5031,-2.608,-2.7383,-2.8255,-2.9381,-3.052,-3.0685,-3.0596,-3.0545,-3.0532,-3.0545,-3.1582,-3.2544,-3.3353,-3.407,-3.492,-3.5618,-3.5887,-3.6626,-3.7411,-3.8053,-3.8471,-3.899,-3.917,-3.932,-3.932,-3.9046,-3.8337,-3.7462,-3.6596,-3.5655,-3.4634,-3.4076,-3.4004,-3.3764,-3.362,-3.3534,-3.3411,-3.3326,-3.3167,-3.3081,-3.3081,-3.3081,-3.3081,-3.3081,-3.3081,-3.3081,-3.3081,-3.3081,-3.3081,-3.3081,-3.3081,-3.3081,-3.3081,-3.3081,-3.3093,-3.3081,-3.3081,-3.3081,-3.2896,-3.281,-3.2982,-3.2537,-3.1989,-3.2164,-3.2624,-3.2438,-3.2438,-3.2077,-3.1901,-3.2438,-3.2723,-3.2896,-3.2982,-3.2982,-3.2982,-3.3081,-3.2884,-3.2587,-3.245,-3.23,-3.2025,-3.1761,-3.1761,-2.6533,-2.6521,-2.6521,-2.6521,-2.6452,-2.6521,-2.6521,-2.6521,-2.6465,-2.6691,-2.7017,-2.6955,-2.7086,-2.7397,-2.7938,-2.8033,-2.787,-2.7487,-2.7244,-2.7021,-2.6218,-2.5812,-2.5559,-2.5475,-2.5475,-2.5295,-2.5115,-2.5115,-2.5031,-2.4786,-2.4946,-2.5579,-2.6412,-2.7637,-2.87,-2.9664,-3.0368,-3.0533,-3.0659,-3.0594,-3.0725,-3.1053,-3.1951,-3.2839,-3.3704,-3.4059,-3.4727,-3.5733,-3.6216,-3.6821,-3.7704,-3.8556,-3.9005,-3.929,-3.9379,-3.9424,-3.9424,-3.9046,-3.8337,-3.7372,-3.6503,-3.5642,-3.469,-3.3907,-3.3738,-3.3581,-3.3424,-3.3265,-3.324,-3.324,-3.3081,-3.3081,-3.3081,-3.3081,-3.3081,-3.3081,-3.3081,-3.3081,-3.3081,-3.3081,-3.3081,-3.3081,-3.3081,-3.3081,-3.3081,-3.3106,-3.3181,-3.3181,-3.3244,-3.3181,-3.3181,-3.3232,-3.3269,-3.3081,-3.281,-3.2711,-3.2896,-3.2624,-3.2525,-3.2438,-3.2537,-3.2797,-3.3068,-3.3081,-3.3081,-3.3081,-3.3081,-3.3081,-3.2797,-3.2525,-3.2463,-3.23,-3.1937,-3.1749,-3.1749]},{"header":{"parameterUnit":"m.s-1","parameterCategory":1,"la1":31.0,"la2":29.5877,"lo1":-88.7671,"lo2":-86.6584,"dy":0.0162,"dx":0.0185,"nx":115,"ny":88,"refTime":"2023-06-19T00:00:00:Z","depth":0,"parameterNumber":3,"parameterNumberName":"V-component_of_WINDS"},"data":[0.0,0.0,0.0,0.0,0.0,0.0,0.0,0.0,0.0,0.0,0.0,0.0,0.0,0.0,0.0,0.0,0.0,0.0,0.0,0.0,0.0,0.0,0.0,0.0,0.0,0.0,0.0,0.0,0.0,0.0,0.0,0.0,0.0,0.0,0.0,0.0,0.0,0.0,0.0,0.0,0.0,0.0,0.0,0.0,0.0,0.0,0.0,0.0,0.0,0.0,0.0,0.0,0.0,0.0,0.0,0.0,0.0,0.0,0.0,0.0,0.0,0.0,0.0,0.0,0.0,0.0,0.0,0.0,0.0,0.0,0.0,0.0,0.0,0.0,0.0,0.0,0.0,0.0,0.0,0.0,0.0,0.0,0.0,0.0,0.0,0.0,0.0,0.0,0.0,0.0,0.0,0.0,0.0,0.0,0.0,0.0,0.0,0.0,0.0,0.0,0.0,0.0,0.0,0.0,0.0,0.0,0.0,0.0,0.0,0.0,0.0,0.0,0.0,0.0,0.0,0.0,0.0,0.0,0.0,0.0,0.0,0.0,0.0,0.0,0.0,0.0,0.0,0.0,0.0,0.0,0.0,0.0,0.0,0.0,0.0,0.0,0.0,0.0,0.0,0.0,0.0,0.0,0.0,0.0,0.0,0.0,0.0,0.0,0.0,0.0,0.0,0.0,0.0,0.0,0.0,0.0,0.0,0.0,0.0,0.0,0.0,0.0,0.0,0.0,0.0,0.0,0.0,0.0,0.0,0.0,0.0,0.0,0.0,0.0,0.0,0.0,0.0,0.0,0.0,0.0,0.0,0.0,0.0,0.0,0.0,0.0,0.0,0.0,0.0,0.0,0.0,0.0,0.0,0.0,0.0,0.0,0.0,0.0,0.0,0.0,0.0,0.0,0.0,0.0,0.0,0.0,0.0,0.0,0.0,0.0,0.0,0.0,0.0,0.0,0.0,0.0,0.0,0.0,0.0,0.0,0.0,0.0,0.0,0.0,0.0,0.0,0.0,0.0,0.0,0.0,0.0,0.0,0.0,0.0,0.0,0.0,0.0,0.0,0.0,0.0,0.0,0.0,0.0,0.0,0.0,0.0,0.0,0.0,0.0,0.0,0.0,0.0,0.0,0.0,0.0,0.0,0.0,0.0,0.0,0.0,0.0,0.0,0.0,0.0,0.0,0.0,0.0,0.0,0.0,0.0,0.0,0.0,0.0,0.0,0.0,0.0,0.0,0.0,0.0,0.0,0.0,0.0,0.0,0.0,0.0,0.0,0.0,0.0,0.0,0.0,0.0,0.0,0.0,0.0,0.0,0.0,0.0,0.0,0.0,0.0,0.0,0.0,0.0,0.0,0.0,0.0,0.0,0.0,0.0,0.0,0.0,0.0,0.0,0.0,0.0,0.0,0.0,0.0,0.0,0.0,0.0,0.0,0.0,0.0,0.0,0.0,0.0,0.0,0.0,0.0,0.0,0.0,0.0,0.0,0.0,0.0,0.0,0.0,0.0,0.0,0.0,0.0,0.0,0.0,0.0,0.0,0.0,0.0,0.0,0.0,0.0,0.0,0.0,0.0,0.0,0.0,0.0,0.0,0.0,0.0,0.0,0.0,0.0,0.0,0.0,0.0,0.0,0.0,0.0,0.0,0.0,0.0,0.0,0.0,0.0,0.0,0.0,0.0,0.0,0.0,0.0,0.0,0.0,0.0,0.0,0.0,0.0,0.0,0.0,0.0,0.0,0.0,0.0,0.0,0.0,0.0,0.0,0.0,0.0,0.0,0.0,0.0,0.0,0.0,0.0,0.0,0.0,0.0,0.0,0.0,0.0,0.0,0.0,0.0,0.0,0.0,0.0,0.0,0.0,0.0,0.0,0.0,0.0,0.0,0.0,0.0,0.0,0.0,0.0,0.0,0.0,0.0,0.0,0.0,0.0,0.0,0.0,0.0,0.0,0.0,0.0,0.0,0.0,0.0,0.0,0.0,0.0,0.0,0.0,0.0,0.0,0.0,0.0,0.0,0.0,0.0,0.0,0.0,0.0,0.0,0.0,0.0,0.0,0.0,0.0,0.0,0.0,0.0,0.0,0.0,0.0,0.0,0.0,0.0,0.0,0.0,0.0,0.0,0.0,0.0,0.0,0.0,0.0,0.0,0.0,0.0,0.0,0.0,0.0,0.0,0.0,0.0,0.0,0.0,0.0,0.0,0.0,0.0,0.0,0.0,0.0,0.0,0.0,0.0,0.0,0.0,0.0,0.0,0.0,0.0,0.0,0.0,0.0,0.0,0.0,0.0,0.0,0.0,0.0,0.0,0.0,0.0,0.0,0.0,0.0,0.0,0.0,0.0,0.0,0.0,0.0,0.0,0.0,0.0,0.0,0.0,0.0,0.0,0.0,0.0,0.0,0.0,0.0,0.0,0.0,0.0,0.0,0.0,0.0,0.0,0.0,0.0,0.0,0.0,0.0,0.0,0.0,0.0,0.0,0.0,0.0,0.0,0.0,0.0,0.0,0.0,0.0,0.0,0.0,0.0,0.0,0.0,0.0,0.0,0.0,0.0,0.0,0.0,0.0,0.0,0.0,0.0,0.0,0.0,0.0,0.0,0.0,0.0,0.0,0.0,0.0,0.0,0.0,0.0,0.0,0.0,0.0,0.0,0.0,0.0,0.0,0.0,0.0,0.0,0.0,0.0,0.0,0.0,0.0,0.0,0.0,0.0,0.0,0.0,0.0,0.0,0.0,0.0,0.0,0.0,0.0,0.0,0.0,0.0,0.0,0.0,0.0,0.0,0.0,0.0,0.0,0.0,0.0,0.0,0.0,0.0,0.0,0.0,0.0,0.0,0.0,0.0,0.0,0.0,0.0,0.0,0.0,0.0,0.0,0.0,0.0,0.0,0.0,0.0,0.0,0.0,0.0,0.0,0.0,0.0,0.0,0.0,0.0,0.0,0.0,0.0,0.0,0.0,0.0,0.0,0.0,0.0,0.0,0.0,0.0,0.0,0.0,0.0,0.0,0.0,0.0,0.0,0.0,0.0,0.0,0.0,0.0,0.0,0.0,0.0,0.0,0.0,0.0,0.0,0.0,0.0,0.0,0.0,0.0,0.0,0.0,0.0,0.0,0.0,0.0,0.0,0.0,0.0,0.0,0.0,0.0,0.0,0.0,0.0,0.0,0.0,0.0,0.0,0.0,0.0,0.0,0.0,0.0,0.0,0.0,0.0,0.0,0.0,0.0,0.0,0.0,0.0,0.0,0.0,0.0,0.0,0.0,0.0,0.0,0.0,0.0,0.0,0.0,0.0,0.0,0.0,0.0,0.0,0.0,0.0,0.0,0.0,0.0,0.0,0.0,0.0,0.0,0.0,0.0,0.0,0.0,0.0,0.0,0.0,0.0,0.0,0.0,0.0,0.0,0.0,0.0,0.0,0.0,0.0,0.0,0.0,0.0,0.0,0.0,0.0,0.0,0.0,0.0,0.0,0.0,0.0,0.0,0.0,0.0,0.0,0.0,0.0,0.0,0.0,0.0,0.0,0.0,0.0,0.0,0.0,0.0,0.0,0.0,0.0,0.0,0.0,0.0,0.0,0.0,0.0,0.0,0.0,0.0,0.0,0.0,0.0,0.0,0.0,0.0,0.0,0.0,0.0,0.0,0.0,0.0,0.0,0.0,0.0,0.0,0.0,0.0,0.0,0.0,0.0,0.0,0.0,0.0,0.0,0.0,0.0,0.0,0.0,0.0,0.0,0.0,0.0,0.0,0.0,0.0,0.0,0.0,0.0,0.0,0.0,0.0,0.0,0.0,0.0,0.0,0.0,0.0,0.0,0.0,0.0,0.0,0.0,0.0,0.0,0.0,0.0,0.0,0.0,0.0,0.0,0.0,0.0,0.0,0.0,0.0,0.0,0.0,0.0,0.0,0.0,0.0,0.0,0.0,0.0,0.0,0.0,0.0,0.0,0.0,0.0,0.0,0.0,0.0,0.0,0.0,0.0,0.0,0.0,0.0,0.0,0.0,0.0,0.0,0.0,0.0,0.0,0.0,0.0,0.0,0.0,0.0,0.0,0.0,0.0,0.0,0.0,0.0,0.0,0.0,0.0,0.0,0.0,0.0,0.0,0.0,0.0,0.0,0.0,0.0,0.0,0.0,0.0,0.0,0.0,0.0,0.0,0.0,0.0,0.0,0.0,0.0,0.0,0.0,0.0,0.0,0.0,0.0,0.0,0.0,0.0,0.0,0.0,0.0,0.0,0.0,0.0,0.0,0.0,0.0,0.0,0.0,0.0,-1.3016,0.0,0.0,0.0,0.0,0.0,0.0,0.0,0.0,0.0,0.0,0.0,0.0,0.0,0.0,0.0,0.0,0.0,0.0,0.0,0.0,0.0,0.0,0.0,0.0,0.0,0.0,0.0,0.0,0.0,0.0,0.0,0.0,0.0,0.0,0.0,0.0,0.0,0.0,0.0,0.0,0.0,0.0,0.0,0.0,0.0,0.0,0.0,0.0,0.0,0.0,0.0,0.0,0.0,0.0,0.0,0.0,0.0,0.0,0.0,0.0,0.0,0.0,0.0,0.0,0.0,0.0,0.0,0.0,0.0,0.0,0.0,0.0,0.0,0.0,0.0,0.0,0.0,0.0,0.0,0.0,0.0,0.0,0.0,0.0,0.0,0.0,0.0,0.0,0.0,0.0,0.0,0.0,0.0,0.0,0.0,0.0,0.0,0.0,0.0,0.0,0.0,0.0,0.0,0.0,0.0,0.0,0.0,0.0,0.0,0.0,-1.5371,-1.4949,-1.3407,-1.2463,-1.2316,0.0,0.0,0.0,0.0,0.0,0.0,0.0,0.0,0.0,0.0,0.0,0.0,0.0,0.0,0.0,0.0,0.0,0.0,0.0,0.0,0.0,0.0,0.0,0.0,0.0,0.0,0.0,0.0,0.0,0.0,0.0,0.0,0.0,0.0,0.0,0.0,0.0,0.0,0.0,0.0,0.0,0.0,0.0,0.0,0.0,0.0,0.0,0.0,0.0,0.0,0.0,0.0,0.0,0.0,0.0,0.0,0.0,0.0,0.0,0.0,0.0,0.0,0.0,0.0,0.0,0.0,0.0,0.0,0.0,0.0,0.0,0.0,0.0,0.0,0.0,0.0,0.0,0.0,0.0,0.0,0.0,0.0,0.0,0.0,0.0,0.0,0.0,0.0,0.0,0.0,0.0,0.0,0.0,0.0,0.0,0.0,0.0,0.0,0.0,0.0,0.0,0.0,0.0,0.0,0.0,0.0,0.0,0.0,0.0,0.0,0.0,0.0,-1.3379,-1.1882,-1.1366,0.0,0.0,0.0,0.0,0.0,0.0,0.0,0.0,0.0,0.0,0.0,0.0,0.0,0.0,0.0,0.0,0.0,0.0,0.0,0.0,0.0,0.0,0.0,0.0,0.0,0.0,0.0,0.0,0.0,0.0,0.0,0.0,0.0,0.0,0.0,0.0,0.0,0.0,0.0,0.0,0.0,0.0,0.0,0.0,0.0,0.0,0.0,0.0,0.0,0.0,0.0,0.0,0.0,0.0,0.0,0.0,0.0,0.0,0.0,0.0,0.0,0.0,0.0,0.0,0.0,0.0,0.0,0.0,0.0,0.0,0.0,0.0,0.0,0.0,0.0,0.0,0.0,0.0,0.0,0.0,0.0,0.0,0.0,0.0,0.0,0.0,0.0,0.0,0.0,0.0,0.0,0.0,0.0,0.0,0.0,0.0,0.0,0.0,0.0,0.0,0.0,0.0,0.0,0.0,0.0,0.0,0.0,0.0,0.0,0.0,-1.5684,-1.5325,-1.3794,0.0,-1.0821,0.0,0.0,0.0,0.0,0.0,0.0,0.0,0.0,0.0,0.0,0.0,0.0,0.0,0.0,0.0,0.0,0.0,0.0,0.0,0.0,0.0,0.0,0.0,0.0,0.0,0.0,0.0,0.0,0.0,0.0,0.0,0.0,0.0,0.0,0.0,0.0,0.0,0.0,0.0,0.0,0.0,0.0,0.0,0.0,0.0,0.0,0.0,0.0,0.0,0.0,0.0,0.0,0.0,0.0,0.0,0.0,0.0,0.0,0.0,0.0,0.0,0.0,0.0,0.0,0.0,0.0,0.0,0.0,0.0,0.0,0.0,0.0,0.0,0.0,0.0,0.0,0.0,0.0,0.0,0.0,0.0,0.0,0.0,0.0,0.0,0.0,0.0,0.0,0.0,0.0,0.0,0.0,0.0,0.0,0.0,0.0,0.0,0.0,0.0,0.0,0.0,0.0,0.0,0.0,0.0,0.0,0.0,0.0,0.0,0.0,-1.6403,-1.5464,-1.382,-1.2363,0.0,0.0,0.0,0.0,0.0,0.0,0.0,0.0,0.0,0.0,0.0,0.0,0.0,0.0,0.0,0.0,0.0,0.0,0.0,0.0,0.0,0.0,0.0,0.0,0.0,0.0,0.0,0.0,0.0,0.0,0.0,0.0,0.0,0.0,0.0,0.0,0.0,0.0,0.0,0.0,0.0,0.0,0.0,0.0,0.0,0.0,0.0,0.0,0.0,0.0,0.0,0.0,0.0,0.0,0.0,0.0,0.0,0.0,0.0,0.0,0.0,0.0,0.0,0.0,0.0,0.0,0.0,0.0,0.0,0.0,0.0,0.0,0.0,0.0,0.0,0.0,0.0,0.0,0.0,0.0,0.0,0.0,0.0,0.0,0.0,0.0,0.0,0.0,0.0,0.0,0.0,0.0,0.0,0.0,0.0,0.0,0.0,0.0,0.0,0.0,0.0,0.0,0.0,0.0,0.0,0.0,0.0,0.0,0.0,0.0,-1.8138,-1.6519,-1.4821,-1.3697,-1.255,-1.1375,0.0,0.0,0.0,0.0,0.0,0.0,0.0,0.0,0.0,0.0,0.0,0.0,0.0,0.0,0.0,0.0,0.0,0.0,0.0,0.0,0.0,0.0,0.0,0.0,0.0,0.0,0.0,0.0,0.0,0.0,0.0,0.0,0.0,0.0,0.0,0.0,0.0,0.0,0.0,0.0,0.0,0.0,0.0,0.0,0.0,0.0,0.0,0.0,0.0,0.0,0.0,0.0,0.0,0.0,0.0,0.0,0.0,0.0,0.0,0.0,0.0,0.0,0.0,0.0,0.0,0.0,0.0,0.0,0.0,0.0,0.0,0.0,0.0,0.0,0.0,0.0,0.0,0.0,0.0,0.0,0.0,0.0,0.0,0.0,0.0,0.0,0.0,0.0,0.0,0.0,0.0,0.0,0.0,0.0,0.0,0.0,0.0,0.0,0.0,0.0,0.0,0.0,0.0,0.0,0.0,0.0,0.0,0.0,-1.9585,-1.7676,-1.5489,-1.3182,-1.3402,-1.2832,0.0,0.0,0.0,0.0,0.0,0.0,0.0,0.0,0.0,0.0,0.0,0.0,0.0,0.0,0.0,0.0,0.0,0.0,0.0,0.0,0.0,0.0,0.0,0.0,0.0,0.0,0.0,0.0,0.0,0.0,0.0,0.0,0.0,0.0,0.0,0.0,0.0,0.0,0.0,0.0,0.0,0.0,0.0,0.0,0.0,0.0,0.0,0.0,0.0,0.0,0.0,0.0,0.0,0.0,0.0,0.0,0.0,0.0,0.0,0.0,0.0,0.0,0.0,0.0,0.0,0.0,0.0,0.0,0.0,0.0,0.0,0.0,0.0,0.0,0.0,0.0,0.0,0.0,0.0,0.0,0.0,0.0,0.0,0.0,0.0,0.0,0.0,0.0,0.0,0.0,0.0,0.0,0.0,0.0,0.0,0.0,0.0,0.0,0.0,0.0,0.0,0.0,0.0,0.0,0.0,0.0,0.0,0.0,0.0,-1.9411,-1.7073,-1.5171,-1.3836,-1.3286,-1.2325,0.0,0.0,0.0,0.0,0.0,0.0,0.0,0.0,0.0,0.0,0.0,0.0,0.0,0.0,0.0,0.0,0.0,0.0,0.0,0.0,0.0,0.0,0.0,0.0,0.0,0.0,0.0,0.0,0.0,0.0,0.0,0.0,0.0,0.0,0.0,0.0,0.0,0.0,0.0,0.0,0.0,0.0,0.0,0.0,0.0,0.0,0.0,0.0,0.0,0.0,0.0,0.0,0.0,0.0,0.0,0.0,0.0,0.0,0.0,0.0,0.0,0.0,0.0,0.0,0.0,0.0,0.0,0.0,0.0,0.0,0.0,0.0,0.0,0.0,0.0,0.0,0.0,0.0,0.0,0.0,0.0,0.0,0.0,0.0,0.0,0.0,0.0,0.0,0.0,0.0,0.0,0.0,0.0,0.0,0.0,0.0,0.0,0.0,0.0,0.0,0.0,0.0,0.0,0.0,0.0,0.0,0.0,0.0,0.0,-1.906,0.0,-1.5381,-1.4389,-1.3399,-1.2224,0.0,0.0,0.0,0.0,0.0,0.0,0.0,0.0,0.0,0.0,0.0,0.0,0.0,0.0,0.0,0.0,0.0,0.0,0.0,0.0,0.0,0.0,0.0,0.0,0.0,0.0,0.0,0.0,0.0,0.0,0.0,0.0,0.0,0.0,0.0,0.0,0.0,0.0,0.0,0.0,0.0,0.0,0.0,0.0,0.0,0.0,0.0,0.0,0.0,0.0,0.0,0.0,0.0,0.0,0.0,0.0,0.0,0.0,0.0,0.0,0.0,0.0,0.0,0.0,0.0,0.0,0.0,0.0,0.0,0.0,0.0,0.0,0.0,0.0,0.0,0.0,0.0,0.0,0.0,0.0,0.0,0.0,0.0,0.0,0.0,0.0,0.0,0.0,0.0,0.0,0.0,0.0,0.0,0.0,0.0,0.0,0.0,0.0,0.0,0.0,0.0,0.0,0.0,0.0,0.0,0.0,0.0,0.0,-2.0389,-1.8399,-1.7477,-1.6211,-1.4552,-1.3732,-1.2582,0.0,0.0,0.0,0.0,0.0,0.0,0.0,0.0,0.0,0.0,0.0,0.0,0.0,0.0,0.0,0.0,0.0,0.0,0.0,0.0,0.0,0.0,0.0,0.0,0.0,0.0,0.0,0.0,0.0,0.0,0.0,0.0,0.0,0.0,0.0,0.0,0.0,0.0,0.0,0.0,0.0,0.0,0.0,0.0,0.0,0.0,0.0,0.0,0.0,0.0,0.0,0.0,0.0,0.0,0.0,0.0,0.0,0.0,0.0,0.0,0.0,0.0,0.0,0.0,0.0,0.0,0.0,0.0,0.0,0.0,0.0,0.0,0.0,0.0,0.0,0.0,0.0,0.0,0.0,0.0,0.0,0.0,0.0,0.0,0.0,0.0,0.0,0.0,0.0,0.0,0.0,0.0,0.0,0.0,0.0,0.0,0.0,0.0,0.0,0.0,0.0,0.0,0.0,0.0,0.0,0.0,0.0,0.0,0.0,-1.5743,-1.6548,-1.6101,-1.4247,-1.3494,-1.2538,0.0,0.0,0.0,0.0,0.0,0.0,0.0,0.0,0.0,0.0,0.0,0.0,0.0,0.0,0.0,0.0,0.0,0.0,0.0,0.0,0.0,0.0,0.0,0.0,0.0,0.0,0.0,0.0,0.0,0.0,0.0,0.0,0.0,0.0,0.0,0.0,0.0,0.0,0.0,0.0,0.0,0.0,0.0,0.0,0.0,0.0,0.0,0.0,0.0,0.0,0.0,0.0,0.0,0.0,0.0,0.0,0.0,0.0,0.0,0.0,0.0,0.0,0.0,0.0,0.0,0.0,0.0,0.0,0.0,0.0,0.0,0.0,0.0,0.0,0.0,0.0,0.0,0.0,0.0,0.0,0.0,0.0,0.0,0.0,0.0,0.0,0.0,0.0,0.0,0.0,0.0,0.0,0.0,0.0,0.0,0.0,0.0,0.0,0.0,0.0,0.0,0.0,0.0,0.0,0.0,0.0,0.0,0.0,0.0,-1.636,-1.7295,-1.699,-1.4988,-1.4041,-1.2903,-1.1606,0.0,0.0,0.0,0.0,0.0,0.0,0.0,0.0,0.0,0.0,0.0,0.0,0.0,0.0,0.0,0.0,0.0,0.0,0.0,0.0,0.0,0.0,0.0,0.0,0.0,0.0,0.0,0.0,0.0,0.0,0.0,0.0,0.0,0.0,0.0,0.0,0.0,0.0,0.0,0.0,0.0,0.0,0.0,0.0,0.0,0.0,0.0,0.0,0.0,0.0,0.0,0.0,0.0,0.0,0.0,0.0,0.0,0.0,0.0,0.0,0.0,0.0,0.0,0.0,0.0,0.0,0.0,0.0,0.0,0.0,0.0,0.0,0.0,0.0,0.0,0.0,0.0,0.0,0.0,0.0,0.0,0.0,0.0,0.0,0.0,0.0,0.0,0.0,0.0,0.0,0.0,0.0,0.0,0.0,0.0,0.0,0.0,0.0,0.0,0.0,0.0,0.0,0.0,0.0,0.0,0.0,0.0,0.0,-1.9337,-1.9507,-1.8669,-1.6599,-1.5133,-1.3562,0.0,0.0,0.0,0.0,0.0,0.0,0.0,0.0,0.0,0.0,0.0,0.0,0.0,0.0,0.0,0.0,0.0,0.0,0.0,0.0,0.0,0.0,0.0,0.0,0.0,0.0,0.0,0.0,0.0,0.0,0.0,0.0,0.0,0.0,0.0,0.0,0.0,0.0,0.0,0.0,0.0,0.0,0.0,0.0,0.0,0.0,0.0,0.0,0.0,0.0,0.0,0.0,0.0,0.0,0.0,0.0,0.0,0.0,0.0,0.0,0.0,0.0,0.0,0.0,0.0,0.0,0.0,0.0,0.0,0.0,0.0,0.0,0.0,0.0,0.0,0.0,0.0,0.0,0.0,0.0,0.0,0.0,0.0,0.0,0.0,0.0,0.0,0.0,0.0,0.0,0.0,0.0,0.0,0.0,0.0,0.0,0.0,0.0,0.0,0.0,0.0,0.0,0.0,0.0,0.0,0.0,0.0,0.0,0.0,-2.067,-2.1024,-1.993,-1.7166,-1.522,-1.3714,0.0,0.0,0.0,0.0,0.0,0.0,0.0,0.0,0.0,0.0,0.0,0.0,0.0,0.0,0.0,0.0,0.0,0.0,0.0,0.0,0.0,0.0,0.0,0.0,0.0,0.0,0.0,0.0,0.0,0.0,0.0,0.0,0.0,0.0,0.0,0.0,0.0,0.0,0.0,0.0,0.0,0.0,0.0,0.0,0.0,0.0,0.0,0.0,0.0,0.0,0.0,0.0,0.0,0.0,0.0,0.0,0.0,0.0,0.0,0.0,0.0,0.0,0.0,0.0,0.0,0.0,0.0,0.0,0.0,0.0,0.0,0.0,0.0,0.0,0.0,0.0,0.0,0.0,0.0,0.0,0.0,0.0,0.0,0.0,0.0,0.0,0.0,0.0,0.0,0.0,0.0,0.0,0.0,0.0,0.0,0.0,0.0,0.0,0.0,0.0,0.0,0.0,0.0,0.0,0.0,0.0,0.0,0.0,-2.3137,-2.2015,-2.1889,-2.0919,-1.8995,-1.6687,-1.4809,0.0,0.0,0.0,0.0,0.0,0.0,0.0,0.0,0.0,0.0,0.0,0.0,0.0,0.0,0.0,0.0,0.0,0.0,0.0,0.0,0.0,0.0,0.0,0.0,0.0,0.0,0.0,0.0,0.0,0.0,0.0,0.0,0.0,0.0,0.0,0.0,0.0,0.0,0.0,0.0,0.0,0.0,0.0,0.0,0.0,0.0,0.0,0.0,0.0,0.0,0.0,0.0,0.0,0.0,0.0,0.0,0.0,0.0,0.0,0.0,0.0,0.0,0.0,0.0,0.0,0.0,0.0,0.0,0.0,0.0,0.0,0.0,0.0,0.0,0.0,0.0,0.0,0.0,0.0,0.0,0.0,0.0,0.0,0.0,0.0,0.0,0.0,0.0,0.0,0.0,0.0,0.0,0.0,0.0,0.0,0.0,0.0,0.0,0.0,0.0,0.0,0.0,0.0,0.0,0.0,0.0,0.0,0.0,-2.3882,-2.3216,-2.2285,-2.1629,-2.1175,-1.8701,-1.6279,0.0,0.0,0.0,0.0,0.0,0.0,0.0,0.0,0.0,0.0,0.0,0.0,0.0,0.0,0.0,0.0,0.0,0.0,0.0,0.0,0.0,0.0,0.0,0.0,0.0,0.0,0.0,0.0,0.0,0.0,0.0,0.0,0.0,0.0,0.0,0.0,0.0,0.0,0.0,0.0,0.0,0.0,0.0,0.0,0.0,0.0,0.0,0.0,0.0,0.0,0.0,0.0,0.0,0.0,0.0,0.0,0.0,0.0,0.0,0.0,0.0,0.0,0.0,0.0,0.0,0.0,0.0,0.0,0.0,0.0,0.0,0.0,0.0,0.0,0.0,0.0,0.0,0.0,0.0,0.0,0.0,0.0,0.0,0.0,0.0,0.0,0.0,0.0,0.0,0.0,0.0,0.0,0.0,0.0,0.0,0.0,0.0,0.0,0.0,0.0,0.0,0.0,0.0,0.0,0.0,0.0,0.0,0.0,-2.3937,-2.3216,-2.262,-2.2035,-2.1369,-1.8701,-1.6594,0.0,0.0,0.0,0.0,0.0,0.0,0.0,0.0,0.0,0.0,0.0,0.0,0.0,0.0,0.0,0.0,0.0,0.0,0.0,0.0,0.0,0.0,0.0,0.0,0.0,0.0,0.0,0.0,0.0,0.0,0.0,0.0,0.0,0.0,0.0,0.0,0.0,0.0,0.0,0.0,0.0,0.0,0.0,0.0,0.0,0.0,0.0,0.0,-1.6913,0.0,0.0,0.0,0.0,0.0,0.0,0.0,0.0,0.0,0.0,0.0,0.0,0.0,0.0,0.0,0.0,0.0,0.0,0.0,0.0,0.0,0.0,0.0,0.0,0.0,0.0,0.0,0.0,0.0,0.0,0.0,0.0,0.0,0.0,0.0,0.0,0.0,0.0,0.0,0.0,0.0,0.0,0.0,0.0,0.0,0.0,0.0,0.0,0.0,0.0,0.0,0.0,0.0,0.0,0.0,0.0,0.0,0.0,0.0,-2.4006,-2.2995,-2.274,-2.2269,-2.1565,-1.993,-1.7943,0.0,0.0,0.0,0.0,0.0,0.0,0.0,0.0,0.0,0.0,0.0,0.0,0.0,0.0,0.0,0.0,0.0,0.0,0.0,0.0,0.0,0.0,0.0,0.0,0.0,0.0,0.0,0.0,0.0,0.0,0.0,0.0,0.0,0.0,0.0,0.0,0.0,0.0,0.0,0.0,0.0,0.0,0.0,0.0,0.0,0.0,0.0,0.0,0.0,0.0,0.0,0.0,0.0,0.0,0.0,0.0,0.0,0.0,0.0,0.0,0.0,0.0,0.0,0.0,0.0,0.0,0.0,0.0,0.0,0.0,0.0,0.0,0.0,0.0,0.0,0.0,0.0,0.0,0.0,0.0,0.0,0.0,0.0,0.0,0.0,0.0,0.0,0.0,0.0,0.0,0.0,0.0,0.0,0.0,0.0,0.0,0.0,0.0,0.0,0.0,0.0,0.0,0.0,0.0,0.0,0.0,0.0,-2.5001,-2.4453,-2.3271,-2.3088,-2.2805,-2.2272,-2.1551,-1.957,-1.6249,0.0,0.0,0.0,0.0,0.0,0.0,0.0,0.0,0.0,0.0,0.0,0.0,0.0,0.0,0.0,0.0,0.0,0.0,0.0,0.0,0.0,0.0,0.0,0.0,0.0,0.0,0.0,0.0,0.0,0.0,0.0,0.0,0.0,0.0,0.0,0.0,0.0,0.0,-1.8525,-1.9222,0.0,0.0,0.0,0.0,0.0,0.0,0.0,0.0,-2.2055,0.0,0.0,0.0,0.0,0.0,0.0,0.0,0.0,0.0,0.0,0.0,0.0,0.0,0.0,0.0,0.0,0.0,0.0,0.0,0.0,0.0,0.0,0.0,0.0,0.0,0.0,0.0,0.0,0.0,0.0,0.0,0.0,0.0,0.0,0.0,0.0,0.0,0.0,0.0,0.0,0.0,0.0,0.0,0.0,0.0,0.0,0.0,0.0,0.0,0.0,0.0,0.0,0.0,0.0,0.0,0.0,-2.5488,-2.5805,-2.5787,-2.5455,-2.4805,-2.4481,-2.4422,-2.2683,-2.0686,-1.8458,0.0,0.0,0.0,0.0,0.0,0.0,0.0,0.0,0.0,0.0,0.0,0.0,0.0,0.0,0.0,0.0,0.0,0.0,0.0,0.0,0.0,0.0,0.0,0.0,0.0,0.0,0.0,0.0,0.0,0.0,0.0,0.0,0.0,0.0,0.0,0.0,0.0,0.0,0.0,-2.3051,-2.337,0.0,0.0,0.0,0.0,0.0,0.0,0.0,0.0,-2.293,0.0,0.0,0.0,0.0,0.0,0.0,0.0,0.0,0.0,0.0,0.0,0.0,0.0,0.0,0.0,0.0,0.0,0.0,0.0,0.0,0.0,0.0,0.0,0.0,0.0,0.0,0.0,0.0,0.0,0.0,0.0,0.0,0.0,0.0,0.0,0.0,0.0,0.0,0.0,0.0,0.0,0.0,0.0,0.0,0.0,0.0,0.0,0.0,0.0,0.0,0.0,0.0,0.0,0.0,0.0,-2.5857,-2.6253,-2.6197,-2.5484,-2.515,-2.4849,-2.4454,-2.3513,-2.1743,0.0,0.0,0.0,0.0,0.0,0.0,0.0,0.0,0.0,0.0,0.0,0.0,0.0,0.0,0.0,0.0,0.0,0.0,0.0,0.0,0.0,0.0,0.0,0.0,0.0,0.0,0.0,0.0,0.0,0.0,0.0,0.0,0.0,0.0,0.0,0.0,0.0,0.0,0.0,0.0,-2.4379,-2.4379,-2.4302,0.0,0.0,0.0,0.0,0.0,0.0,-2.4709,-2.474,0.0,0.0,0.0,0.0,0.0,0.0,0.0,0.0,0.0,0.0,0.0,0.0,0.0,0.0,0.0,0.0,0.0,0.0,0.0,0.0,0.0,0.0,0.0,0.0,0.0,0.0,0.0,0.0,0.0,0.0,0.0,0.0,0.0,0.0,0.0,0.0,0.0,0.0,0.0,0.0,0.0,0.0,0.0,0.0,0.0,0.0,0.0,0.0,0.0,0.0,0.0,0.0,0.0,0.0,0.0,-2.6168,-2.6702,-2.6504,-2.5463,-2.5475,-2.5091,-2.4365,-2.4109,-2.2673,0.0,0.0,0.0,0.0,0.0,0.0,0.0,0.0,0.0,0.0,0.0,0.0,0.0,0.0,0.0,0.0,0.0,0.0,0.0,0.0,0.0,0.0,0.0,0.0,0.0,0.0,0.0,0.0,0.0,0.0,0.0,0.0,0.0,0.0,0.0,0.0,0.0,0.0,0.0,0.0,0.0,-2.4608,-2.4369,-2.5037,0.0,0.0,0.0,0.0,-2.6503,-2.6325,0.0,0.0,0.0,0.0,0.0,0.0,0.0,0.0,0.0,0.0,0.0,0.0,0.0,0.0,0.0,0.0,0.0,0.0,0.0,0.0,0.0,0.0,0.0,0.0,0.0,0.0,0.0,0.0,0.0,0.0,0.0,0.0,0.0,0.0,0.0,0.0,0.0,0.0,0.0,0.0,0.0,0.0,0.0,0.0,0.0,0.0,0.0,0.0,0.0,0.0,0.0,0.0,0.0,0.0,0.0,0.0,-2.6753,-2.7361,-2.7403,-2.6909,-2.6506,-2.605,-2.5402,-2.4565,-2.3344,0.0,0.0,0.0,0.0,0.0,0.0,0.0,0.0,0.0,0.0,0.0,0.0,0.0,0.0,0.0,0.0,0.0,0.0,0.0,0.0,0.0,0.0,0.0,0.0,0.0,0.0,0.0,0.0,0.0,0.0,0.0,0.0,0.0,0.0,0.0,0.0,0.0,0.0,0.0,0.0,0.0,-2.4583,-2.4583,-2.5004,-2.5435,0.0,0.0,-2.7057,-2.7535,-2.7567,0.0,0.0,0.0,0.0,0.0,0.0,0.0,0.0,0.0,0.0,0.0,0.0,0.0,0.0,0.0,0.0,0.0,0.0,0.0,0.0,0.0,0.0,0.0,0.0,0.0,0.0,0.0,0.0,0.0,0.0,0.0,0.0,0.0,0.0,0.0,0.0,0.0,0.0,0.0,0.0,0.0,0.0,0.0,0.0,0.0,0.0,0.0,0.0,0.0,0.0,0.0,0.0,0.0,0.0,0.0,-2.7319,-2.7368,-2.7655,-2.7625,-2.7255,-2.6799,-2.6264,-2.5798,-2.5,-2.3774,0.0,0.0,0.0,0.0,0.0,0.0,0.0,0.0,0.0,0.0,0.0,0.0,0.0,0.0,0.0,0.0,0.0,0.0,0.0,0.0,0.0,0.0,0.0,0.0,0.0,0.0,0.0,0.0,0.0,0.0,0.0,0.0,0.0,0.0,0.0,0.0,0.0,0.0,0.0,0.0,0.0,0.0,-2.5431,-2.6243,0.0,0.0,0.0,-2.7849,-2.8453,0.0,0.0,0.0,0.0,0.0,0.0,0.0,0.0,0.0,0.0,0.0,0.0,0.0,0.0,0.0,0.0,0.0,0.0,0.0,0.0,0.0,0.0,0.0,0.0,0.0,0.0,0.0,0.0,0.0,0.0,0.0,0.0,0.0,0.0,0.0,0.0,0.0,0.0,0.0,0.0,0.0,0.0,0.0,0.0,0.0,0.0,0.0,0.0,0.0,0.0,0.0,0.0,0.0,0.0,0.0,0.0,0.0,-2.7806,-2.779,-2.7605,-2.725,-2.6813,-2.6349,-2.586,-2.5293,0.0,0.0,0.0,0.0,0.0,0.0,0.0,0.0,0.0,0.0,0.0,0.0,0.0,0.0,0.0,0.0,0.0,0.0,0.0,0.0,0.0,0.0,0.0,0.0,0.0,0.0,0.0,-2.5302,0.0,0.0,0.0,0.0,0.0,0.0,0.0,0.0,0.0,0.0,0.0,0.0,0.0,0.0,-2.6214,-2.6115,-2.715,-2.7923,0.0,0.0,-2.8869,-2.9558,-2.9641,-2.9847,0.0,0.0,0.0,0.0,0.0,0.0,0.0,0.0,0.0,0.0,0.0,0.0,0.0,0.0,0.0,0.0,0.0,0.0,0.0,0.0,0.0,0.0,0.0,0.0,0.0,0.0,0.0,0.0,0.0,0.0,0.0,0.0,0.0,0.0,0.0,0.0,0.0,0.0,0.0,0.0,0.0,0.0,0.0,0.0,0.0,0.0,0.0,0.0,0.0,0.0,0.0,0.0,0.0,0.0,-2.769,-2.779,-2.7675,-2.738,-2.6971,-2.6806,-2.6404,-2.5853,-2.5286,-2.4496,0.0,0.0,0.0,0.0,0.0,0.0,0.0,0.0,0.0,0.0,0.0,0.0,0.0,0.0,0.0,0.0,0.0,0.0,0.0,0.0,0.0,0.0,0.0,0.0,0.0,0.0,0.0,0.0,0.0,0.0,0.0,0.0,0.0,0.0,0.0,0.0,0.0,0.0,0.0,0.0,0.0,-2.6122,-2.6346,-2.6978,-2.7715,0.0,-2.9398,-3.0311,-3.1016,-3.1089,-3.11,-3.1134,0.0,0.0,0.0,0.0,0.0,0.0,0.0,0.0,0.0,0.0,0.0,0.0,0.0,0.0,0.0,0.0,0.0,0.0,0.0,0.0,0.0,0.0,0.0,0.0,0.0,0.0,0.0,0.0,0.0,0.0,0.0,0.0,0.0,0.0,0.0,0.0,0.0,0.0,0.0,0.0,0.0,0.0,0.0,0.0,0.0,0.0,0.0,0.0,0.0,0.0,0.0,0.0,0.0,-2.7625,-2.7675,-2.7625,-2.75,-2.735,-2.6909,-2.6567,-2.6364,-2.5807,-2.5148,0.0,0.0,0.0,0.0,0.0,0.0,0.0,0.0,0.0,0.0,0.0,0.0,0.0,0.0,0.0,0.0,0.0,0.0,0.0,0.0,0.0,0.0,0.0,0.0,0.0,0.0,0.0,0.0,-2.6198,-2.6745,-2.6348,0.0,0.0,0.0,0.0,0.0,0.0,0.0,0.0,0.0,0.0,-2.7881,-2.795,-2.8945,0.0,0.0,-3.062,-3.0942,-3.1213,-3.123,-3.119,-3.119,-3.119,0.0,0.0,0.0,0.0,0.0,0.0,0.0,0.0,0.0,0.0,0.0,0.0,0.0,0.0,0.0,0.0,0.0,0.0,0.0,0.0,0.0,0.0,0.0,0.0,0.0,0.0,0.0,0.0,0.0,0.0,0.0,0.0,0.0,0.0,0.0,0.0,0.0,0.0,0.0,0.0,0.0,0.0,0.0,0.0,0.0,0.0,0.0,0.0,0.0,0.0,0.0,0.0,-2.8101,-2.8106,-2.8297,-2.8374,-2.8188,-2.781,-2.7571,-2.7558,-2.701,-2.6482,0.0,0.0,0.0,0.0,0.0,0.0,0.0,0.0,0.0,0.0,0.0,0.0,0.0,0.0,0.0,0.0,0.0,0.0,0.0,0.0,0.0,0.0,0.0,0.0,0.0,0.0,0.0,0.0,-2.6329,-2.6903,-2.7146,0.0,0.0,0.0,0.0,0.0,0.0,0.0,0.0,0.0,0.0,-2.8833,-2.8931,-2.9922,-3.074,-3.0868,-3.1061,-3.1196,-3.1213,-3.1213,-3.1213,-3.1213,0.0,0.0,0.0,0.0,0.0,0.0,0.0,0.0,0.0,0.0,0.0,0.0,0.0,0.0,0.0,0.0,0.0,0.0,0.0,0.0,0.0,0.0,0.0,0.0,0.0,0.0,0.0,-3.022,0.0,0.0,-2.9769,0.0,0.0,0.0,0.0,0.0,0.0,0.0,0.0,0.0,0.0,0.0,0.0,0.0,0.0,0.0,0.0,0.0,0.0,0.0,0.0,0.0,0.0,-2.9219,-2.9273,-2.9946,-3.0043,-2.9546,-2.9516,-2.9505,-2.949,-2.8928,-2.8381,-2.7911,0.0,0.0,0.0,0.0,0.0,0.0,0.0,0.0,0.0,0.0,0.0,0.0,0.0,0.0,0.0,0.0,0.0,0.0,0.0,0.0,0.0,0.0,0.0,0.0,0.0,0.0,-2.7085,-2.7434,-2.7902,0.0,0.0,0.0,0.0,0.0,0.0,0.0,0.0,0.0,0.0,-2.8873,-2.8605,-2.9044,-2.9287,-2.9673,-2.9946,-3.0535,-3.1032,-3.1291,-3.1329,-3.1312,0.0,0.0,0.0,0.0,0.0,0.0,0.0,0.0,0.0,0.0,0.0,0.0,0.0,0.0,0.0,0.0,0.0,0.0,0.0,0.0,0.0,0.0,0.0,0.0,0.0,0.0,0.0,-3.1146,-3.1254,0.0,0.0,0.0,0.0,0.0,0.0,0.0,0.0,0.0,0.0,0.0,-3.0987,-3.1645,0.0,0.0,0.0,0.0,0.0,0.0,0.0,0.0,0.0,0.0,0.0,0.0,-2.9846,-2.9932,-3.0232,-3.0339,-3.0129,-2.9778,-2.9585,-2.961,-2.9421,-2.8987,-2.8297,0.0,0.0,0.0,0.0,0.0,0.0,0.0,0.0,0.0,0.0,0.0,0.0,0.0,0.0,0.0,0.0,0.0,0.0,0.0,0.0,0.0,0.0,0.0,0.0,0.0,-2.7159,0.0,0.0,0.0,0.0,0.0,0.0,0.0,0.0,0.0,0.0,0.0,-2.892,-2.8967,-2.9273,-2.9572,-2.9837,-3.0166,-3.0444,0.0,0.0,0.0,0.0,0.0,0.0,0.0,0.0,0.0,0.0,0.0,0.0,0.0,0.0,-3.2963,-3.3399,-3.3322,-3.325,-3.3541,0.0,0.0,0.0,0.0,0.0,0.0,0.0,0.0,0.0,0.0,0.0,0.0,0.0,0.0,-3.2035,0.0,-3.2735,0.0,0.0,0.0,0.0,0.0,0.0,0.0,0.0,-3.2457,-3.2721,-3.2732,-3.3037,-3.3318,0.0,-3.2793,-3.1632,0.0,0.0,0.0,0.0,0.0,0.0,0.0,0.0,-3.0886,-3.1186,-3.1238,-3.1221,-3.1009,-3.0436,-3.016,-3.0182,-3.0216,-2.9888,-2.9362,-2.9059,-2.8811,0.0,0.0,0.0,0.0,0.0,0.0,0.0,0.0,0.0,0.0,0.0,0.0,0.0,0.0,0.0,0.0,0.0,0.0,0.0,0.0,0.0,0.0,0.0,-2.7327,0.0,0.0,0.0,0.0,0.0,0.0,0.0,0.0,0.0,-2.8654,-2.8997,-2.9152,-2.9013,-2.9227,-2.9579,-3.0045,0.0,0.0,0.0,0.0,0.0,0.0,0.0,-3.3406,-3.322,-3.3364,-3.3533,-3.3744,-3.3998,-3.4167,-3.4167,0.0,0.0,-3.4088,-3.3743,-3.3587,-3.3943,-3.3967,-3.3923,-3.3967,-3.395,-3.4129,0.0,0.0,0.0,0.0,0.0,0.0,0.0,0.0,-3.2889,-3.3015,0.0,-3.3579,0.0,0.0,0.0,0.0,0.0,-3.2578,0.0,0.0,-3.3981,-3.4492,-3.5134,-3.5134,-3.5169,-3.5205,-3.4942,-3.421,-3.3018,-3.1598,0.0,0.0,0.0,0.0,0.0,0.0,-3.2243,-3.2939,-3.2992,-3.2726,-3.2133,-3.1499,-3.119,-3.1249,-3.1278,-3.119,-3.1058,-3.0283,-2.9856,-2.978,-2.8326,0.0,0.0,0.0,0.0,0.0,0.0,0.0,0.0,0.0,0.0,0.0,0.0,0.0,0.0,0.0,0.0,0.0,0.0,0.0,0.0,-2.757,0.0,0.0,0.0,0.0,0.0,0.0,0.0,0.0,0.0,0.0,-2.9227,-2.8982,-2.8951,-2.9457,0.0,0.0,0.0,0.0,-3.0797,-3.1486,-3.2226,-3.2835,-3.2977,-3.3141,-3.3363,-3.355,0.0,0.0,-3.4447,-3.5115,-3.5571,-3.5622,-3.5554,-3.5165,-3.3761,-3.3997,-3.4374,-3.4513,-3.4964,-3.5424,-3.5498,-3.5318,-3.5369,-3.2564,0.0,0.0,0.0,0.0,-3.2215,-3.277,-3.3753,-3.3395,-3.3478,-3.3891,-3.3616,0.0,0.0,0.0,0.0,0.0,0.0,-3.3946,-3.4284,-3.4463,-3.4783,-3.5169,-3.5065,-3.5208,-3.5537,-3.5196,-3.4936,-3.4711,-3.3935,-3.2766,-3.1217,0.0,0.0,0.0,0.0,-3.3288,-3.3427,-3.3594,-3.3555,-3.3388,-3.2404,-3.1682,-3.1307,-3.119,-3.1073,-3.0895,-3.0628,-3.0447,-3.0372,-2.9958,0.0,0.0,0.0,0.0,0.0,0.0,0.0,0.0,0.0,0.0,0.0,0.0,0.0,0.0,0.0,0.0,0.0,0.0,0.0,-2.7429,-2.814,-2.859,0.0,0.0,0.0,0.0,0.0,0.0,0.0,0.0,0.0,-3.0639,-3.0244,-3.013,0.0,0.0,-3.0557,-3.17,-3.1746,-3.1887,-3.2613,-3.3614,0.0,-3.347,-3.401,-3.4313,-3.3762,-3.4096,-3.4609,-3.5205,-3.547,-3.5639,-3.5577,-3.5639,-3.547,-3.5115,-3.5104,-3.5239,-3.5273,-3.5153,-3.5038,-3.5038,-3.4738,-3.448,-3.3456,-3.2591,-3.213,-3.2384,-3.3014,-3.2925,-3.3284,-3.4012,-3.3797,-3.4015,-3.4562,-3.4347,-3.4292,-3.4359,-3.4458,0.0,0.0,0.0,-3.4776,-3.5241,-3.533,-3.5652,-3.6149,-3.6043,-3.6112,-3.6425,-3.6038,-3.5877,-3.5864,-3.5498,-3.4554,-3.304,0.0,0.0,-3.3045,-3.3479,-3.3853,-3.402,-3.3799,-3.3697,-3.3697,-3.2819,-3.2064,-3.1437,-3.1336,-3.1161,-3.0762,-3.0687,-3.0821,-3.0911,-3.0851,-3.0955,0.0,0.0,0.0,0.0,0.0,0.0,0.0,0.0,0.0,0.0,0.0,-2.675,-2.7013,0.0,0.0,0.0,-2.7756,-2.8099,-2.8779,-2.9265,0.0,0.0,0.0,0.0,0.0,0.0,0.0,-3.1294,-3.1502,-3.1517,-3.1402,-3.1244,-3.1118,-3.1021,-3.0956,-3.132,-3.2383,0.0,-3.2544,-3.3168,-3.3905,-3.428,-3.3952,-3.4409,-3.4723,-3.4513,-3.4785,-3.5131,-3.5224,-3.527,-3.5224,-3.5021,-3.4975,-3.4975,-3.4975,-3.4975,-3.5038,-3.5224,-3.488,-3.448,-3.448,-3.4235,-3.3986,-3.4346,-3.379,-3.3278,-3.3242,-3.3509,-3.3553,-3.378,-3.4109,-3.4215,-3.4659,-3.5369,-3.5451,-3.5717,-3.609,-3.5493,0.0,-3.5554,-3.5331,-3.5687,-3.6488,-3.6488,-3.6863,-3.7559,-3.7577,-3.754,-3.7503,-3.7164,-3.6834,-3.6516,-3.6326,-3.5871,-3.5088,-3.4153,-3.3786,-3.3836,-3.3751,-3.402,-3.4626,-3.3885,-3.3443,-3.3407,-3.2895,-3.2312,-3.1595,-3.1637,-3.1349,-3.0687,-3.0628,-3.0866,-3.1364,-3.1291,-3.1507,-3.1987,0.0,0.0,0.0,0.0,0.0,0.0,0.0,0.0,0.0,0.0,0.0,0.0,0.0,0.0,0.0,-2.9364,0.0,-3.0412,-3.0639,0.0,0.0,0.0,-3.0923,-3.1236,-3.1236,-3.1367,-3.1741,0.0,0.0,-3.1757,-3.2101,-3.2092,-3.146,-3.1399,-3.1636,-3.2352,-3.2734,-3.3008,-3.3483,-3.3678,-3.3984,-3.435,-3.4301,-3.4415,-3.5021,-3.5407,-3.5161,-3.4816,-3.4738,-3.4529,-3.4185,-3.3986,-3.4036,-3.4036,-3.4036,-3.407,-3.4577,-3.4284,-3.3935,-3.3919,-3.3818,-3.3783,-3.515,-3.4997,-3.4769,-3.4605,-3.4506,-3.4909,-3.5462,-3.5996,-3.568,-3.5648,-3.5802,-3.5636,-3.5824,-3.6303,-3.6165,-3.6453,-3.7041,-3.7005,-3.7094,-3.7291,-3.7163,-3.7251,-3.7577,-3.7447,-3.7203,-3.6856,-3.6878,-3.658,-3.5933,-3.6097,-3.582,-3.5191,-3.4941,-3.4657,-3.4366,-3.4431,-3.4448,-3.4399,-3.4184,-3.3882,-3.3487,-3.3319,-3.2917,-3.2382,-3.1807,-3.148,-3.1321,-3.0866,-3.0687,-3.0792,-3.119,-3.1465,-3.1637,-3.2033,0.0,0.0,0.0,0.0,0.0,0.0,0.0,0.0,0.0,-2.844,-2.8764,0.0,-2.9233,0.0,-3.0112,-3.0639,-3.069,-3.0927,0.0,0.0,-3.0958,-3.1111,-3.1899,-3.1793,-3.2049,-3.3083,-3.301,-3.2958,-3.3163,-3.3291,-3.3288,-3.3128,-3.2942,-3.3093,-3.3841,-3.4137,-3.4379,-3.4593,-3.4642,-3.4704,-3.4252,-3.3459,-3.3161,-3.3665,-3.3786,-3.3853,-3.4136,-3.4169,-3.4119,-3.402,-3.3986,-3.3986,-3.3986,-3.3665,-3.3459,-3.3547,-3.3459,-3.3407,-3.3391,-3.3108,-3.2803,-3.5698,-3.5511,-3.5831,-3.5854,-3.5696,-3.5501,-3.563,-3.6017,-3.5866,-3.6023,-3.6386,-3.6699,-3.6982,-3.7282,-3.7145,-3.7362,-3.7739,-3.7649,-3.7577,-3.7577,-3.7466,-3.7484,-3.7594,-3.7484,-3.7279,-3.7052,-3.7052,-3.6838,-3.6399,-3.6492,-3.6139,-3.5431,-3.5448,-3.5081,-3.4448,-3.4497,-3.4399,-3.4151,-3.4201,-3.405,-3.3797,-3.3713,-3.3387,-3.2695,-3.2407,-3.2089,-3.1709,-3.1263,-3.1073,-3.1276,-3.1349,-3.1465,-3.1736,-3.2074,-3.2302,0.0,0.0,0.0,0.0,0.0,0.0,0.0,0.0,0.0,0.0,0.0,-3.0473,-3.0858,-3.1274,-3.1486,-3.1486,-3.1763,-3.1986,-3.195,-3.1847,-3.1935,-3.2484,-3.2357,-3.2604,-3.3403,-3.3398,-3.3398,-3.3642,-3.3694,-3.3694,-3.3694,-3.3642,-3.3797,-3.4184,-3.4415,-3.4448,-3.4333,-3.4301,-3.4219,-3.3786,-3.3527,-3.3387,-3.3511,-3.3563,-3.3614,-3.3665,-3.3665,-3.3563,-3.3371,-3.3319,-3.3266,-3.3266,-3.3039,-3.2841,-3.2841,-3.2841,-3.2841,-3.2841,-3.2586,-3.2398,-3.6219,-3.5981,-3.6693,-3.6949,-3.6868,-3.5896,-3.5541,-3.5643,-3.5843,-3.6338,-3.7006,-3.7911,-3.8285,-3.8285,-3.8052,-3.7949,-3.788,-3.7685,-3.7594,-3.754,-3.7594,-3.7577,-3.7577,-3.7577,-3.7594,-3.754,-3.7317,-3.7241,-3.7259,-3.7009,-3.6516,-3.5698,-3.5654,-3.5174,-3.4234,-3.425,-3.4151,-3.3949,-3.4016,-3.405,-3.405,-3.405,-3.3678,-3.2964,-3.3093,-3.2826,-3.2089,-3.1766,-3.1736,-3.2099,-3.1607,-3.1607,-3.2084,-3.2099,-3.221,0.0,-3.1962,0.0,0.0,0.0,0.0,0.0,0.0,0.0,0.0,-3.1437,-3.1894,-3.2398,-3.2453,-3.2453,-3.2508,-3.2773,-3.2951,-3.2951,-3.2912,-3.2912,-3.2897,-3.2912,-3.3005,-3.3293,-3.3309,-3.3361,-3.3658,-3.3658,-3.3642,-3.371,-3.3899,-3.405,-3.4101,-3.4184,-3.4101,-3.345,-3.3346,-3.3403,-3.3266,-3.3748,-3.4018,-3.385,-3.3681,-3.3614,-3.313,-3.3093,-3.2949,-3.2547,-3.2492,-3.2453,-3.2398,-3.2453,-3.2398,-3.2453,-3.2437,-3.2453,-3.2453,-3.2453,-3.2398,-3.7633,-3.7551,-3.7539,-3.7541,-3.7506,-3.7256,-3.7395,-3.7798,-3.7831,-3.7824,-3.7767,-3.7756,-3.7739,-3.7757,-3.7685,-3.7594,-3.7447,-3.7558,-3.7503,-3.7372,-3.7503,-3.7577,-3.7577,-3.7577,-3.7521,-3.7334,-3.6995,-3.6917,-3.7066,-3.6696,-3.6207,-3.5548,-3.5548,-3.4971,-3.3882,0.0,0.0,0.0,-3.3848,-3.3761,-3.3745,-3.3797,-3.3694,-3.3523,-3.3319,0.0,-3.2986,-3.2477,-3.2272,-3.2312,-3.2216,0.0,0.0,0.0,0.0,0.0,0.0,0.0,0.0,0.0,0.0,0.0,-3.2007,-3.2007,-3.161,-3.1667,-3.191,-3.2342,-3.2648,-3.2881,-3.3134,-3.3203,-3.3256,-3.3203,-3.3005,-3.2912,-3.2912,-3.2912,-3.3112,-3.3539,-3.324,-3.3165,-3.3607,-3.3503,-3.345,-3.3694,-3.3949,-3.4101,-3.4101,-3.4349,-3.4399,-3.4,-3.3507,-3.3193,-3.2989,-3.2942,-3.3049,-3.3027,-3.2888,-3.2711,-3.2586,-3.2602,-3.2547,-3.2398,-3.2398,-3.2398,-3.2398,-3.2398,-3.2398,-3.2398,-3.2398,-3.2398,-3.2398,-3.2398,-3.2398,-3.7949,-3.7845,-3.7739,-3.7685,0.0,-3.7613,-3.7757,-3.7984,-3.8018,-3.7915,-3.7774,-3.7649,-3.7577,-3.7594,-3.7484,-3.741,-3.7297,-3.7297,-3.7241,-3.7182,-3.7372,-3.7429,-3.7429,-3.7558,-3.7429,-3.7091,-3.686,-3.6643,-3.6533,-3.6147,-3.5725,-3.5232,-3.5295,-3.4847,-3.3949,-3.405,-3.4101,-3.4101,-3.3949,-3.3915,-3.3899,-3.3915,-3.3864,-3.371,-3.3662,0.0,0.0,0.0,0.0,0.0,0.0,0.0,0.0,-3.158,0.0,-3.1233,-3.1029,-3.0984,-3.0999,-3.1248,-3.1437,-3.1682,-3.212,-3.2287,-3.2064,-3.2064,-3.2272,-3.2734,-3.2866,-3.2989,-3.3208,-3.3187,-3.3027,-3.2904,-3.2742,-3.2648,-3.2664,-3.2773,-3.3036,-3.3441,-3.3393,-3.343,-3.387,-3.3774,-3.3745,-3.3848,-3.4,-3.4101,-3.4101,-3.425,-3.425,-3.3781,-3.3471,-3.3171,-3.2935,-3.2773,-3.2703,-3.2827,-3.2648,-3.2453,-3.2398,-3.2398,-3.2398,-3.2398,-3.2398,-3.2398,-3.2398,-3.2398,-3.2398,-3.2398,-3.2398,-3.2398,-3.2398,-3.2398,-3.2468,-3.7897,-3.7739,-3.7703,-3.7667,-3.7613,-3.7613,-3.7577,-3.7577,0.0,0.0,0.0,-3.7558,-3.7558,-3.7466,-3.7334,-3.7238,-3.72,-3.7066,-3.697,-3.7027,-3.722,-3.7314,-3.7372,-3.7466,-3.7319,-3.6956,-3.6626,-3.634,-3.6097,-3.5627,-3.5203,-3.4988,-3.5085,-3.4754,-3.4151,-3.4101,-3.4101,-3.4101,-3.405,-3.405,-3.405,-3.4,-3.3899,-3.3694,-3.3949,-3.4,-3.3745,-3.3491,-3.3251,-3.3039,-3.254,-3.1987,-3.1392,-3.116,-3.1058,-3.1116,-3.0792,-3.0777,-3.1218,-3.119,-3.1321,-3.1796,-3.2176,-3.2398,-3.2398,-3.2398,-3.2586,-3.3024,-3.2958,-3.2973,-3.3198,-3.2996,-3.2843,-3.2563,-3.2453,-3.2453,-3.2563,-3.2812,-3.309,-3.3366,-3.3618,-3.3758,-3.3986,-3.4011,-3.4,-3.405,-3.405,-3.4101,-3.4101,-3.4,-3.3797,-3.345,-3.3187,-3.3027,-3.2951,-3.2788,-3.2843,-3.2827,-3.2648,-3.2398,-3.2398,-3.2398,-3.2398,-3.2398,-3.2398,-3.2459,-3.2552,-3.2628,-3.2628,-3.2736,-3.2752,-3.2752,-3.2767,-3.2823,-3.2903,-3.7984,-3.7949,-3.7756,-3.7703,-3.7667,-3.7613,-3.7577,-3.7577,-3.7577,-3.7521,-3.7334,-3.7334,-3.7259,-3.7087,-3.7048,-3.6948,-3.6806,-3.6948,-3.697,-3.7009,-3.722,-3.741,-3.7558,-3.741,-3.7297,-3.7164,-3.6172,-3.583,-3.5968,-3.5207,-3.4771,-3.4723,-3.4723,-3.4546,-3.4151,-3.4101,-3.4101,-3.4101,-3.3848,-3.3745,-3.3745,-3.3761,-3.3745,-3.371,-3.3949,-3.4101,-3.4034,-3.3984,-3.3697,-3.3198,-3.3077,-3.2648,-3.1879,-3.1392,-3.1058,-3.0866,-3.0687,-3.0628,-3.0732,-3.1263,-3.1781,-3.2231,-3.2382,-3.2398,-3.2398,-3.2398,-3.2437,-3.2547,-3.2757,-3.3011,-3.3203,-3.3033,-3.2951,-3.3081,-3.2672,-3.2617,-3.3081,-3.3203,-3.3414,-3.388,-3.3829,-3.371,-3.3809,-3.3777,-3.3797,-3.3797,-3.4,-3.4101,-3.405,-3.371,-3.3414,-3.324,-3.285,-3.2687,-3.2827,-3.2648,-3.2648,-3.2827,-3.2679,-3.2475,-3.2475,-3.2536,-3.2567,-3.2444,-3.2552,-3.2705,-3.3136,-3.3275,-3.3475,-3.3875,-3.3998,-3.4044,-3.4072,-3.4244,-3.4192,-3.7916,-3.7845,-3.7739,-3.7667,-3.7649,-3.7631,-3.7577,-3.7577,-3.7577,-3.754,-3.7484,-3.7484,-3.741,-3.7317,-3.722,-3.7105,-3.7005,-3.6886,-3.6846,-3.6829,-3.6926,-3.7044,-3.7105,-3.7143,-3.7009,-3.6713,-3.6122,-3.5688,-3.5407,-3.493,-3.4594,-3.4399,-3.4349,-3.4382,-3.4399,-3.4201,-3.4101,-3.4101,-3.4,-3.3899,-3.3899,-3.3761,-3.3761,-3.3899,-3.3915,-3.3949,-3.4101,-3.4101,-3.3815,-3.3235,-3.3145,-3.261,-3.158,-3.116,-3.0763,-3.0312,-3.0144,-3.0036,-3.0036,-3.0613,-3.1248,-3.1936,-3.2007,-3.212,-3.2398,-3.2398,-3.2547,-3.2803,-3.2866,-3.3081,-3.3423,-3.3171,-3.2951,-3.3058,-3.2687,-3.2633,-3.2989,-3.3203,-3.3466,-3.3793,-3.3915,-3.3899,-3.3899,-3.3899,-3.3899,-3.3949,-3.405,-3.4101,-3.4101,-3.3658,-3.3309,-3.3293,-3.3055,-3.2911,-3.2881,-3.2648,-3.2578,-3.2843,-3.2974,-3.2906,-3.2967,-3.3183,-3.3475,-3.3521,-3.3506,-3.3644,-3.3967,-3.3983,-3.4152,-3.4306,-3.446,-3.4519,-3.4694,-3.5065,-3.5166,-3.781,-3.7685,-3.7685,-3.7649,-3.7577,-3.7577,-3.7577,-3.7577,-3.7577,-3.7577,-3.7594,-3.7558,-3.7503,-3.7429,-3.7297,-3.722,-3.7182,-3.6846,-3.6725,-3.6766,-3.6742,-3.6742,-3.6766,-3.6869,-3.6748,-3.6402,-3.6174,-3.5677,-3.5024,-3.4787,-3.4497,-3.4151,-3.4101,-3.425,-3.4546,-3.425,-3.4101,-3.4101,-3.4101,-3.4101,-3.4101,-3.3899,-3.3899,-3.405,-3.3882,-3.3915,-3.4101,-3.4101,-3.3764,-3.3024,-3.2986,-3.2431,-3.1175,-3.0866,-3.0495,-2.9993,-2.9837,-2.9789,-2.9898,-3.0266,-3.0777,-3.1437,-3.1567,-3.1724,-3.2064,-3.216,-3.2492,-3.2895,-3.2958,-3.315,-3.345,-3.3256,-3.3005,-3.2951,-3.2633,-3.2578,-3.2935,-3.3165,-3.3414,-3.3758,-3.3982,-3.4101,-3.4101,-3.4101,-3.4101,-3.4101,-3.4101,-3.4133,-3.4228,-3.395,-3.3773,-3.3779,-3.362,-3.326,-3.303,-3.3036,-3.3058,-3.3239,-3.3491,-3.364,-3.3721,-3.4121,-3.4383,-3.4352,-3.4383,-3.4475,-3.4614,-3.4706,-3.4858,-3.5102,-3.527,-3.5251,-3.566,-3.6045,-3.6206,-3.7703,-3.7703,-3.7631,-3.7631,-3.7577,-3.7577,-3.7577,-3.7577,-3.7577,-3.7577,-3.7577,-3.741,-3.722,-3.7048,-3.7027,-3.7009,-3.697,-3.6806,-3.6766,-3.6908,-3.6766,-3.6823,-3.6869,-3.6766,-3.6684,-3.6561,-3.6088,-3.5588,-3.5131,-3.4866,-3.448,-3.4151,-3.4101,-3.4084,-3.4151,-3.4101,-3.4101,-3.4101,-3.4101,-3.4101,-3.4101,-3.405,-3.4117,-3.4101,-3.4101,-3.4101,-3.4101,-3.4101,-3.3475,-3.2415,-3.281,-3.2376,-3.0896,-3.0822,-3.0763,-3.0251,-3.019,-3.0447,-3.0792,-3.0911,-3.0911,-3.1014,-3.1087,-3.1087,-3.1204,-3.1552,-3.1951,-3.2437,-3.2958,-3.324,-3.3346,-3.3256,-3.3203,-3.315,-3.2742,-3.2633,-3.3134,-3.3293,-3.3503,-3.4016,-3.405,-3.4101,-3.4101,-3.4149,-3.4149,-3.4214,-3.4327,-3.4538,-3.4975,-3.4969,-3.5005,-3.5074,-3.4431,-3.3543,-3.3491,-3.3939,-3.4068,-3.4226,-3.4364,-3.4368,-3.4414,-3.446,-3.4491,-3.486,-3.4629,-3.486,-3.5214,-3.5414,-3.5735,-3.6271,-3.6562,-3.6839,-3.7446,-3.7566,-3.7383,-3.6952,-3.6952,-3.7417,-3.7577,-3.7577,-3.7577,-3.7577,-3.7594,-3.7466,-3.741,-3.7372,-3.6935,-3.6799,-3.6838,-3.6678,-3.6516,-3.635,-3.6079,-3.6037,-3.6105,-3.5941,-3.5854,-3.5924,-3.5854,-3.5827,-3.5827,-3.5543,-3.5362,-3.5178,-3.4883,-3.4513,-3.4151,-3.4101,-3.4101,-3.4101,-3.4101,-3.4101,-3.4101,-3.4101,-3.4101,-3.405,-3.3949,-3.3949,-3.405,-3.3949,-3.3949,-3.405,-3.3949,-3.3335,-3.2195,-3.2391,-3.1819,-3.0251,-3.0404,-3.0372,-2.996,-2.9913,-3.0083,-3.0553,-3.0326,-3.0433,-3.097,-3.0732,-3.0792,-3.1379,-3.1625,-3.1807,-3.2164,-3.2711,-3.2989,-3.2796,-3.292,-3.3005,-3.2796,-3.2563,-3.2617,-3.324,-3.3293,-3.3503,-3.4,-3.4101,-3.4101,-3.4165,-3.4489,-3.47,-3.4813,-3.5056,-3.5493,-3.5801,-3.5695,-3.5578,-3.549,-3.5124,-3.4748,-3.4426,-3.4358,-3.4497,-3.4555,-3.4829,-3.506,-3.5106,-3.5476,-3.5676,-3.563,-3.5568,-3.5645,-3.6014,-3.6307,-3.6569,-3.7062,-3.7389,-3.761,-3.7886,-3.8059,-3.7987,-3.6078,-3.6167,-3.6702,-3.6934,-3.6952,-3.7184,-3.7131,-3.6952,-3.6946,-3.6854,-3.6622,-3.6107,-3.5833,-3.5792,-3.6108,-3.6122,-3.589,-3.561,-3.5459,-3.5369,-3.5237,-3.5161,-3.5098,-3.5098,-3.5115,-3.5161,-3.5161,-3.5085,-3.5038,-3.4723,-3.4399,-3.4151,-3.4101,-3.4101,-3.4101,-3.4101,-3.4101,-3.4101,-3.4101,-3.4101,-3.405,-3.3899,-3.3899,-3.405,-3.3899,-3.3899,-3.4101,-3.3848,-3.3298,-3.2431,-3.2114,-3.1435,-3.0147,-3.0115,-3.0007,-2.9665,-2.9602,-2.9727,-3.0083,-2.9775,-2.9898,-3.0493,-3.0266,-3.0372,-3.097,-3.1278,-3.1405,-3.1509,-3.2195,-3.2523,-3.2321,-3.2437,-3.2523,-3.2382,-3.2287,-3.2508,-3.3203,-3.3293,-3.3598,-3.4223,-3.4489,-3.4489,-3.4732,-3.5185,-3.5477,-3.5558,-3.593,-3.6432,-3.6529,-3.6383,-3.6197,-3.6198,-3.6426,-3.6001,-3.5303,-3.5169,-3.5003,-3.511,-3.5522,-3.5753,-3.5768,-3.6245,-3.6476,-3.6107,-3.6399,-3.6476,-3.6368,-3.6693,-3.7141,-3.7304,-3.7626,-3.8017,-3.8075,-3.8262,-3.8335,-3.5275,-3.5293,-3.5328,-3.5453,-3.5382,-3.6131,-3.6024,-3.5508,-3.59,-3.5774,-3.5171,-3.4731,-3.4145,-3.3684,-3.5104,-3.5873,-3.5769,-3.5402,-3.516,-3.4994,-3.5094,-3.5052,-3.483,-3.483,-3.4958,-3.5021,-3.4864,-3.4785,-3.4691,-3.4349,-3.4101,-3.4101,-3.4101,-3.4101,-3.4101,-3.4101,-3.4101,-3.4101,-3.4101,-3.4101,-3.4101,-3.4101,-3.405,-3.4101,-3.4101,-3.405,-3.405,-3.3848,-3.3471,-3.2949,-3.2185,-3.1377,-3.0674,-3.0101,-2.9761,-2.9602,-2.9602,-2.9602,-2.9665,-2.9602,-2.9665,-2.9665,-2.9727,-2.9665,-2.996,-3.0447,-3.0675,-3.0426,-3.1402,-3.1875,-3.1866,-3.1957,-3.1992,-3.2231,-3.2023,-3.2348,-3.3234,-3.3429,-3.3884,-3.4832,-3.5134,-3.5347,-3.6011,-3.6238,-3.6254,-3.627,-3.6319,-3.6594,-3.7145,-3.7219,-3.7406,-3.7786,-3.7726,-3.7255,-3.5962,-3.5845,-3.6199,-3.6184,-3.6061,-3.6353,-3.643,-3.6492,-3.6492,-3.6492,-3.6554,-3.6569,-3.66,-3.6832,-3.7306,-3.7619,-3.8008,-3.8278,-3.8262,-3.8335,-3.8391,-3.5953,-3.5953,-3.5971,-3.5685,-3.5223,-3.5403,-3.5332,-3.5084,-3.5043,-3.4859,-3.4556,-3.4024,-3.3686,-3.3456,-3.3611,-3.3594,-3.3412,-3.3102,-3.319,-3.3437,-3.3583,-3.368,-3.3901,-3.4152,-3.4317,-3.4267,-3.4317,-3.4317,-3.4333,-3.4399,-3.4349,-3.4151,-3.4101,-3.4101,-3.4101,-3.4101,-3.4101,-3.4101,-3.4101,-3.4101,-3.4101,-3.4101,-3.4101,-3.4101,-3.4101,-3.4101,-3.4101,-3.3694,-3.3224,-3.2749,-3.2104,-3.1291,-3.0524,-2.9946,-2.9665,-2.9602,-2.9602,-2.9602,-2.9602,-2.9602,-2.9602,-2.9602,-2.9602,-2.9713,-3.0021,-3.0251,-3.0451,-3.0632,-3.0822,-3.1058,-3.1073,-3.1637,-3.1879,-3.1467,-3.2158,-3.2916,-3.3512,-3.4156,-3.4981,-3.5723,-3.593,-3.6044,-3.6314,-3.6675,-3.6934,-3.6999,-3.7339,-3.7679,-3.7906,-3.8003,-3.8028,-3.8035,-3.7976,-3.7605,-3.6911,-3.6687,-3.6768,-3.6569,-3.6461,-3.6445,-3.6492,-3.6569,-3.6569,-3.6662,-3.6662,-3.6816,-3.6908,-3.7241,-3.7662,-3.7998,-3.8351,-3.8408,-3.8391,-3.8391,-3.8391,-3.5703,-3.5578,-3.5348,-3.4942,-3.4429,-3.4303,-3.4126,-3.386,-3.3734,-3.3636,-3.3429,-3.3009,-3.271,-3.2604,-3.2243,-3.1752,-3.1288,-3.1454,-3.1854,-3.2237,-3.2253,-3.2485,-3.297,-3.3358,-3.3588,-3.3729,-3.3949,-3.4101,-3.4101,-3.4349,-3.4349,-3.4101,-3.4101,-3.4101,-3.4101,-3.4101,-3.4101,-3.4101,-3.4101,-3.4101,-3.4101,-3.4101,-3.4101,-3.4101,-3.4101,-3.4101,-3.4101,-3.3658,-3.3277,-3.2926,-3.2216,-3.1364,-3.0358,-2.9884,-2.9665,-2.9602,-2.9665,-2.9665,-2.9602,-2.9602,-2.9602,-2.9602,-2.9602,-2.9775,-3.0021,-3.0068,-3.0286,-3.0408,-3.0729,-3.0701,-3.0812,-3.1693,-3.2107,-3.1485,-3.2451,-3.3459,-3.4007,-3.4839,-3.5578,-3.6181,-3.6761,-3.6874,-3.6796,-3.7277,-3.7559,-3.7679,-3.8116,-3.8375,-3.8391,-3.8391,-3.8335,-3.8148,-3.8091,-3.796,-3.7541,-3.7338,-3.7103,-3.6846,-3.6616,-3.6554,-3.6677,-3.6693,-3.6677,-3.6785,-3.6907,-3.7136,-3.7377,-3.7642,-3.7976,-3.8335,-3.8408,-3.8408,-3.8391,-3.8448,-3.8448,-3.4443,-3.4007,-3.3158,-3.3045,-3.2959,-3.2831,-3.2273,-3.1874,-3.2156,-3.2195,-3.185,-3.1492,-3.1337,-3.1002,-3.1187,-3.0626,-3.0097,-3.083,-3.1358,-3.1469,-3.1402,-3.165,-3.2262,-3.2558,-3.3029,-3.3678,-3.3949,-3.4101,-3.4101,-3.4151,-3.4151,-3.4101,-3.4101,-3.4101,-3.4101,-3.4101,-3.4101,-3.4101,-3.4101,-3.4101,-3.4101,-3.4101,-3.4101,-3.4101,-3.4101,-3.4101,-3.4101,-3.3848,-3.3642,-3.3471,-3.2586,-3.1492,-3.0418,-2.9946,-2.9685,-2.9651,-2.9713,-2.9713,-2.9602,-2.9602,-2.9602,-2.9602,-2.9602,-2.9645,-2.984,-2.9936,-3.0012,-3.0287,-3.0768,-3.1133,-3.1101,-3.1933,-3.2463,-3.239,-3.2761,-3.3607,-3.4472,-3.5184,-3.5647,-3.6394,-3.7294,-3.7994,-3.7738,-3.7889,-3.8246,-3.8262,-3.8343,-3.8391,-3.8391,-3.8391,-3.8391,-3.8391,-3.8335,-3.8148,-3.8017,-3.7886,-3.7492,-3.7165,-3.6862,-3.6739,-3.6923,-3.6984,-3.7029,-3.7134,-3.7298,-3.7464,-3.7764,-3.8024,-3.8091,-3.8319,-3.8335,-3.8408,-3.8408,-3.8464,-3.852,-3.5272,-3.4518,-3.3785,-3.311,-3.2479,-3.1939,-3.1543,-3.124,-3.1371,-3.1263,-3.1061,-3.1004,-3.0868,-3.0764,-3.0535,-3.0199,-2.9842,-2.9766,-2.9879,-3.0398,-3.0905,-3.1439,-3.1997,-3.2843,-3.328,-3.3455,-3.3899,-3.4,-3.3915,-3.4,-3.4101,-3.4101,-3.4101,-3.4101,-3.4101,-3.4101,-3.4101,-3.4101,-3.4101,-3.4101,-3.4101,-3.4101,-3.4101,-3.4101,-3.4101,-3.4101,-3.4101,-3.3848,-3.3607,-3.3398,-3.2296,-3.1102,-3.0068,-2.9713,-2.9651,-2.9602,-2.9651,-2.9713,-2.9699,-2.9651,-2.9665,-2.9713,-2.9679,-2.9904,-3.0369,-3.0488,-3.0736,-3.1105,-3.1482,-3.15,-3.1545,-3.2069,-3.2288,-3.1818,-3.2859,-3.3657,-3.4252,-3.537,-3.6393,-3.6979,-3.7313,-3.7616,-3.8017,-3.8335,-3.8335,-3.8391,-3.8391,-3.8391,-3.8391,-3.8391,-3.8391,-3.8391,-3.8391,-3.8391,-3.8205,-3.8075,-3.7844,-3.7508,-3.7194,-3.7013,-3.721,-3.7329,-3.7373,-3.7492,-3.7669,-3.786,-3.8113,-3.8228,-3.8278,-3.8319,-3.8391,-3.8408,-3.8408,-3.852,-3.8616,-3.5273,-3.43,-3.3584,-3.2799,-3.1933,-3.1146,-3.0781,-3.0699,-3.0634,-3.0576,-3.0601,-3.0642,-3.0584,-3.0543,-3.0267,-2.9941,-2.9617,-2.9044,-2.9122,-2.9679,-3.0183,-3.0951,-3.1789,-3.2856,-3.345,-3.3503,-3.3797,-3.3848,-3.3745,-3.3949,-3.4151,-3.43,-3.4201,-3.4201,-3.43,-3.4151,-3.4101,-3.4101,-3.4101,-3.4101,-3.4101,-3.4101,-3.4101,-3.4101,-3.4101,-3.4101,-3.4101,-3.3949,-3.3642,-3.2996,-3.1849,-3.0703,-2.996,-2.9851,-2.9741,-2.9665,-2.9727,-2.9837,-2.9775,-2.9699,-2.984,-3.0043,-3.0003,-3.0284,-3.0906,-3.1126,-3.1403,-3.1775,-3.2037,-3.2136,-3.2108,-3.2567,-3.2607,-3.223,-3.3278,-3.3981,-3.4366,-3.5622,-3.6507,-3.6843,-3.7021,-3.7424,-3.7812,-3.8017,-3.8148,-3.8278,-3.8391,-3.8391,-3.8391,-3.8391,-3.8391,-3.8391,-3.8391,-3.8391,-3.8391,-3.8278,-3.8148,-3.7902,-3.7594,-3.7535,-3.7535,-3.7594,-3.7653,-3.7844,-3.8033,-3.8091,-3.8327,-3.831,-3.8391,-3.8391,-3.8391,-3.8448,-3.8448,-3.86,-3.8711,-3.4539,-3.3334,-3.2613,-3.1921,-3.1249,-3.0413,-3.0103,-3.0017,-2.9989,-3.0087,-3.0267,-3.0309,-3.0267,-3.0251,-3.0097,-2.9722,-2.9167,-2.8997,-2.9184,-2.9481,-2.9805,-3.0525,-3.2013,-3.2829,-3.3293,-3.3503,-3.3694,-3.3745,-3.371,-3.3949,-3.43,-3.4497,-3.425,-3.425,-3.4448,-3.425,-3.4101,-3.4101,-3.4101,-3.4101,-3.4101,-3.4101,-3.4101,-3.4101,-3.4101,-3.4101,-3.4101,-3.3882,-3.3507,-3.268,-3.1407,-3.0507,-3.0266,-3.0172,-2.9851,-2.9679,-3.0036,-3.0135,-2.9874,-3.0058,-3.0367,-3.0835,-3.0793,-3.0904,-3.1701,-3.1909,-3.1952,-3.2117,-3.2587,-3.284,-3.2821,-3.3115,-3.3353,-3.3339,-3.3628,-3.424,-3.5094,-3.5821,-3.6151,-3.6229,-3.6599,-3.7156,-3.7476,-3.746,-3.7786,-3.8221,-3.8391,-3.8391,-3.8391,-3.8391,-3.8391,-3.8391,-3.8391,-3.8391,-3.8391,-3.8391,-3.8262,-3.8148,-3.796,-3.7918,-3.7844,-3.7886,-3.7943,-3.8148,-3.8278,-3.8335,-3.8391,-3.8391,-3.8391,-3.8391,-3.8391,-3.8448,-3.856,-3.8711,-3.8805,-3.3658,-3.3126,-3.1936,-3.1287,-3.092,-3.0282,-2.9973,-2.9946,-2.993,-2.9973,-3.0017,-3.0033,-2.9913,-2.9722,-2.9499,-2.9198,-2.8873,-2.8668,-2.9221,-3.0012,-3.0166,-3.1182,-3.2631,-3.3287,-3.3361,-3.3256,-3.3642,-3.3899,-3.3745,-3.3949,-3.4151,-3.425,-3.4201,-3.4151,-3.4201,-3.4151,-3.4101,-3.4101,-3.4101,-3.4101,-3.4101,-3.4101,-3.4101,-3.4101,-3.4101,-3.4101,-3.4,-3.3314,-3.2641,-3.2114,-3.119,-3.0387,-3.0036,-3.0003,-3.0012,-3.0131,-3.0554,-3.0831,-3.0931,-3.1182,-3.1525,-3.1811,-3.1675,-3.1931,-3.2729,-3.2801,-3.3001,-3.3235,-3.3539,-3.3433,-3.3213,-3.3283,-3.3382,-3.3536,-3.3591,-3.3701,-3.4182,-3.4824,-3.54,-3.5434,-3.6382,-3.703,-3.7329,-3.7401,-3.7653,-3.8205,-3.8391,-3.8391,-3.8391,-3.8391,-3.8391,-3.8391,-3.8391,-3.8391,-3.8391,-3.8391,-3.8391,-3.8335,-3.8294,-3.8253,-3.8237,-3.8205,-3.8262,-3.8391,-3.8335,-3.8391,-3.8391,-3.8391,-3.8391,-3.8391,-3.8448,-3.856,-3.86,-3.8711,-3.886,-3.2914,-3.2187,-3.1359,-3.0794,-3.0457,-3.0124,-2.9946,-2.9902,-2.993,-2.9946,-2.9858,-2.977,-2.9665,-2.9486,-2.9121,-2.8826,-2.8685,-2.8493,-2.9166,-3.0366,-3.0997,-3.1973,-3.2902,-3.3171,-3.3134,-3.315,-3.3555,-3.371,-3.3761,-3.3949,-3.4151,-3.43,-3.4201,-3.4184,-3.4349,-3.4151,-3.4101,-3.4101,-3.4101,-3.4101,-3.4101,-3.4101,-3.4101,-3.4101,-3.4117,-3.4081,-3.401,-3.3284,-3.2485,-3.1732,-3.1071,-3.0606,-3.0435,-3.06,-3.0742,-3.0911,-3.1366,-3.1631,-3.1625,-3.194,-3.2292,-3.2558,-3.2514,-3.2829,-3.3341,-3.3581,-3.3729,-3.3808,-3.3868,-3.3758,-3.3508,-3.3354,-3.3396,-3.3536,-3.348,-3.3536,-3.3675,-3.4572,-3.5023,-3.535,-3.6052,-3.697,-3.7358,-3.7401,-3.7711,-3.8205,-3.8391,-3.8391,-3.8391,-3.8391,-3.8391,-3.8391,-3.8456,-3.8472,-3.8521,-3.8537,-3.8651,-3.8634,-3.8877,-3.8829,-3.8667,-3.8602,-3.8537,-3.8537,-3.8456,-3.8456,-3.8594,-3.8594,-3.8432,-3.8488,-3.8544,-3.8655,-3.8766,-3.8583,-3.8733,-3.2171,-3.0881,-3.08,-3.0457,-2.9999,-2.9918,-2.9874,-2.9874,-2.9814,-2.9814,-2.9726,-2.956,-2.9425,-2.938,-2.892,-2.8685,-2.8637,-2.8493,-2.9243,-3.0443,-3.1536,-3.2532,-3.285,-3.2866,-3.2973,-3.3256,-3.3361,-3.3555,-3.3813,-3.4,-3.425,-3.4399,-3.4201,-3.43,-3.4399,-3.425,-3.4101,-3.4101,-3.4151,-3.4101,-3.4149,-3.423,-3.4309,-3.4118,-3.4126,-3.4086,-3.3982,-3.3541,-3.2811,-3.1456,-3.1199,-3.116,-3.1274,-3.1761,-3.1947,-3.204,-3.2277,-3.2486,-3.2306,-3.2501,-3.2796,-3.3244,-3.3145,-3.3293,-3.3912,-3.4027,-3.3919,-3.3962,-3.3868,-3.3787,-3.362,-3.3438,-3.348,-3.3675,-3.366,-3.3744,-3.4005,-3.4624,-3.5124,-3.5169,-3.5879,-3.6646,-3.7163,-3.7417,-3.7653,-3.8262,-3.8391,-3.8391,-3.8391,-3.8391,-3.8391,-3.8391,-3.8472,-3.8586,-3.8651,-3.8699,-3.8861,-3.8991,-3.9428,-3.9493,-3.9201,-3.9055,-3.8861,-3.8829,-3.9242,-3.9267,-3.9113,-3.8983,-3.8804,-3.8714,-3.8923,-3.8919,-3.886,-3.8495,-3.8479,-3.1186,-3.0833,-3.0312,-3.0048,-2.9918,-2.9918,-2.977,-2.9576,-2.956,-2.9486,-2.9305,-2.9229,-2.9059,-2.8873,-2.8748,-2.8605,-2.8523,-2.8519,-2.915,-3.0474,-3.1782,-3.2532,-3.2897,-3.2989,-3.3187,-3.3414,-3.3761,-3.3949,-3.4,-3.405,-3.4134,-3.4201,-3.4201,-3.4151,-3.4201,-3.4201,-3.4101,-3.4101,-3.4201,-3.4199,-3.4244,-3.47,-3.4679,-3.4288,-3.4248,-3.4025,-3.3651,-3.3472,-3.2998,-3.2445,-3.211,-3.2048,-3.1969,-3.2163,-3.2371,-3.2551,-3.2985,-3.3267,-3.326,-3.3578,-3.3955,-3.396,-3.3922,-3.3969,-3.4206,-3.4088,-3.4045,-3.4002,-3.3825,-3.3675,-3.3564,-3.3564,-3.3675,-3.3868,-3.3922,-3.4074,-3.4346,-3.4758,-3.4994,-3.5252,-3.5888,-3.6662,-3.7288,-3.7449,-3.7743,-3.8278,-3.844,-3.8424,-3.8472,-3.8537,-3.8699,-3.8861,-3.9039,-3.9233,-3.9282,-3.9363,-3.946,-3.9622,-3.9978,-4.027,-3.9962,-4.0037,-4.0005,-4.0069,-4.0258,-4.0121,-3.983,-3.974,-3.9609,-3.9437,-3.9368,-3.9374,-3.9309,-3.8723,-3.84,-3.0475,-3.0014,-2.9646,-2.9531,-2.9547,-2.9502,-2.9457,-2.9366,-2.9305,-2.9213,-2.9075,-2.8982,-2.8826,-2.87,-2.8605,-2.8493,-2.8629,-2.9104,-2.972,-3.0643,-3.1736,-3.2477,-3.2757,-3.3081,-3.3346,-3.3503,-3.3745,-3.3949,-3.405,-3.4101,-3.4101,-3.4101,-3.4101,-3.4101,-3.4101,-3.4117,-3.4101,-3.4081,-3.4169,-3.421,-3.4254,-3.4562,-3.4794,-3.4353,-3.43,-3.4135,-3.3888,-3.3883,-3.368,-3.3383,-3.3237,-3.3093,-3.2803,-3.2976,-3.3172,-3.3419,-3.3674,-3.3906,-3.4037,-3.4196,-3.4317,-3.4278,-3.4264,-3.421,-3.421,-3.402,-3.4005,-3.3922,-3.3799,-3.3605,-3.3605,-3.3605,-3.3799,-3.3991,-3.4128,-3.4196,-3.4399,-3.4654,-3.4919,-3.5236,-3.5933,-3.6647,-3.7121,-3.763,-3.7924,-3.8472,-3.9007,-3.9039,-3.9201,-3.9282,-3.9525,-3.9687,-3.9833,-3.9962,-4.0011,-4.0092,-4.0205,-4.0383,-4.0642,-4.0885,-4.0885,-4.1107,-4.1379,-4.1244,-4.0978,-4.0792,-4.0565,-4.0492,-4.0484,-4.0458,-4.0351,-4.0143,-3.986,-3.946,-3.9076,-2.9924,-2.9213,-2.9121,-2.9091,-2.9091,-2.9137,-2.9075,-2.9029,-2.9029,-2.8982,-2.8936,-2.8748,-2.8653,-2.8605,-2.8493,-2.8411,-2.875,-2.9689,-3.0314,-3.0582,-3.1797,-3.2431,-3.2742,-3.3065,-3.345,-3.371,-3.3797,-3.3949,-3.405,-3.4101,-3.4101,-3.4101,-3.4101,-3.4101,-3.4101,-3.4262,-3.436,-3.439,-3.4679,-3.4594,-3.4541,-3.4701,-3.4802,-3.4562,-3.4388,-3.4307,-3.4218,-3.4296,-3.4259,-3.4196,-3.4346,-3.4124,-3.3906,-3.3902,-3.4196,-3.437,-3.4312,-3.4298,-3.4298,-3.4303,-3.4264,-3.4128,-3.421,-3.4157,-3.4034,-3.402,-3.3965,-3.3911,-3.3787,-3.3675,-3.3675,-3.3744,-3.3868,-3.4059,-3.4128,-3.4196,-3.4346,-3.4481,-3.4926,-3.5518,-3.6295,-3.6984,-3.7634,-3.8184,-3.8398,-3.8683,-3.925,-3.9671,-3.9774,-3.9962,-4.0081,-4.0215,-4.0328,-4.0934,-4.1079,-4.1079,-4.116,-4.1237,-4.1464,-4.1561,-4.174,-4.2008,-4.2085,-4.1738,-4.1488,-4.1432,-4.1468,-4.1411,-4.142,-4.1445,-4.1132,-4.072,-4.0442,-4.0144,-3.9686,-2.9492,-2.9633,-2.9243,-2.9091,-2.9091,-2.9091,-2.8936,-2.8779,-2.8795,-2.8668,-2.8541,-2.8493,-2.8493,-2.8444,-2.8444,-2.8411,-2.8719,-2.975,-3.0428,-3.0643,-3.179,-3.2617,-3.3081,-3.3224,-3.3539,-3.3949,-3.4,-3.405,-3.4101,-3.4101,-3.4101,-3.4101,-3.4165,-3.4165,-3.436,-3.4651,-3.5007,-3.5104,-3.5513,-3.5511,-3.5228,-3.5373,-3.5475,-3.4991,-3.4617,-3.4376,-3.4382,-3.438,-3.4346,-3.4346,-3.4414,-3.4341,-3.424,-3.4259,-3.4332,-3.4346,-3.4414,-3.4414,-3.4346,-3.4264,-3.4128,-3.4059,-3.4074,-3.4034,-3.3896,-3.3965,-3.3965,-3.3896,-3.3911,-3.3827,-3.3827,-3.3868,-3.4074,-3.4278,-3.4346,-3.4346,-3.4481,-3.489,-3.5429,-3.6038,-3.6735,-3.7484,-3.8152,-3.8792,-3.9101,-3.946,-3.9946,-4.0075,-4.0023,-4.024,-4.0397,-4.0546,-4.0678,-4.1445,-4.2213,-4.2197,-4.2213,-4.2207,-4.2288,-4.2272,-4.2496,-4.2811,-4.2757,-4.2365,-4.2468,-4.2703,-4.2631,-4.2426,-4.2294,-4.2253,-4.1766,-4.1321,-4.0951,-4.0633,-3.9582,-2.9303,-2.9393,-2.8936,-2.8716,-2.8732,-2.8732,-2.8668,-2.8573,-2.8525,-2.8477,-2.8444,-2.8411,-2.8411,-2.8411,-2.8411,-2.8411,-2.8814,-2.9933,-3.0556,-3.0913,-3.2095,-3.2958,-3.3361,-3.3435,-3.3642,-3.3899,-3.4,-3.4117,-3.4101,-3.4101,-3.4133,-3.4198,-3.4424,-3.4651,-3.4813,-3.5396,-3.5704,-3.5898,-3.6152,-3.6063,-3.535,-3.5522,-3.5149,-3.4919,-3.4601,-3.4414,-3.4414,-3.4414,-3.4414,-3.4414,-3.4414,-3.4414,-3.4346,-3.4346,-3.4264,-3.4278,-3.4346,-3.4278,-3.4225,-3.4074,-3.4074,-3.3868,-3.3882,-3.3744,-3.3758,-3.3758,-3.3896,-3.3896,-3.3896,-3.3951,-3.4005,-3.4059,-3.4196,-3.4346,-3.4414,-3.4414,-3.4622,-3.5348,-3.5948,-3.6522,-3.7371,-3.8191,-3.8873,-3.9414,-3.9839,-4.027,-4.0675,-4.0611,-4.0369,-4.0777,-4.1091,-4.1284,-4.1448,-4.1862,-4.2537,-4.2585,-4.2775,-4.2899,-4.2899,-4.2883,-4.2945,-4.3113,-4.319,-4.3087,-4.3355,-4.3509,-4.341,-4.303,-4.3056,-4.3006,-4.2741,-4.2334,-4.1703,-4.0959,-4.0004,-2.9241,-2.9166,-2.8573,-2.8396,-2.8525,-2.8396,-2.8396,-2.8411,-2.8411,-2.8396,-2.8411,-2.8411,-2.8411,-2.8411,-2.8396,-2.8411,-2.8632,-3.0068,-3.0795,-3.1376,-3.2649,-3.3435,-3.3626,-3.3694,-3.3915,-3.4066,-3.429,-3.423,-3.4165,-3.4311,-3.4343,-3.4586,-3.5056,-3.5412,-3.5558,-3.6141,-3.64,-3.6529,-3.6654,-3.6342,-3.5539,-3.4777,-3.4414,-3.4414,-3.4414,-3.4414,-3.4414,-3.4414,-3.4414,-3.4414,-3.4346,-3.4346,-3.4346,-3.4196,-3.4059,-3.4074,-3.421,-3.4157,-3.402,-3.3951,-3.3868,-3.3675,-3.3758,-3.3605,-3.3605,-3.3675,-3.3896,-3.3951,-3.3951,-3.402,-3.4074,-3.4128,-3.4264,-3.4346,-3.4414,-3.4554,-3.4937,-3.5569,-3.6268,-3.705,-3.7994,-3.8654,-3.9261,-3.9838,-4.0235,-4.0675,-4.1061,-4.0976,-4.0928,-4.1723,-4.2134,-4.2264,-4.2439,-4.2439,-4.268,-4.2664,-4.2883,-4.3084,-4.3068,-4.3007,-4.3113,-4.3295,-4.3312,-4.3328,-4.3449,-4.3568,-4.3585,-4.3645,-4.3462,-4.3413,-4.3562,-4.3059,-4.1931,-4.1342,-4.0645,-2.9196,-2.9451,-2.8462,-2.8414,-2.8858,-2.8446,-2.8284,-2.8411,-2.846,-2.8411,-2.8411,-2.8411,-2.8411,-2.8411,-2.8411,-2.8493,-2.9073,-3.0172,-3.1126,-3.1725,-3.3108,-3.4086,-3.448,-3.4317,-3.4464,-3.466,-3.4966,-3.4686,-3.4554,-3.4862,-3.504,-3.5202,-3.5736,-3.6173,-3.6238,-3.6853,-3.7177,-3.7284,-3.7762,-3.7404,-3.623,-3.5029,-3.4452,-3.4414,-3.4414,-3.4414,-3.4414,-3.4414,-3.4414,-3.4346,-3.4196,-3.4196,-3.4278,-3.4088,-3.3951,-3.3882,-3.3951,-3.3965,-3.3813,-3.3813,-3.3675,-3.3605,-3.3605,-3.3605,-3.3675,-3.3744,-3.3951,-3.4059,-3.4059,-3.4142,-3.4142,-3.4278,-3.4346,-3.4486,-3.4545,-3.4835,-3.5292,-3.5926,-3.667,-3.7263,-3.8084,-3.8785,-3.9401,-3.999,-4.0515,-4.0992,-4.1295,-4.1211,-4.1401,-4.2013,-4.268,-4.2743,-4.2821,-4.2821,-4.2821,-4.2821,-4.2945,-4.319,-4.319,-4.3129,-4.3312,-4.3372,-4.3355,-4.3432,-4.3568,-4.3645,-4.3645,-4.3645,-4.3645,-4.3645,-4.3645,-4.2834,-4.1739,-4.1346,-4.0997,-2.8842,-2.9042,-2.8685,-2.8542,-2.8637,-2.8873,-2.8748,-2.8493,-2.87,-2.8653,-2.8444,-2.8411,-2.8411,-2.8444,-2.8411,-2.8541,-2.9028,-3.0528,-3.1453,-3.2223,-3.3598,-3.4642,-3.4822,-3.5215,-3.5495,-3.5416,-3.5792,-3.5912,-3.5613,-3.559,-3.5817,-3.5914,-3.6481,-3.6869,-3.695,-3.7582,-3.7857,-3.7778,-3.7536,-3.6995,-3.6197,-3.5154,-3.4414,-3.4414,-3.4414,-3.4414,-3.4414,-3.4414,-3.4346,-3.4264,-3.4128,-3.4074,-3.4088,-3.3882,-3.3744,-3.3675,-3.3143,-3.3143,-3.3452,-3.3536,-3.3536,-3.3466,-3.3536,-3.3675,-3.3813,-3.3937,-3.4074,-3.4278,-3.4264,-3.4278,-3.4293,-3.4346,-3.4661,-3.4806,-3.4936,-3.5357,-3.5878,-3.6458,-3.7124,-3.7678,-3.8204,-3.8877,-3.945,-3.9874,-4.0415,-4.0986,-4.1259,-4.1188,-4.1314,-4.1787,-4.2412,-4.2929,-4.2929,-4.3007,-4.299,-4.299,-4.3113,-4.3312,-4.3328,-4.3328,-4.3432,-4.3492,-4.3492,-4.3492,-4.3568,-4.3645,-4.3645,-4.3585,-4.3568,-4.3585,-4.3645,-4.2648,-4.1722,-4.1459,-4.0977,-2.8511,-2.8463,-2.8574,-2.8574,-2.859,-2.909,-2.9013,-2.8653,-2.8967,-2.8904,-2.8653,-2.8621,-2.8573,-2.8573,-2.8621,-2.8763,-2.9061,-3.0894,-3.1947,-3.299,-3.4349,-3.5576,-3.6105,-3.6572,-3.6566,-3.6109,-3.675,-3.6787,-3.6685,-3.6724,-3.6805,-3.661,-3.7297,-3.7533,-3.7728,-3.8019,-3.8294,-3.7879,-3.7024,-3.6446,-3.5946,-3.5023,-3.4534,-3.4414,-3.4414,-3.4414,-3.4346,-3.4346,-3.4196,-3.4128,-3.3687,-3.3548,-3.3577,-3.3283,-3.3143,-3.3143,-3.2832,-3.2846,-3.3157,-3.3227,-3.3227,-3.3227,-3.3521,-3.3868,-3.4059,-3.4128,-3.4196,-3.4346,-3.4346,-3.4486,-3.4617,-3.469,-3.5038,-3.5372,-3.5604,-3.6025,-3.6431,-3.6968,-3.7521,-3.7974,-3.8458,-3.8924,-3.941,-3.9698,-4.0232,-4.0946,-4.1127,-4.1142,-4.1541,-4.1948,-4.2412,-4.3052,-4.3113,-4.319,-4.319,-4.3174,-4.3312,-4.3372,-4.3449,-4.3449,-4.3568,-4.3568,-4.3568,-4.3568,-4.3645,-4.3645,-4.3645,-4.3568,-4.3568,-4.3312,-4.2974,-4.238,-4.1787,-4.1459,-4.0873,-2.8383,-2.7875,-2.7875,-2.8494,-2.9348,-2.8637,-2.8622,-2.8904,-2.9044,-2.9044,-2.8904,-2.9044,-2.8997,-2.9044,-2.9044,-2.9198,-2.9428,-3.1082,-3.2613,-3.4308,-3.5949,-3.707,-3.7592,-3.7725,-3.7756,-3.7369,-3.7733,-3.7646,-3.7465,-3.7711,-3.763,-3.7436,-3.7913,-3.8237,-3.8262,-3.8222,-3.8075,-3.7578,-3.6692,-3.6009,-3.5514,-3.4839,-3.4414,-3.4414,-3.4414,-3.4346,-3.4128,-3.4128,-3.4128,-3.4059,-3.3409,-3.303,-3.3115,-3.2832,-3.2761,-3.2832,-3.2704,-3.2789,-3.286,-3.2775,-3.2533,-3.2747,-3.3325,-3.4059,-3.4128,-3.4278,-3.4346,-3.4443,-3.4516,-3.4777,-3.5053,-3.5357,-3.5604,-3.6011,-3.633,-3.6707,-3.7041,-3.739,-3.7872,-3.8296,-3.8694,-3.9075,-3.922,-3.9493,-3.9834,-4.0447,-4.1127,-4.1194,-4.2126,-4.2664,-4.2851,-4.3174,-4.3312,-4.3372,-4.3388,-4.3388,-4.3449,-4.3449,-4.3509,-4.3585,-4.3585,-4.3645,-4.3568,-4.3645,-4.3645,-4.3645,-4.3645,-4.3585,-4.3432,-4.2912,-4.2506,-4.2317,-4.1459,-4.0668,-4.0216,-2.8091,-2.8204,-2.7925,-2.8122,-2.8637,-2.8904,-2.8858,-2.8637,-2.8951,-2.8904,-2.87,-2.8967,-2.9136,-2.9182,-2.947,-2.9756,-3.0376,-3.236,-3.3624,-3.5011,-3.6586,-3.79,-3.8471,-3.8755,-3.8755,-3.8354,-3.8602,-3.8578,-3.8091,-3.8278,-3.8246,-3.8165,-3.8334,-3.8383,-3.8375,-3.8091,-3.7653,-3.7222,-3.6399,-3.5642,-3.54,-3.4773,-3.4414,-3.4414,-3.4414,-3.4346,-3.4278,-3.4196,-3.4059,-3.3854,-3.3353,-3.3129,-3.3044,-3.2775,-3.2775,-3.2761,-3.2547,-3.2187,-3.2403,-3.2533,-3.3129,-3.3465,-3.3908,-3.4128,-3.4278,-3.4361,-3.4414,-3.4516,-3.4806,-3.5198,-3.5285,-3.572,-3.617,-3.6678,-3.7056,-3.7361,-3.7623,-3.7872,-3.815,-3.8517,-3.8797,-3.9104,-3.9162,-3.9162,-3.958,-3.999,-4.0653,-4.1393,-4.238,-4.3052,-4.319,-4.3312,-4.3432,-4.3509,-4.3509,-4.3509,-4.3585,-4.3509,-4.3509,-4.3509,-4.3432,-4.3568,-4.3568,-4.3568,-4.3645,-4.3645,-4.3645,-4.3645,-4.3251,-4.2648,-4.2569,-4.271,-4.1591,-4.0146,-3.9681,-2.786,-2.8253,-2.794,-2.794,-2.8235,-2.8858,-2.8873,-2.8494,-2.8858,-2.9013,-2.8842,-2.9044,-2.9354,-2.9603,-2.9745,-3.0477,-3.1489,-3.3189,-3.4399,-3.5967,-3.7546,-3.8757,-3.9203,-3.9435,-3.9617,-3.9143,-3.9139,-3.9156,-3.8367,-3.8375,-3.8415,-3.8399,-3.8448,-3.8448,-3.8262,-3.7786,-3.7238,-3.66,-3.6039,-3.5219,-3.5088,-3.4654,-3.4414,-3.4414,-3.4414,-3.4346,-3.4278,-3.4142,-3.4005,-3.3799,-3.3507,-3.3213,-3.3072,-3.2931,-3.286,-3.2561,-3.2028,-3.1281,-3.1636,-3.2146,-3.3199,-3.3409,-3.4045,-3.4196,-3.4361,-3.4559,-3.4762,-3.4811,-3.5267,-3.5706,-3.5863,-3.6373,-3.6881,-3.7389,-3.7535,-3.7826,-3.8031,-3.834,-3.8546,-3.8767,-3.8988,-3.9192,-3.9379,-3.9523,-3.9975,-4.0447,-4.1178,-4.1981,-4.2772,-4.3251,-4.3312,-4.3449,-4.3568,-4.3585,-4.3585,-4.3568,-4.3509,-4.3113,-4.3113,-4.3157,-4.3157,-4.3355,-4.3492,-4.3568,-4.3645,-4.3645,-4.3568,-4.3568,-4.3035,-4.238,-4.211,-4.1656,-4.1393,-4.0076,-3.9681,-2.7675,-2.779,-2.7806,-2.8057,-2.8334,-2.8186,-2.8268,-2.8511,-2.8764,-2.909,-2.9425,-2.9259,-2.9747,-3.0408,-3.0289,-3.105,-3.2433,-3.3884,-3.5291,-3.6966,-3.8478,-3.9817,-4.0358,-4.0504,-4.0031,-3.9698,-3.9454,-3.9098,-3.8391,-3.8391,-3.8448,-3.8504,-3.8432,-3.8375,-3.8335,-3.7727,-3.6723,-3.5657,-3.5464,-3.4971,-3.4668,-3.4467,-3.4414,-3.4414,-3.4414,-3.4346,-3.4196,-3.3854,-3.3799,-3.3716,-3.2903,-3.2676,-3.2889,-3.2173,-3.1882,-3.1882,-3.1663,-3.1442,-3.1442,-3.1563,-3.2345,-3.3326,-3.4146,-3.452,-3.4617,-3.4907,-3.5394,-3.539,-3.5933,-3.6532,-3.6925,-3.7288,-3.7607,-3.7825,-3.7955,-3.8103,-3.8383,-3.8575,-3.8752,-3.8885,-3.9192,-3.9424,-3.9681,-3.9935,-4.0516,-4.1111,-4.1836,-4.2443,-4.2974,-4.3035,-4.2912,-4.3007,-4.3146,-4.3129,-4.3129,-4.3492,-4.3432,-4.2912,-4.271,-4.2834,-4.2834,-4.2896,-4.3113,-4.3449,-4.3645,-4.3645,-4.3568,-4.3568,-4.2834,-4.2045,-4.0547,-4.0021,-4.0021,-4.0091,-3.9625,-2.7625,-2.7675,-2.7675,-2.776,-2.7894,-2.7989,-2.8039,-2.8155,-2.835,-2.8605,-2.8999,-2.9312,-2.9848,-3.037,-3.1007,-3.171,-3.2948,-3.469,-3.6152,-3.7422,-3.8952,-4.0007,-4.0514,-4.0336,-3.9935,-3.961,-3.9365,-3.9007,-3.8391,-3.8391,-3.8448,-3.8488,-3.8173,-3.7927,-3.7546,-3.6814,-3.5721,-3.54,-3.5023,-3.4601,-3.4414,-3.4414,-3.4414,-3.4414,-3.4414,-3.4332,-3.4182,-3.3701,-3.3423,-3.3353,-3.2461,-3.2304,-3.2519,-3.1955,-3.1796,-3.1882,-3.1736,-3.0709,-3.0901,-3.1382,-3.2791,-3.3776,-3.4545,-3.5024,-3.5111,-3.5633,-3.5918,-3.612,-3.6618,-3.707,-3.7201,-3.7725,-3.7999,-3.8057,-3.8144,-3.8219,-3.8427,-3.8649,-3.887,-3.8987,-3.9262,-3.9394,-3.961,-4.0005,-4.0531,-4.0857,-4.1393,-4.1722,-4.219,-4.2126,-4.1997,-4.2174,-4.2318,-4.2381,-4.2492,-4.2837,-4.2726,-4.211,-4.2253,-4.2648,-4.2648,-4.2443,-4.2974,-4.3432,-4.3509,-4.3585,-4.3432,-4.3174,-4.2648,-4.1722,-4.037,-3.9768,-4.0161,-4.0021,-3.9553,-2.7934,-2.7904,-2.7715,-2.756,-2.7625,-2.779,-2.784,-2.784,-2.8054,-2.8308,-2.8762,-2.941,-3.0172,-3.0746,-3.1318,-3.2286,-3.3387,-3.4984,-3.6157,-3.7436,-3.8924,-3.975,-4.007,-3.9919,-3.961,-3.9348,-3.9115,-3.8821,-3.8391,-3.8391,-3.8464,-3.8375,-3.778,-3.7413,-3.6919,-3.6134,-3.5335,-3.5023,-3.4601,-3.4481,-3.4414,-3.4414,-3.4414,-3.4414,-3.4346,-3.4264,-3.3908,-3.3409,-3.2917,-3.2618,-3.239,-3.2101,-3.2245,-3.2173,-3.1869,-3.1796,-3.1369,-3.0752,-3.1378,-3.2243,-3.3716,-3.4977,-3.5503,-3.5662,-3.5822,-3.6286,-3.6532,-3.6836,-3.7274,-3.7492,-3.7681,-3.813,-3.8219,-3.8277,-3.8277,-3.8352,-3.8501,-3.8723,-3.887,-3.9045,-3.9262,-3.9451,-3.9681,-4.0076,-4.0531,-4.0668,-4.0873,-4.1127,-4.1327,-4.1327,-4.1327,-4.1638,-4.1754,-4.1836,-4.2029,-4.2205,-4.1898,-4.1276,-4.1591,-4.2045,-4.219,-4.2061,-4.271,-4.3355,-4.3432,-4.3492,-4.3174,-4.2772,-4.2013,-4.1307,-4.047,-4.0191,-4.0424,-4.0021,-3.9424,-2.8622,-2.8532,-2.7955,-2.7745,-2.773,-2.7775,-2.775,-2.7806,-2.8016,-2.8414,-2.9042,-2.9373,-3.0304,-3.1592,-3.1579,-3.2458,-3.3912,-3.532,-3.6326,-3.7228,-3.8714,-3.9341,-3.961,-3.9506,-3.9259,-3.9061,-3.8914,-3.8711,-3.8391,-3.8504,-3.856,-3.8375,-3.7531,-3.71,-3.6554,-3.5819,-3.5088,-3.4668,-3.4467,-3.4414,-3.4414,-3.4414,-3.4414,-3.4346,-3.4264,-3.3894,-3.3465,-3.303,-3.2519,-3.2376,-3.239,-3.2318,-3.2232,-3.2001,-3.1563,-3.1104,-3.0789,-3.1436,-3.2273,-3.3108,-3.4355,-3.5481,-3.623,-3.6316,-3.6519,-3.691,-3.723,-3.7405,-3.7768,-3.8001,-3.8263,-3.8263,-3.8337,-3.8277,-3.8277,-3.8441,-3.8516,-3.8738,-3.8885,-3.9104,-3.925,-3.9481,-3.9879,-4.0285,-4.0216,-4.0216,-4.0339,-4.0478,-4.0737,-4.0873,-4.094,-4.1194,-4.1362,-4.1399,-4.1559,-4.1683,-4.1216,-4.0646,-4.0737,-4.1127,-4.126,-4.1738,-4.2317,-4.2896,-4.3295,-4.3262,-4.2704,-4.1997,-4.1153,-4.0501,-4.0176,-3.9996,-4.0091,-3.9824,-3.9424,-2.9119,-2.9104,-2.9032,-2.8996,-2.8936,-2.8502,-2.8156,-2.7881,-2.8308,-2.8752,-2.9067,-3.0076,-3.0853,-3.1413,-3.1781,-3.302,-3.4159,-3.5332,-3.6613,-3.7613,-3.8459,-3.9056,-3.9206,-3.9098,-3.8914,-3.886,-3.8766,-3.856,-3.8504,-3.8544,-3.875,-3.8678,-3.7589,-3.704,-3.6368,-3.5529,-3.4905,-3.4549,-3.4414,-3.4414,-3.4414,-3.4414,-3.4346,-3.4278,-3.3825,-3.3451,-3.3017,-3.2506,-3.2001,-3.1489,-3.1415,-3.1341,-3.1328,-3.0797,-3.0318,-3.0749,-3.0981,-3.1483,-3.2094,-3.3527,-3.4876,-3.5826,-3.6682,-3.7258,-3.736,-3.7476,-3.7839,-3.8015,-3.8133,-3.8279,-3.8412,-3.8472,-3.8486,-3.8486,-3.8501,-3.8575,-3.8723,-3.8885,-3.9031,-3.9104,-3.9337,-3.9424,-3.9809,-3.9809,-3.9753,-3.9753,-3.9824,-3.995,-4.0076,-4.027,-4.0409,-4.0668,-4.0779,-4.0821,-4.0992,-4.118,-4.0616,-4.0097,-4.037,-4.06,-4.094,-4.1393,-4.1981,-4.2364,-4.2632,-4.2423,-4.2026,-4.127,-4.0455,-4.0378,-4.0139,-3.9849,-3.9681,-3.9553,-3.9496,-2.9718,-2.9744,-2.9669,-2.9594,-2.952,-2.916,-2.8779,-2.8598,-2.874,-2.8958,-2.9365,-3.044,-3.1201,-3.1662,-3.2283,-3.3197,-3.4125,-3.5355,-3.6485,-3.7077,-3.8163,-3.8652,-3.8805,-3.8694,-3.86,-3.86,-3.856,-3.8448,-3.8448,-3.8655,-3.886,-3.8788,-3.7648,-3.71,-3.643,-3.5464,-3.475,-3.4481,-3.4481,-3.4481,-3.4481,-3.4414,-3.4293,-3.3951,-3.3409,-3.3003,-3.242,-3.1842,-3.1267,-3.0696,-3.0607,-3.0825,-3.0854,-3.0529,-3.0574,-3.1077,-3.1411,-3.2209,-3.3131,-3.4286,-3.5305,-3.6186,-3.731,-3.7673,-3.7883,-3.7926,-3.8101,-3.8292,-3.8427,-3.8501,-3.862,-3.8679,-3.8767,-3.8782,-3.8782,-3.8797,-3.8943,-3.9031,-3.9104,-3.9177,-3.9337,-3.9352,-3.9424,-3.9424,-3.9424,-3.9496,-3.9553,-3.9625,-3.9681,-3.9753,-3.9824,-4.0021,-4.0109,-4.014,-4.0393,-4.0739,-4.0362,-4.0207,-4.0439,-4.0668,-4.082,-4.1142,-4.1656,-4.1787,-4.1852,-4.1628,-4.1388,-4.0634,-4.0021,-4.0069,-4.0093,-3.9849,-3.9753,-3.9768,-3.9711,-3.0428,-3.0481,-2.9983,-2.9849,-2.9744,-2.9699,-2.9624,-2.9633,-2.923,-2.9245,-2.9823,-3.0703,-3.1511,-3.2129,-3.2776,-3.3433,-3.4431,-3.5618,-3.6441,-3.6584,-3.7883,-3.8488,-3.8504,-3.8391,-3.8448,-3.8391,-3.8408,-3.8464,-3.8488,-3.8711,-3.886,-3.875,-3.7722,-3.704,-3.6538,-3.5415,-3.4683,-3.4549,-3.4616,-3.4616,-3.4534,-3.4481,-3.4307,-3.3592,-3.3086,-3.2563,-3.1462,-3.0895,-3.0558,-3.0343,-3.0484,-3.0855,-3.0912,-3.1191,-3.1348,-3.1612,-3.2001,-3.2759,-3.3708,-3.4835,-3.6073,-3.7056,-3.8098,-3.8144,-3.8204,-3.819,-3.8366,-3.8425,-3.8559,-3.8738,-3.8782,-3.8929,-3.9017,-3.9017,-3.9031,-3.9031,-3.9104,-3.9192,-3.9265,-3.9337,-3.9337,-3.9424,-3.9424,-3.9424,-3.9424,-3.9424,-3.9424,-3.9424,-3.9424,-3.9424,-3.9553,-3.9625,-3.9677,-3.9868,-4.0224,-4.0401,-4.037,-4.0339,-4.0478,-4.0478,-4.0409,-4.0805,-4.1393,-4.1327,-4.126,-4.1068,-4.0774,-4.0139,-3.9793,-4.0039,-4.0039,-3.9864,-3.9768,-3.9925,-3.9854,-3.1098,-3.1098,-3.1063,-3.1076,-3.0971,-3.0492,-3.0283,-3.0268,-3.0188,-3.0173,-3.0458,-3.1242,-3.1989,-3.2664,-3.3096,-3.3817,-3.5245,-3.6027,-3.679,-3.738,-3.8157,-3.8391,-3.8408,-3.8408,-3.8391,-3.8391,-3.8408,-3.8504,-3.8639,-3.886,-3.8985,-3.8969,-3.7953,-3.71,-3.6661,-3.5464,-3.4802,-3.4549,-3.4683,-3.4721,-3.4677,-3.4601,-3.4457,-3.3842,-3.3297,-3.2304,-3.1489,-3.1044,-3.057,-3.0088,-3.1009,-3.1305,-3.1254,-3.1712,-3.1976,-3.2114,-3.2503,-3.3102,-3.3861,-3.4927,-3.5987,-3.6582,-3.7309,-3.8037,-3.8366,-3.8441,-3.8456,-3.8574,-3.8737,-3.8914,-3.9031,-3.9119,-3.9265,-3.9192,-3.9265,-3.9265,-3.9352,-3.9352,-3.9352,-3.9352,-3.9424,-3.9424,-3.9424,-3.9424,-3.9424,-3.9424,-3.9424,-3.9424,-3.9424,-3.9424,-3.9681,-3.9753,-3.9538,-3.9707,-4.0005,-4.0146,-4.0146,-4.0076,-4.0076,-4.0076,-4.0021,-4.0339,-4.0737,-4.0737,-4.0653,-4.0492,-4.0217,-3.9763,-3.9636,-3.9899,-4.0054,-3.9895,-4.0051,-4.0207,-4.0137,-3.1336,-3.1409,-3.1482,-3.1467,-3.1392,-3.1106,-3.0956,-3.0956,-3.0956,-3.0956,-3.1001,-3.1519,-3.2146,-3.3044,-3.3389,-3.4368,-3.5833,-3.6605,-3.7197,-3.7806,-3.8205,-3.8375,-3.8448,-3.8464,-3.8488,-3.8544,-3.8544,-3.8711,-3.8788,-3.8914,-3.904,-3.9023,-3.8084,-3.7175,-3.6661,-3.5642,-3.4802,-3.4563,-3.475,-3.4758,-3.4699,-3.4706,-3.421,-3.3591,-3.2717,-3.1882,-3.1084,-3.0672,-3.0458,-3.0476,-3.135,-3.1796,-3.1921,-3.2303,-3.2554,-3.2654,-3.294,-3.324,-3.3882,-3.4677,-3.5789,-3.6425,-3.7386,-3.8366,-3.8516,-3.8604,-3.8782,-3.8885,-3.8929,-3.9031,-3.9192,-3.9352,-3.9352,-3.9352,-3.9352,-3.9352,-3.9352,-3.9352,-3.9352,-3.9352,-3.9424,-3.9424,-3.9424,-3.9424,-3.9424,-3.9424,-3.9424,-3.9424,-3.9424,-3.9424,-3.9681,-3.9809,-3.9538,-3.9737,-4.0216,-4.0146,-3.995,-3.9879,-3.9809,-4.0076,-4.0216,-4.0021,-4.0021,-4.0091,-4.0076,-3.9864,-3.9595,-3.9424,-3.9466,-3.9748,-3.992,-4.0066,-4.0277,-4.0401,-4.0331,-3.1409,-3.1482,-3.1467,-3.1467,-3.1467,-3.1452,-3.1437,-3.1495,-3.1452,-3.1511,-3.1659,-3.1689,-3.2238,-3.3091,-3.3878,-3.4877,-3.5898,-3.6829,-3.7515,-3.7812,-3.8205,-3.8391,-3.8504,-3.852,-3.86,-3.8694,-3.875,-3.8805,-3.886,-3.8969,-3.904,-3.8914,-3.8124,-3.7175,-3.6492,-3.5642,-3.4802,-3.4683,-3.4735,-3.4677,-3.4662,-3.4677,-3.3868,-3.2973,-3.2069,-3.122,-3.0355,-3.002,-3.0247,-3.0733,-3.1531,-3.2072,-3.2424,-3.2717,-3.2867,-3.2993,-3.2993,-3.3496,-3.4217,-3.5087,-3.5963,-3.6922,-3.7962,-3.8516,-3.8604,-3.8841,-3.9017,-3.9091,-3.9119,-3.9192,-3.9352,-3.9424,-3.9424,-3.9424,-3.9424,-3.9424,-3.9424,-3.9424,-3.9424,-3.9424,-3.9424,-3.9424,-3.9424,-3.9424,-3.9424,-3.9424,-3.9439,-3.9424,-3.9424,-3.9424,-3.9553,-3.9625,-3.9481,-3.9824,-4.0216,-4.0076,-3.9753,-3.9879,-3.9879,-4.0146,-4.0285,-3.9879,-3.9696,-3.9553,-3.9481,-3.9481,-3.9481,-3.9424,-3.9538,-3.9707,-3.9895,-4.0066,-4.0261,-4.047,-4.047,-3.1482,-3.1467,-3.1467,-3.1467,-3.1524,-3.1467,-3.1467,-3.1467,-3.1539,-3.1809,-3.2198,-3.2554,-3.3004,-3.3833,-3.4501,-3.5401,-3.6321,-3.7147,-3.7326,-3.7535,-3.8148,-3.8448,-3.8616,-3.8672,-3.8672,-3.8766,-3.886,-3.886,-3.8914,-3.9094,-3.8969,-3.8463,-3.7895,-3.7011,-3.6243,-3.5509,-3.4935,-3.4817,-3.4654,-3.4581,-3.4124,-3.4037,-3.3817,-3.2982,-3.1984,-3.1347,-3.0724,-3.0519,-3.0524,-3.0896,-3.1637,-3.2353,-3.2729,-3.2968,-3.3043,-3.3081,-3.3081,-3.3496,-3.4217,-3.5156,-3.6029,-3.6908,-3.7857,-3.8664,-3.8811,-3.8973,-3.9134,-3.9294,-3.9265,-3.9265,-3.9424,-3.9424,-3.9424,-3.9424,-3.9424,-3.9424,-3.9424,-3.9424,-3.9424,-3.9424,-3.9424,-3.9424,-3.9424,-3.9424,-3.9424,-3.9454,-3.9544,-3.9544,-3.9619,-3.9544,-3.9544,-3.9604,-3.9649,-3.9424,-3.9625,-3.9681,-3.9553,-3.9753,-3.9809,-3.9879,-3.9824,-3.961,-3.9409,-3.9424,-3.9424,-3.9424,-3.9424,-3.9424,-3.961,-3.9809,-3.991,-4.0066,-4.0331,-4.0455,-4.0455]}]]